<?xml version="1.0" encoding="UTF-8" standalone="no" ?>
<gpx xmlns="http://www.topografix.com/GPX/1/1" xmlns:xsi="http://www.w3.org/2001/XMLSchema-instance" xsi:schemaLocation="http://www.topografix.com/GPX/1/1 http://www.topografix.com/GPX/1/1/gpx.xsd" version="1.1" creator="VisuGPX - https://www.visugpx.com">
  <metadata>
    <name>2 les Robines  a Castellane</name>
    <desc><![CDATA[2eme etape boucle Digne à digne transverdon-alpes provence]]></desc>
  </metadata>
  <trk>
    <name><![CDATA[2 les Robines  a Castellane]]></name>
    <trkseg>
      <trkpt lat="44.06711" lon="6.38966">
        <ele>938</ele>
        <time>2017-01-30T12:36:15Z</time>
      </trkpt>
      <trkpt lat="44.06688" lon="6.38996">
        <ele>937</ele>
        <time>2017-01-30T12:38:15Z</time>
      </trkpt>
      <trkpt lat="44.06637" lon="6.39071">
        <ele>932</ele>
        <time>2017-01-30T12:40:15Z</time>
      </trkpt>
      <trkpt lat="44.066" lon="6.39112">
        <ele>929</ele>
        <time>2017-01-30T12:42:15Z</time>
      </trkpt>
      <trkpt lat="44.06588" lon="6.39193">
        <ele>930</ele>
        <time>2017-01-30T12:44:15Z</time>
      </trkpt>
      <trkpt lat="44.06559" lon="6.39268">
        <ele>932</ele>
        <time>2017-01-30T12:46:15Z</time>
      </trkpt>
      <trkpt lat="44.06511" lon="6.39333">
        <ele>931</ele>
        <time>2017-01-30T12:48:15Z</time>
      </trkpt>
      <trkpt lat="44.06511" lon="6.39412">
        <ele>933</ele>
        <time>2017-01-30T12:50:15Z</time>
      </trkpt>
      <trkpt lat="44.06489" lon="6.395">
        <ele>937</ele>
        <time>2017-01-30T12:52:15Z</time>
      </trkpt>
      <trkpt lat="44.06474" lon="6.39522">
        <ele>937</ele>
        <time>2017-01-30T12:54:15Z</time>
      </trkpt>
      <trkpt lat="44.06427" lon="6.39537">
        <ele>935</ele>
        <time>2017-01-30T12:56:15Z</time>
      </trkpt>
      <trkpt lat="44.06395" lon="6.39524">
        <ele>934</ele>
        <time>2017-01-30T12:58:15Z</time>
      </trkpt>
      <trkpt lat="44.06367" lon="6.39543">
        <ele>934</ele>
        <time>2017-01-30T13:00:15Z</time>
      </trkpt>
      <trkpt lat="44.06318" lon="6.3968">
        <ele>938</ele>
        <time>2017-01-30T13:02:15Z</time>
      </trkpt>
      <trkpt lat="44.0632" lon="6.39755">
        <ele>940</ele>
        <time>2017-01-30T13:04:15Z</time>
      </trkpt>
      <trkpt lat="44.06304" lon="6.398">
        <ele>941</ele>
        <time>2017-01-30T13:06:15Z</time>
      </trkpt>
      <trkpt lat="44.06326" lon="6.39884">
        <ele>943</ele>
        <time>2017-01-30T13:08:15Z</time>
      </trkpt>
      <trkpt lat="44.06301" lon="6.39951">
        <ele>946</ele>
        <time>2017-01-30T13:10:15Z</time>
      </trkpt>
      <trkpt lat="44.0627" lon="6.40039">
        <ele>948</ele>
        <time>2017-01-30T13:12:15Z</time>
      </trkpt>
      <trkpt lat="44.06247" lon="6.40236">
        <ele>956</ele>
        <time>2017-01-30T13:14:15Z</time>
      </trkpt>
      <trkpt lat="44.06273" lon="6.40365">
        <ele>962</ele>
        <time>2017-01-30T13:16:15Z</time>
      </trkpt>
      <trkpt lat="44.06293" lon="6.40429">
        <ele>970</ele>
        <time>2017-01-30T13:18:15Z</time>
      </trkpt>
      <trkpt lat="44.06323" lon="6.40479">
        <ele>979</ele>
        <time>2017-01-30T13:20:15Z</time>
      </trkpt>
      <trkpt lat="44.06333" lon="6.40582">
        <ele>982</ele>
        <time>2017-01-30T13:22:15Z</time>
      </trkpt>
      <trkpt lat="44.06338" lon="6.40672">
        <ele>979</ele>
        <time>2017-01-30T13:24:15Z</time>
      </trkpt>
      <trkpt lat="44.06298" lon="6.40721">
        <ele>977</ele>
        <time>2017-01-30T13:26:15Z</time>
      </trkpt>
      <trkpt lat="44.06293" lon="6.40788">
        <ele>980</ele>
        <time>2017-01-30T13:28:15Z</time>
      </trkpt>
      <trkpt lat="44.06301" lon="6.40884">
        <ele>986</ele>
        <time>2017-01-30T13:30:15Z</time>
      </trkpt>
      <trkpt lat="44.06303" lon="6.40951">
        <ele>990</ele>
        <time>2017-01-30T13:32:15Z</time>
      </trkpt>
      <trkpt lat="44.06204" lon="6.41257">
        <ele>1012</ele>
        <time>2017-01-30T13:34:15Z</time>
      </trkpt>
      <trkpt lat="44.0617" lon="6.41315">
        <ele>1017</ele>
        <time>2017-01-30T13:36:15Z</time>
      </trkpt>
      <trkpt lat="44.06131" lon="6.41352">
        <ele>1023</ele>
        <time>2017-01-30T13:38:15Z</time>
      </trkpt>
      <trkpt lat="44.06141" lon="6.41414">
        <ele>1031</ele>
        <time>2017-01-30T13:40:15Z</time>
      </trkpt>
      <trkpt lat="44.06178" lon="6.41476">
        <ele>1034</ele>
        <time>2017-01-30T13:42:15Z</time>
      </trkpt>
      <trkpt lat="44.06184" lon="6.41547">
        <ele>1043</ele>
        <time>2017-01-30T13:44:15Z</time>
      </trkpt>
      <trkpt lat="44.06204" lon="6.41597">
        <ele>1045</ele>
        <time>2017-01-30T13:46:15Z</time>
      </trkpt>
      <trkpt lat="44.06158" lon="6.41577">
        <ele>1053</ele>
        <time>2017-01-30T13:48:15Z</time>
      </trkpt>
      <trkpt lat="44.06142" lon="6.4159">
        <ele>1057</ele>
        <time>2017-01-30T13:50:15Z</time>
      </trkpt>
      <trkpt lat="44.06125" lon="6.4168">
        <ele>1068</ele>
        <time>2017-01-30T13:52:15Z</time>
      </trkpt>
      <trkpt lat="44.06173" lon="6.41702">
        <ele>1061</ele>
        <time>2017-01-30T13:54:15Z</time>
      </trkpt>
      <trkpt lat="44.06111" lon="6.41723">
        <ele>1074</ele>
        <time>2017-01-30T13:56:15Z</time>
      </trkpt>
      <trkpt lat="44.06068" lon="6.41764">
        <ele>1082</ele>
        <time>2017-01-30T13:58:15Z</time>
      </trkpt>
      <trkpt lat="44.06054" lon="6.41833">
        <ele>1088</ele>
        <time>2017-01-30T14:00:15Z</time>
      </trkpt>
      <trkpt lat="44.06031" lon="6.42129">
        <ele>1126</ele>
        <time>2017-01-30T14:02:15Z</time>
      </trkpt>
      <trkpt lat="44.06076" lon="6.42174">
        <ele>1131</ele>
        <time>2017-01-30T14:04:15Z</time>
      </trkpt>
      <trkpt lat="44.06068" lon="6.4221">
        <ele>1139</ele>
        <time>2017-01-30T14:06:15Z</time>
      </trkpt>
      <trkpt lat="44.05999" lon="6.42236">
        <ele>1147</ele>
        <time>2017-01-30T14:08:15Z</time>
      </trkpt>
      <trkpt lat="44.0598" lon="6.42277">
        <ele>1153</ele>
        <time>2017-01-30T14:10:15Z</time>
      </trkpt>
      <trkpt lat="44.05946" lon="6.42298">
        <ele>1158</ele>
        <time>2017-01-30T14:12:15Z</time>
      </trkpt>
      <trkpt lat="44.05937" lon="6.42373">
        <ele>1170</ele>
        <time>2017-01-30T14:14:15Z</time>
      </trkpt>
      <trkpt lat="44.06017" lon="6.42444">
        <ele>1183</ele>
        <time>2017-01-30T14:16:15Z</time>
      </trkpt>
      <trkpt lat="44.06019" lon="6.42506">
        <ele>1195</ele>
        <time>2017-01-30T14:18:15Z</time>
      </trkpt>
      <trkpt lat="44.05976" lon="6.42566">
        <ele>1207</ele>
        <time>2017-01-30T14:20:15Z</time>
      </trkpt>
      <trkpt lat="44.05925" lon="6.42603">
        <ele>1219</ele>
        <time>2017-01-30T14:22:15Z</time>
      </trkpt>
      <trkpt lat="44.05875" lon="6.42599">
        <ele>1221</ele>
        <time>2017-01-30T14:24:15Z</time>
      </trkpt>
      <trkpt lat="44.05795" lon="6.42616">
        <ele>1225</ele>
        <time>2017-01-30T14:26:15Z</time>
      </trkpt>
      <trkpt lat="44.05769" lon="6.42665">
        <ele>1244</ele>
        <time>2017-01-30T14:28:15Z</time>
      </trkpt>
      <trkpt lat="44.0566" lon="6.42657">
        <ele>1253</ele>
        <time>2017-01-30T14:30:15Z</time>
      </trkpt>
      <trkpt lat="44.05607" lon="6.42637">
        <ele>1252</ele>
        <time>2017-01-30T14:32:15Z</time>
      </trkpt>
      <trkpt lat="44.05555" lon="6.42599">
        <ele>1252</ele>
        <time>2017-01-30T14:34:15Z</time>
      </trkpt>
      <trkpt lat="44.05495" lon="6.42611">
        <ele>1265</ele>
        <time>2017-01-30T14:36:15Z</time>
      </trkpt>
      <trkpt lat="44.05434" lon="6.4268">
        <ele>1274</ele>
        <time>2017-01-30T14:38:15Z</time>
      </trkpt>
      <trkpt lat="44.05496" lon="6.42704">
        <ele>1286</ele>
        <time>2017-01-30T14:40:15Z</time>
      </trkpt>
      <trkpt lat="44.05549" lon="6.42719">
        <ele>1293</ele>
        <time>2017-01-30T14:42:15Z</time>
      </trkpt>
      <trkpt lat="44.05601" lon="6.42749">
        <ele>1304</ele>
        <time>2017-01-30T14:44:15Z</time>
      </trkpt>
      <trkpt lat="44.05741" lon="6.42783">
        <ele>1304</ele>
        <time>2017-01-30T14:46:15Z</time>
      </trkpt>
      <trkpt lat="44.05866" lon="6.42815">
        <ele>1302</ele>
        <time>2017-01-30T14:48:15Z</time>
      </trkpt>
      <trkpt lat="44.05917" lon="6.42796">
        <ele>1291</ele>
        <time>2017-01-30T14:50:15Z</time>
      </trkpt>
      <trkpt lat="44.05965" lon="6.4282">
        <ele>1300</ele>
        <time>2017-01-30T14:52:15Z</time>
      </trkpt>
      <trkpt lat="44.06051" lon="6.42813">
        <ele>1307</ele>
        <time>2017-01-30T14:54:15Z</time>
      </trkpt>
      <trkpt lat="44.06101" lon="6.42835">
        <ele>1323</ele>
        <time>2017-01-30T14:56:15Z</time>
      </trkpt>
      <trkpt lat="44.06158" lon="6.42822">
        <ele>1317</ele>
        <time>2017-01-30T14:58:15Z</time>
      </trkpt>
      <trkpt lat="44.06221" lon="6.42832">
        <ele>1320</ele>
        <time>2017-01-30T15:00:15Z</time>
      </trkpt>
      <trkpt lat="44.06313" lon="6.42837">
        <ele>1322</ele>
        <time>2017-01-30T15:02:15Z</time>
      </trkpt>
      <trkpt lat="44.06367" lon="6.4285">
        <ele>1325</ele>
        <time>2017-01-30T15:04:15Z</time>
      </trkpt>
      <trkpt lat="44.06409" lon="6.42923">
        <ele>1344</ele>
        <time>2017-01-30T15:06:15Z</time>
      </trkpt>
      <trkpt lat="44.06515" lon="6.42974">
        <ele>1344</ele>
        <time>2017-01-30T15:08:15Z</time>
      </trkpt>
      <trkpt lat="44.06622" lon="6.42989">
        <ele>1343</ele>
        <time>2017-01-30T15:10:15Z</time>
      </trkpt>
      <trkpt lat="44.06663" lon="6.4303">
        <ele>1338</ele>
        <time>2017-01-30T15:12:15Z</time>
      </trkpt>
      <trkpt lat="44.06731" lon="6.43021">
        <ele>1361</ele>
        <time>2017-01-30T15:14:15Z</time>
      </trkpt>
      <trkpt lat="44.0675" lon="6.43152">
        <ele>1346</ele>
        <time>2017-01-30T15:16:15Z</time>
      </trkpt>
      <trkpt lat="44.06841" lon="6.43146">
        <ele>1340</ele>
        <time>2017-01-30T15:18:15Z</time>
      </trkpt>
      <trkpt lat="44.06915" lon="6.43262">
        <ele>1319</ele>
        <time>2017-01-30T15:20:15Z</time>
      </trkpt>
      <trkpt lat="44.06972" lon="6.43236">
        <ele>1311</ele>
        <time>2017-01-30T15:22:15Z</time>
      </trkpt>
      <trkpt lat="44.07029" lon="6.43236">
        <ele>1298</ele>
        <time>2017-01-30T15:24:15Z</time>
      </trkpt>
      <trkpt lat="44.07086" lon="6.43234">
        <ele>1291</ele>
        <time>2017-01-30T15:26:15Z</time>
      </trkpt>
      <trkpt lat="44.07141" lon="6.43217">
        <ele>1293</ele>
        <time>2017-01-30T15:28:15Z</time>
      </trkpt>
      <trkpt lat="44.07191" lon="6.43255">
        <ele>1279</ele>
        <time>2017-01-30T15:30:15Z</time>
      </trkpt>
      <trkpt lat="44.07283" lon="6.43281">
        <ele>1256</ele>
        <time>2017-01-30T15:32:15Z</time>
      </trkpt>
      <trkpt lat="44.07373" lon="6.43255">
        <ele>1264</ele>
        <time>2017-01-30T15:34:15Z</time>
      </trkpt>
      <trkpt lat="44.0738" lon="6.43294">
        <ele>1267</ele>
        <time>2017-01-30T15:36:15Z</time>
      </trkpt>
      <trkpt lat="44.07411" lon="6.43264">
        <ele>1273</ele>
        <time>2017-01-30T15:38:15Z</time>
      </trkpt>
      <trkpt lat="44.07436" lon="6.43358">
        <ele>1279</ele>
        <time>2017-01-30T15:40:15Z</time>
      </trkpt>
      <trkpt lat="44.07462" lon="6.43423">
        <ele>1283</ele>
        <time>2017-01-30T15:42:15Z</time>
      </trkpt>
      <trkpt lat="44.07482" lon="6.43487">
        <ele>1286</ele>
        <time>2017-01-30T15:44:15Z</time>
      </trkpt>
      <trkpt lat="44.07548" lon="6.43553">
        <ele>1306</ele>
        <time>2017-01-30T15:46:15Z</time>
      </trkpt>
      <trkpt lat="44.07573" lon="6.43502">
        <ele>1314</ele>
        <time>2017-01-30T15:48:15Z</time>
      </trkpt>
      <trkpt lat="44.07568" lon="6.43431">
        <ele>1312</ele>
        <time>2017-01-30T15:50:15Z</time>
      </trkpt>
      <trkpt lat="44.07565" lon="6.43377">
        <ele>1313</ele>
        <time>2017-01-30T15:52:15Z</time>
      </trkpt>
      <trkpt lat="44.0761" lon="6.43354">
        <ele>1323</ele>
        <time>2017-01-30T15:54:15Z</time>
      </trkpt>
      <trkpt lat="44.07653" lon="6.4333">
        <ele>1333</ele>
        <time>2017-01-30T15:56:15Z</time>
      </trkpt>
      <trkpt lat="44.07676" lon="6.43367">
        <ele>1343</ele>
        <time>2017-01-30T15:58:15Z</time>
      </trkpt>
      <trkpt lat="44.07653" lon="6.43425">
        <ele>1341</ele>
        <time>2017-01-30T16:00:15Z</time>
      </trkpt>
      <trkpt lat="44.07662" lon="6.43526">
        <ele>1351</ele>
        <time>2017-01-30T16:02:15Z</time>
      </trkpt>
      <trkpt lat="44.07633" lon="6.43618">
        <ele>1346</ele>
        <time>2017-01-30T16:04:15Z</time>
      </trkpt>
      <trkpt lat="44.07599" lon="6.43689">
        <ele>1338</ele>
        <time>2017-01-30T16:06:15Z</time>
      </trkpt>
      <trkpt lat="44.07585" lon="6.4374">
        <ele>1334</ele>
        <time>2017-01-30T16:08:15Z</time>
      </trkpt>
      <trkpt lat="44.07596" lon="6.43785">
        <ele>1332</ele>
        <time>2017-01-30T16:10:15Z</time>
      </trkpt>
      <trkpt lat="44.07633" lon="6.4389">
        <ele>1331</ele>
        <time>2017-01-30T16:12:15Z</time>
      </trkpt>
      <trkpt lat="44.07726" lon="6.43944">
        <ele>1357</ele>
        <time>2017-01-30T16:14:15Z</time>
      </trkpt>
      <trkpt lat="44.07775" lon="6.44004">
        <ele>1372</ele>
        <time>2017-01-30T16:16:15Z</time>
      </trkpt>
      <trkpt lat="44.07844" lon="6.44152">
        <ele>1391</ele>
        <time>2017-01-30T16:18:15Z</time>
      </trkpt>
      <trkpt lat="44.07807" lon="6.44199">
        <ele>1388</ele>
        <time>2017-01-30T16:20:15Z</time>
      </trkpt>
      <trkpt lat="44.07801" lon="6.44262">
        <ele>1390</ele>
        <time>2017-01-30T16:22:15Z</time>
      </trkpt>
      <trkpt lat="44.07787" lon="6.44328">
        <ele>1386</ele>
        <time>2017-01-30T16:24:15Z</time>
      </trkpt>
      <trkpt lat="44.07813" lon="6.44384">
        <ele>1375</ele>
        <time>2017-01-30T16:26:15Z</time>
      </trkpt>
      <trkpt lat="44.07863" lon="6.44476">
        <ele>1346</ele>
        <time>2017-01-30T16:28:15Z</time>
      </trkpt>
      <trkpt lat="44.07875" lon="6.44549">
        <ele>1338</ele>
        <time>2017-01-30T16:30:15Z</time>
      </trkpt>
      <trkpt lat="44.07929" lon="6.44616">
        <ele>1319</ele>
        <time>2017-01-30T16:32:15Z</time>
      </trkpt>
      <trkpt lat="44.07975" lon="6.4465">
        <ele>1312</ele>
        <time>2017-01-30T16:34:15Z</time>
      </trkpt>
      <trkpt lat="44.07974" lon="6.44781">
        <ele>1293</ele>
        <time>2017-01-30T16:36:15Z</time>
      </trkpt>
      <trkpt lat="44.08022" lon="6.44828">
        <ele>1281</ele>
        <time>2017-01-30T16:38:15Z</time>
      </trkpt>
      <trkpt lat="44.0802" lon="6.44862">
        <ele>1274</ele>
        <time>2017-01-30T16:40:15Z</time>
      </trkpt>
      <trkpt lat="44.07985" lon="6.44942">
        <ele>1275</ele>
        <time>2017-01-30T16:42:15Z</time>
      </trkpt>
      <trkpt lat="44.07952" lon="6.45053">
        <ele>1279</ele>
        <time>2017-01-30T16:44:15Z</time>
      </trkpt>
      <trkpt lat="44.07938" lon="6.45126">
        <ele>1283</ele>
        <time>2017-01-30T16:46:15Z</time>
      </trkpt>
      <trkpt lat="44.07931" lon="6.45204">
        <ele>1283</ele>
        <time>2017-01-30T16:48:15Z</time>
      </trkpt>
      <trkpt lat="44.079" lon="6.45307">
        <ele>1289</ele>
        <time>2017-01-30T16:50:15Z</time>
      </trkpt>
      <trkpt lat="44.0789" lon="6.45369">
        <ele>1285</ele>
        <time>2017-01-30T16:52:15Z</time>
      </trkpt>
      <trkpt lat="44.07877" lon="6.4544">
        <ele>1279</ele>
        <time>2017-01-30T16:54:15Z</time>
      </trkpt>
      <trkpt lat="44.0782" lon="6.45536">
        <ele>1272</ele>
        <time>2017-01-30T16:56:15Z</time>
      </trkpt>
      <trkpt lat="44.07775" lon="6.45616">
        <ele>1264</ele>
        <time>2017-01-30T16:58:15Z</time>
      </trkpt>
      <trkpt lat="44.07736" lon="6.45648">
        <ele>1263</ele>
        <time>2017-01-30T17:00:15Z</time>
      </trkpt>
      <trkpt lat="44.07689" lon="6.45684">
        <ele>1268</ele>
        <time>2017-01-30T17:02:15Z</time>
      </trkpt>
      <trkpt lat="44.07636" lon="6.45744">
        <ele>1265</ele>
        <time>2017-01-30T17:04:15Z</time>
      </trkpt>
      <trkpt lat="44.07562" lon="6.45738">
        <ele>1280</ele>
        <time>2017-01-30T17:06:15Z</time>
      </trkpt>
      <trkpt lat="44.07554" lon="6.45783">
        <ele>1284</ele>
        <time>2017-01-30T17:08:15Z</time>
      </trkpt>
      <trkpt lat="44.07564" lon="6.45907">
        <ele>1275</ele>
        <time>2017-01-30T17:10:15Z</time>
      </trkpt>
      <trkpt lat="44.07508" lon="6.46006">
        <ele>1282</ele>
        <time>2017-01-30T17:12:15Z</time>
      </trkpt>
      <trkpt lat="44.07453" lon="6.46115">
        <ele>1286</ele>
        <time>2017-01-30T17:14:15Z</time>
      </trkpt>
      <trkpt lat="44.07433" lon="6.46167">
        <ele>1283</ele>
        <time>2017-01-30T17:16:15Z</time>
      </trkpt>
      <trkpt lat="44.07348" lon="6.46197">
        <ele>1296</ele>
        <time>2017-01-30T17:18:15Z</time>
      </trkpt>
      <trkpt lat="44.07282" lon="6.46257">
        <ele>1294</ele>
        <time>2017-01-30T17:20:15Z</time>
      </trkpt>
      <trkpt lat="44.07225" lon="6.46345">
        <ele>1298</ele>
        <time>2017-01-30T17:22:15Z</time>
      </trkpt>
      <trkpt lat="44.07192" lon="6.46403">
        <ele>1299</ele>
        <time>2017-01-30T17:24:15Z</time>
      </trkpt>
      <trkpt lat="44.07155" lon="6.46437">
        <ele>1300</ele>
        <time>2017-01-30T17:26:15Z</time>
      </trkpt>
      <trkpt lat="44.07103" lon="6.46512">
        <ele>1287</ele>
        <time>2017-01-30T17:28:15Z</time>
      </trkpt>
      <trkpt lat="44.07063" lon="6.46532">
        <ele>1289</ele>
        <time>2017-01-30T17:30:15Z</time>
      </trkpt>
      <trkpt lat="44.0701" lon="6.46487">
        <ele>1295</ele>
        <time>2017-01-30T17:32:15Z</time>
      </trkpt>
      <trkpt lat="44.06987" lon="6.46424">
        <ele>1301</ele>
        <time>2017-01-30T17:34:15Z</time>
      </trkpt>
      <trkpt lat="44.06976" lon="6.46349">
        <ele>1307</ele>
        <time>2017-01-30T17:36:15Z</time>
      </trkpt>
      <trkpt lat="44.06952" lon="6.46364">
        <ele>1299</ele>
        <time>2017-01-30T17:38:15Z</time>
      </trkpt>
      <trkpt lat="44.06922" lon="6.46401">
        <ele>1286</ele>
        <time>2017-01-30T17:40:15Z</time>
      </trkpt>
      <trkpt lat="44.06867" lon="6.46412">
        <ele>1290</ele>
        <time>2017-01-30T17:42:15Z</time>
      </trkpt>
      <trkpt lat="44.06824" lon="6.46392">
        <ele>1298</ele>
        <time>2017-01-30T17:44:15Z</time>
      </trkpt>
      <trkpt lat="44.06811" lon="6.46414">
        <ele>1290</ele>
        <time>2017-01-30T17:46:15Z</time>
      </trkpt>
      <trkpt lat="44.06814" lon="6.46444">
        <ele>1281</ele>
        <time>2017-01-30T17:48:15Z</time>
      </trkpt>
      <trkpt lat="44.06764" lon="6.46418">
        <ele>1282</ele>
        <time>2017-01-30T17:50:15Z</time>
      </trkpt>
      <trkpt lat="44.06807" lon="6.46474">
        <ele>1268</ele>
        <time>2017-01-30T17:52:15Z</time>
      </trkpt>
      <trkpt lat="44.06865" lon="6.4653">
        <ele>1246</ele>
        <time>2017-01-30T17:54:15Z</time>
      </trkpt>
      <trkpt lat="44.06919" lon="6.46495">
        <ele>1266</ele>
        <time>2017-01-30T17:56:15Z</time>
      </trkpt>
      <trkpt lat="44.06945" lon="6.4656">
        <ele>1261</ele>
        <time>2017-01-30T17:58:15Z</time>
      </trkpt>
      <trkpt lat="44.06945" lon="6.4665">
        <ele>1245</ele>
        <time>2017-01-30T18:00:15Z</time>
      </trkpt>
      <trkpt lat="44.0697" lon="6.46751">
        <ele>1234</ele>
        <time>2017-01-30T18:02:15Z</time>
      </trkpt>
      <trkpt lat="44.07003" lon="6.46867">
        <ele>1214</ele>
        <time>2017-01-30T18:04:15Z</time>
      </trkpt>
      <trkpt lat="44.07018" lon="6.46937">
        <ele>1195</ele>
        <time>2017-01-30T18:06:15Z</time>
      </trkpt>
      <trkpt lat="44.0706" lon="6.46985">
        <ele>1179</ele>
        <time>2017-01-30T18:08:15Z</time>
      </trkpt>
      <trkpt lat="44.07106" lon="6.47025">
        <ele>1160</ele>
        <time>2017-01-30T18:10:15Z</time>
      </trkpt>
      <trkpt lat="44.07107" lon="6.47103">
        <ele>1147</ele>
        <time>2017-01-30T18:12:15Z</time>
      </trkpt>
      <trkpt lat="44.07089" lon="6.47214">
        <ele>1135</ele>
        <time>2017-01-30T18:14:15Z</time>
      </trkpt>
      <trkpt lat="44.07138" lon="6.47283">
        <ele>1113</ele>
        <time>2017-01-30T18:16:15Z</time>
      </trkpt>
      <trkpt lat="44.07138" lon="6.47377">
        <ele>1105</ele>
        <time>2017-01-30T18:18:15Z</time>
      </trkpt>
      <trkpt lat="44.07147" lon="6.47502">
        <ele>1086</ele>
        <time>2017-01-30T18:20:15Z</time>
      </trkpt>
      <trkpt lat="44.07174" lon="6.47585">
        <ele>1077</ele>
        <time>2017-01-30T18:22:15Z</time>
      </trkpt>
      <trkpt lat="44.07226" lon="6.47605">
        <ele>1072</ele>
        <time>2017-01-30T18:24:15Z</time>
      </trkpt>
      <trkpt lat="44.07319" lon="6.47761">
        <ele>1072</ele>
        <time>2017-01-30T18:26:15Z</time>
      </trkpt>
      <trkpt lat="44.0732" lon="6.4783">
        <ele>1069</ele>
        <time>2017-01-30T18:28:15Z</time>
      </trkpt>
      <trkpt lat="44.07368" lon="6.47802">
        <ele>1075</ele>
        <time>2017-01-30T18:30:15Z</time>
      </trkpt>
      <trkpt lat="44.07406" lon="6.47851">
        <ele>1076</ele>
        <time>2017-01-30T18:32:15Z</time>
      </trkpt>
      <trkpt lat="44.07528" lon="6.47954">
        <ele>1079</ele>
        <time>2017-01-30T18:34:15Z</time>
      </trkpt>
      <trkpt lat="44.07611" lon="6.47977">
        <ele>1081</ele>
        <time>2017-01-30T18:36:15Z</time>
      </trkpt>
      <trkpt lat="44.07695" lon="6.47964">
        <ele>1078</ele>
        <time>2017-01-30T18:38:15Z</time>
      </trkpt>
      <trkpt lat="44.07784" lon="6.47973">
        <ele>1081</ele>
        <time>2017-01-30T18:40:15Z</time>
      </trkpt>
      <trkpt lat="44.07866" lon="6.47979">
        <ele>1084</ele>
        <time>2017-01-30T18:42:15Z</time>
      </trkpt>
      <trkpt lat="44.07934" lon="6.47975">
        <ele>1085</ele>
        <time>2017-01-30T18:44:15Z</time>
      </trkpt>
      <trkpt lat="44.08057" lon="6.47921">
        <ele>1091</ele>
        <time>2017-01-30T18:46:15Z</time>
      </trkpt>
      <trkpt lat="44.08233" lon="6.47891">
        <ele>1095</ele>
        <time>2017-01-30T18:48:15Z</time>
      </trkpt>
      <trkpt lat="44.08317" lon="6.47908">
        <ele>1096</ele>
        <time>2017-01-30T18:50:15Z</time>
      </trkpt>
      <trkpt lat="44.08438" lon="6.47949">
        <ele>1098</ele>
        <time>2017-01-30T18:52:15Z</time>
      </trkpt>
      <trkpt lat="44.08498" lon="6.47953">
        <ele>1098</ele>
        <time>2017-01-30T18:54:15Z</time>
      </trkpt>
      <trkpt lat="44.08561" lon="6.47934">
        <ele>1099</ele>
        <time>2017-01-30T18:56:15Z</time>
      </trkpt>
      <trkpt lat="44.08637" lon="6.47943">
        <ele>1102</ele>
        <time>2017-01-30T18:58:15Z</time>
      </trkpt>
      <trkpt lat="44.08664" lon="6.48005">
        <ele>1100</ele>
        <time>2017-01-30T19:00:15Z</time>
      </trkpt>
      <trkpt lat="44.08806" lon="6.48065">
        <ele>1104</ele>
        <time>2017-01-30T19:02:15Z</time>
      </trkpt>
      <trkpt lat="44.08877" lon="6.48071">
        <ele>1108</ele>
        <time>2017-01-30T19:04:15Z</time>
      </trkpt>
      <trkpt lat="44.08939" lon="6.48104">
        <ele>1114</ele>
        <time>2017-01-30T19:06:15Z</time>
      </trkpt>
      <trkpt lat="44.08986" lon="6.48159">
        <ele>1111</ele>
        <time>2017-01-30T19:08:15Z</time>
      </trkpt>
      <trkpt lat="44.09096" lon="6.48219">
        <ele>1113</ele>
        <time>2017-01-30T19:10:15Z</time>
      </trkpt>
      <trkpt lat="44.09216" lon="6.48297">
        <ele>1124</ele>
        <time>2017-01-30T19:12:15Z</time>
      </trkpt>
      <trkpt lat="44.09259" lon="6.4835">
        <ele>1119</ele>
        <time>2017-01-30T19:14:15Z</time>
      </trkpt>
      <trkpt lat="44.09332" lon="6.48419">
        <ele>1130</ele>
        <time>2017-01-30T19:16:15Z</time>
      </trkpt>
      <trkpt lat="44.0937" lon="6.48464">
        <ele>1143</ele>
        <time>2017-01-30T19:18:15Z</time>
      </trkpt>
      <trkpt lat="44.09407" lon="6.48586">
        <ele>1149</ele>
        <time>2017-01-30T19:20:15Z</time>
      </trkpt>
      <trkpt lat="44.09409" lon="6.48655">
        <ele>1136</ele>
        <time>2017-01-30T19:22:15Z</time>
      </trkpt>
      <trkpt lat="44.09419" lon="6.48724">
        <ele>1129</ele>
        <time>2017-01-30T19:24:15Z</time>
      </trkpt>
      <trkpt lat="44.0946" lon="6.48825">
        <ele>1149</ele>
        <time>2017-01-30T19:26:15Z</time>
      </trkpt>
      <trkpt lat="44.09456" lon="6.48962">
        <ele>1148</ele>
        <time>2017-01-30T19:28:15Z</time>
      </trkpt>
      <trkpt lat="44.09449" lon="6.49144">
        <ele>1145</ele>
        <time>2017-01-30T19:30:15Z</time>
      </trkpt>
      <trkpt lat="44.09461" lon="6.49258">
        <ele>1147</ele>
        <time>2017-01-30T19:32:15Z</time>
      </trkpt>
      <trkpt lat="44.09513" lon="6.49318">
        <ele>1170</ele>
        <time>2017-01-30T19:34:15Z</time>
      </trkpt>
      <trkpt lat="44.09512" lon="6.49406">
        <ele>1180</ele>
        <time>2017-01-30T19:36:15Z</time>
      </trkpt>
      <trkpt lat="44.09513" lon="6.49494">
        <ele>1182</ele>
        <time>2017-01-30T19:38:15Z</time>
      </trkpt>
      <trkpt lat="44.09513" lon="6.49571">
        <ele>1180</ele>
        <time>2017-01-30T19:40:15Z</time>
      </trkpt>
      <trkpt lat="44.09503" lon="6.4964">
        <ele>1174</ele>
        <time>2017-01-30T19:42:15Z</time>
      </trkpt>
      <trkpt lat="44.09512" lon="6.49726">
        <ele>1174</ele>
        <time>2017-01-30T19:44:15Z</time>
      </trkpt>
      <trkpt lat="44.09512" lon="6.49779">
        <ele>1168</ele>
        <time>2017-01-30T19:46:15Z</time>
      </trkpt>
      <trkpt lat="44.09527" lon="6.49859">
        <ele>1168</ele>
        <time>2017-01-30T19:48:15Z</time>
      </trkpt>
      <trkpt lat="44.09532" lon="6.49912">
        <ele>1164</ele>
        <time>2017-01-30T19:50:15Z</time>
      </trkpt>
      <trkpt lat="44.09549" lon="6.49996">
        <ele>1156</ele>
        <time>2017-01-30T19:52:15Z</time>
      </trkpt>
      <trkpt lat="44.09487" lon="6.50015">
        <ele>1149</ele>
        <time>2017-01-30T19:54:15Z</time>
      </trkpt>
      <trkpt lat="44.09438" lon="6.50043">
        <ele>1148</ele>
        <time>2017-01-30T19:56:15Z</time>
      </trkpt>
      <trkpt lat="44.09399" lon="6.50015">
        <ele>1147</ele>
        <time>2017-01-30T19:58:15Z</time>
      </trkpt>
      <trkpt lat="44.09275" lon="6.4999">
        <ele>1150</ele>
        <time>2017-01-30T20:00:15Z</time>
      </trkpt>
      <trkpt lat="44.09245" lon="6.49975">
        <ele>1149</ele>
        <time>2017-01-30T20:02:15Z</time>
      </trkpt>
      <trkpt lat="44.09201" lon="6.49921">
        <ele>1143</ele>
        <time>2017-01-30T20:04:15Z</time>
      </trkpt>
      <trkpt lat="44.09162" lon="6.49925">
        <ele>1143</ele>
        <time>2017-01-30T20:06:15Z</time>
      </trkpt>
      <trkpt lat="44.09099" lon="6.49957">
        <ele>1139</ele>
        <time>2017-01-30T20:08:15Z</time>
      </trkpt>
      <trkpt lat="44.09059" lon="6.4994">
        <ele>1136</ele>
        <time>2017-01-30T20:10:15Z</time>
      </trkpt>
      <trkpt lat="44.09079" lon="6.5003">
        <ele>1135</ele>
        <time>2017-01-30T20:12:15Z</time>
      </trkpt>
      <trkpt lat="44.09088" lon="6.50203">
        <ele>1138</ele>
      </trkpt>
      <trkpt lat="44.09082" lon="6.50217">
        <ele>1137</ele>
      </trkpt>
      <trkpt lat="44.09076" lon="6.50226">
        <ele>1136</ele>
      </trkpt>
      <trkpt lat="44.09066" lon="6.50239">
        <ele>1136</ele>
      </trkpt>
      <trkpt lat="44.09061" lon="6.50246">
        <ele>1136</ele>
      </trkpt>
      <trkpt lat="44.09055" lon="6.50253">
        <ele>1136</ele>
      </trkpt>
      <trkpt lat="44.0905" lon="6.50256">
        <ele>1136</ele>
      </trkpt>
      <trkpt lat="44.09046" lon="6.50262">
        <ele>1137</ele>
      </trkpt>
      <trkpt lat="44.09034" lon="6.5027">
        <ele>1138</ele>
      </trkpt>
      <trkpt lat="44.09027" lon="6.50274">
        <ele>1138</ele>
      </trkpt>
      <trkpt lat="44.09019" lon="6.50279">
        <ele>1138</ele>
      </trkpt>
      <trkpt lat="44.0901" lon="6.50287">
        <ele>1138</ele>
      </trkpt>
      <trkpt lat="44.08999" lon="6.50293">
        <ele>1137</ele>
      </trkpt>
      <trkpt lat="44.08986" lon="6.50297">
        <ele>1137</ele>
      </trkpt>
      <trkpt lat="44.08972" lon="6.50297">
        <ele>1136</ele>
      </trkpt>
      <trkpt lat="44.08958" lon="6.50297">
        <ele>1135</ele>
      </trkpt>
      <trkpt lat="44.08945" lon="6.50295">
        <ele>1134</ele>
      </trkpt>
      <trkpt lat="44.08936" lon="6.50294">
        <ele>1133</ele>
      </trkpt>
      <trkpt lat="44.08933" lon="6.50296">
        <ele>1132</ele>
      </trkpt>
      <trkpt lat="44.0893" lon="6.50294">
        <ele>1132</ele>
      </trkpt>
      <trkpt lat="44.08925" lon="6.50296">
        <ele>1132</ele>
      </trkpt>
      <trkpt lat="44.08929" lon="6.50299">
        <ele>1132</ele>
      </trkpt>
      <trkpt lat="44.08929" lon="6.50296">
        <ele>1132</ele>
      </trkpt>
      <trkpt lat="44.08918" lon="6.50293">
        <ele>1131</ele>
      </trkpt>
      <trkpt lat="44.08901" lon="6.50296">
        <ele>1129</ele>
      </trkpt>
      <trkpt lat="44.08875" lon="6.50303">
        <ele>1125</ele>
      </trkpt>
      <trkpt lat="44.08847" lon="6.50311">
        <ele>1120</ele>
      </trkpt>
      <trkpt lat="44.08817" lon="6.50314">
        <ele>1115</ele>
      </trkpt>
      <trkpt lat="44.08791" lon="6.5032">
        <ele>1112</ele>
      </trkpt>
      <trkpt lat="44.08768" lon="6.50328">
        <ele>1110</ele>
      </trkpt>
      <trkpt lat="44.08747" lon="6.50336">
        <ele>1110</ele>
      </trkpt>
      <trkpt lat="44.08725" lon="6.50345">
        <ele>1110</ele>
      </trkpt>
      <trkpt lat="44.08704" lon="6.5035">
        <ele>1110</ele>
      </trkpt>
      <trkpt lat="44.0868" lon="6.50345">
        <ele>1110</ele>
      </trkpt>
      <trkpt lat="44.08662" lon="6.50332">
        <ele>1110</ele>
      </trkpt>
      <trkpt lat="44.08644" lon="6.50321">
        <ele>1111</ele>
      </trkpt>
      <trkpt lat="44.08626" lon="6.50314">
        <ele>1111</ele>
      </trkpt>
      <trkpt lat="44.08613" lon="6.50313">
        <ele>1112</ele>
      </trkpt>
      <trkpt lat="44.08591" lon="6.50322">
        <ele>1113</ele>
      </trkpt>
      <trkpt lat="44.08585" lon="6.50329">
        <ele>1113</ele>
      </trkpt>
      <trkpt lat="44.08579" lon="6.50336">
        <ele>1114</ele>
      </trkpt>
      <trkpt lat="44.08571" lon="6.50353">
        <ele>1114</ele>
      </trkpt>
      <trkpt lat="44.08562" lon="6.50366">
        <ele>1114</ele>
      </trkpt>
      <trkpt lat="44.0855" lon="6.50381">
        <ele>1115</ele>
      </trkpt>
      <trkpt lat="44.0854" lon="6.50393">
        <ele>1116</ele>
      </trkpt>
      <trkpt lat="44.08529" lon="6.50404">
        <ele>1116</ele>
      </trkpt>
      <trkpt lat="44.0852" lon="6.50417">
        <ele>1117</ele>
      </trkpt>
      <trkpt lat="44.08514" lon="6.5043">
        <ele>1117</ele>
      </trkpt>
      <trkpt lat="44.08506" lon="6.50441">
        <ele>1118</ele>
      </trkpt>
      <trkpt lat="44.08499" lon="6.50452">
        <ele>1119</ele>
      </trkpt>
      <trkpt lat="44.08492" lon="6.50461">
        <ele>1120</ele>
      </trkpt>
      <trkpt lat="44.08485" lon="6.50471">
        <ele>1121</ele>
      </trkpt>
      <trkpt lat="44.08478" lon="6.5048">
        <ele>1122</ele>
      </trkpt>
      <trkpt lat="44.08472" lon="6.50488">
        <ele>1123</ele>
      </trkpt>
      <trkpt lat="44.08472" lon="6.50501">
        <ele>1124</ele>
      </trkpt>
      <trkpt lat="44.08476" lon="6.50514">
        <ele>1124</ele>
      </trkpt>
      <trkpt lat="44.08478" lon="6.50523">
        <ele>1124</ele>
      </trkpt>
      <trkpt lat="44.08481" lon="6.50532">
        <ele>1123</ele>
      </trkpt>
      <trkpt lat="44.08486" lon="6.5054">
        <ele>1123</ele>
      </trkpt>
      <trkpt lat="44.08491" lon="6.50546">
        <ele>1122</ele>
      </trkpt>
      <trkpt lat="44.08495" lon="6.50555">
        <ele>1122</ele>
      </trkpt>
      <trkpt lat="44.08497" lon="6.50561">
        <ele>1122</ele>
      </trkpt>
      <trkpt lat="44.08496" lon="6.50577">
        <ele>1122</ele>
      </trkpt>
      <trkpt lat="44.08492" lon="6.5059">
        <ele>1122</ele>
      </trkpt>
      <trkpt lat="44.08488" lon="6.50607">
        <ele>1123</ele>
      </trkpt>
      <trkpt lat="44.08484" lon="6.50626">
        <ele>1124</ele>
      </trkpt>
      <trkpt lat="44.08479" lon="6.50645">
        <ele>1126</ele>
      </trkpt>
      <trkpt lat="44.085" lon="6.50628">
        <ele>1122</ele>
      </trkpt>
      <trkpt lat="44.08524" lon="6.50621">
        <ele>1119</ele>
      </trkpt>
      <trkpt lat="44.0855" lon="6.50615">
        <ele>1118</ele>
      </trkpt>
      <trkpt lat="44.08573" lon="6.50611">
        <ele>1118</ele>
      </trkpt>
      <trkpt lat="44.08584" lon="6.50609">
        <ele>1117</ele>
      </trkpt>
      <trkpt lat="44.08574" lon="6.50625">
        <ele>1118</ele>
      </trkpt>
      <trkpt lat="44.08578" lon="6.50642">
        <ele>1118</ele>
      </trkpt>
      <trkpt lat="44.08582" lon="6.50653">
        <ele>1118</ele>
      </trkpt>
      <trkpt lat="44.0859" lon="6.50676">
        <ele>1119</ele>
      </trkpt>
      <trkpt lat="44.08595" lon="6.50694">
        <ele>1119</ele>
      </trkpt>
      <trkpt lat="44.08603" lon="6.50709">
        <ele>1119</ele>
      </trkpt>
      <trkpt lat="44.08615" lon="6.50721">
        <ele>1120</ele>
      </trkpt>
      <trkpt lat="44.08629" lon="6.50731">
        <ele>1120</ele>
      </trkpt>
      <trkpt lat="44.08644" lon="6.50741">
        <ele>1120</ele>
      </trkpt>
      <trkpt lat="44.08658" lon="6.50751">
        <ele>1121</ele>
      </trkpt>
      <trkpt lat="44.08674" lon="6.50769">
        <ele>1122</ele>
      </trkpt>
      <trkpt lat="44.08685" lon="6.50784">
        <ele>1123</ele>
      </trkpt>
      <trkpt lat="44.08696" lon="6.50796">
        <ele>1123</ele>
      </trkpt>
      <trkpt lat="44.08707" lon="6.50809">
        <ele>1123</ele>
      </trkpt>
      <trkpt lat="44.08719" lon="6.5082">
        <ele>1123</ele>
      </trkpt>
      <trkpt lat="44.0873" lon="6.50834">
        <ele>1123</ele>
      </trkpt>
      <trkpt lat="44.0874" lon="6.50848">
        <ele>1123</ele>
      </trkpt>
      <trkpt lat="44.08752" lon="6.50869">
        <ele>1123</ele>
      </trkpt>
      <trkpt lat="44.08761" lon="6.50892">
        <ele>1124</ele>
      </trkpt>
      <trkpt lat="44.08767" lon="6.50907">
        <ele>1125</ele>
      </trkpt>
      <trkpt lat="44.08773" lon="6.50922">
        <ele>1125</ele>
      </trkpt>
      <trkpt lat="44.08778" lon="6.50938">
        <ele>1126</ele>
      </trkpt>
      <trkpt lat="44.08782" lon="6.50961">
        <ele>1127</ele>
      </trkpt>
      <trkpt lat="44.08784" lon="6.50979">
        <ele>1127</ele>
      </trkpt>
      <trkpt lat="44.08786" lon="6.50995">
        <ele>1128</ele>
      </trkpt>
      <trkpt lat="44.0879" lon="6.5101">
        <ele>1128</ele>
      </trkpt>
      <trkpt lat="44.08794" lon="6.51023">
        <ele>1129</ele>
      </trkpt>
      <trkpt lat="44.08789" lon="6.51028">
        <ele>1129</ele>
      </trkpt>
      <trkpt lat="44.08782" lon="6.51031">
        <ele>1129</ele>
      </trkpt>
      <trkpt lat="44.08769" lon="6.5104">
        <ele>1131</ele>
      </trkpt>
      <trkpt lat="44.08757" lon="6.51045">
        <ele>1132</ele>
      </trkpt>
      <trkpt lat="44.08745" lon="6.51047">
        <ele>1132</ele>
      </trkpt>
      <trkpt lat="44.08732" lon="6.51051">
        <ele>1134</ele>
      </trkpt>
      <trkpt lat="44.08721" lon="6.5106">
        <ele>1135</ele>
      </trkpt>
      <trkpt lat="44.08709" lon="6.51071">
        <ele>1136</ele>
      </trkpt>
      <trkpt lat="44.08696" lon="6.51081">
        <ele>1138</ele>
      </trkpt>
      <trkpt lat="44.08685" lon="6.51095">
        <ele>1139</ele>
      </trkpt>
      <trkpt lat="44.08673" lon="6.5111">
        <ele>1140</ele>
      </trkpt>
      <trkpt lat="44.08662" lon="6.51127">
        <ele>1142</ele>
      </trkpt>
      <trkpt lat="44.08655" lon="6.5115">
        <ele>1144</ele>
      </trkpt>
      <trkpt lat="44.08648" lon="6.51174">
        <ele>1145</ele>
      </trkpt>
      <trkpt lat="44.08638" lon="6.51192">
        <ele>1147</ele>
      </trkpt>
      <trkpt lat="44.0861" lon="6.51209">
        <ele>1152</ele>
      </trkpt>
      <trkpt lat="44.08592" lon="6.51205">
        <ele>1154</ele>
      </trkpt>
      <trkpt lat="44.08576" lon="6.51202">
        <ele>1154</ele>
      </trkpt>
      <trkpt lat="44.08565" lon="6.51203">
        <ele>1155</ele>
      </trkpt>
      <trkpt lat="44.08553" lon="6.51212">
        <ele>1156</ele>
      </trkpt>
      <trkpt lat="44.08533" lon="6.5123">
        <ele>1158</ele>
      </trkpt>
      <trkpt lat="44.08513" lon="6.51239">
        <ele>1159</ele>
      </trkpt>
      <trkpt lat="44.08499" lon="6.51235">
        <ele>1159</ele>
      </trkpt>
      <trkpt lat="44.08481" lon="6.51238">
        <ele>1161</ele>
      </trkpt>
      <trkpt lat="44.08466" lon="6.51238">
        <ele>1163</ele>
      </trkpt>
      <trkpt lat="44.08454" lon="6.51242">
        <ele>1165</ele>
      </trkpt>
      <trkpt lat="44.08448" lon="6.51247">
        <ele>1166</ele>
      </trkpt>
      <trkpt lat="44.08436" lon="6.51252">
        <ele>1168</ele>
      </trkpt>
      <trkpt lat="44.08424" lon="6.51249">
        <ele>1170</ele>
      </trkpt>
      <trkpt lat="44.08402" lon="6.51257">
        <ele>1173</ele>
      </trkpt>
      <trkpt lat="44.08391" lon="6.51274">
        <ele>1175</ele>
      </trkpt>
      <trkpt lat="44.08378" lon="6.51289">
        <ele>1177</ele>
      </trkpt>
      <trkpt lat="44.08361" lon="6.513">
        <ele>1178</ele>
      </trkpt>
      <trkpt lat="44.08341" lon="6.51308">
        <ele>1181</ele>
      </trkpt>
      <trkpt lat="44.0832" lon="6.51311">
        <ele>1183</ele>
      </trkpt>
      <trkpt lat="44.083" lon="6.51316">
        <ele>1188</ele>
      </trkpt>
      <trkpt lat="44.0828" lon="6.51314">
        <ele>1192</ele>
      </trkpt>
      <trkpt lat="44.08261" lon="6.51311">
        <ele>1194</ele>
      </trkpt>
      <trkpt lat="44.08239" lon="6.51306">
        <ele>1197</ele>
      </trkpt>
      <trkpt lat="44.08218" lon="6.51296">
        <ele>1198</ele>
      </trkpt>
      <trkpt lat="44.082" lon="6.51283">
        <ele>1198</ele>
      </trkpt>
      <trkpt lat="44.08182" lon="6.51268">
        <ele>1201</ele>
      </trkpt>
      <trkpt lat="44.08161" lon="6.51264">
        <ele>1204</ele>
      </trkpt>
      <trkpt lat="44.08141" lon="6.51268">
        <ele>1207</ele>
      </trkpt>
      <trkpt lat="44.08123" lon="6.51281">
        <ele>1209</ele>
      </trkpt>
      <trkpt lat="44.08113" lon="6.51287">
        <ele>1211</ele>
      </trkpt>
      <trkpt lat="44.08107" lon="6.51278">
        <ele>1212</ele>
      </trkpt>
      <trkpt lat="44.08101" lon="6.51266">
        <ele>1214</ele>
      </trkpt>
      <trkpt lat="44.08088" lon="6.51253">
        <ele>1217</ele>
      </trkpt>
      <trkpt lat="44.0807" lon="6.51248">
        <ele>1220</ele>
      </trkpt>
      <trkpt lat="44.08058" lon="6.51238">
        <ele>1223</ele>
      </trkpt>
      <trkpt lat="44.0806" lon="6.5122">
        <ele>1224</ele>
      </trkpt>
      <trkpt lat="44.0807" lon="6.51204">
        <ele>1224</ele>
      </trkpt>
      <trkpt lat="44.0808" lon="6.5118">
        <ele>1224</ele>
      </trkpt>
      <trkpt lat="44.08073" lon="6.51144">
        <ele>1228</ele>
      </trkpt>
      <trkpt lat="44.08069" lon="6.51107">
        <ele>1230</ele>
      </trkpt>
      <trkpt lat="44.0807" lon="6.5107">
        <ele>1232</ele>
      </trkpt>
      <trkpt lat="44.08083" lon="6.51042">
        <ele>1232</ele>
      </trkpt>
      <trkpt lat="44.081" lon="6.5102">
        <ele>1231</ele>
      </trkpt>
      <trkpt lat="44.08105" lon="6.50991">
        <ele>1232</ele>
      </trkpt>
      <trkpt lat="44.08088" lon="6.50964">
        <ele>1237</ele>
      </trkpt>
      <trkpt lat="44.08078" lon="6.50939">
        <ele>1239</ele>
      </trkpt>
      <trkpt lat="44.08089" lon="6.50917">
        <ele>1238</ele>
      </trkpt>
      <trkpt lat="44.08093" lon="6.50891">
        <ele>1237</ele>
      </trkpt>
      <trkpt lat="44.08074" lon="6.50879">
        <ele>1242</ele>
      </trkpt>
      <trkpt lat="44.08052" lon="6.50894">
        <ele>1247</ele>
      </trkpt>
      <trkpt lat="44.08029" lon="6.50899">
        <ele>1252</ele>
      </trkpt>
      <trkpt lat="44.08009" lon="6.50888">
        <ele>1256</ele>
      </trkpt>
      <trkpt lat="44.07988" lon="6.50878">
        <ele>1261</ele>
      </trkpt>
      <trkpt lat="44.07968" lon="6.50865">
        <ele>1264</ele>
      </trkpt>
      <trkpt lat="44.07949" lon="6.5085">
        <ele>1267</ele>
      </trkpt>
      <trkpt lat="44.07925" lon="6.50847">
        <ele>1273</ele>
      </trkpt>
      <trkpt lat="44.07906" lon="6.50836">
        <ele>1274</ele>
      </trkpt>
      <trkpt lat="44.07885" lon="6.50835">
        <ele>1277</ele>
      </trkpt>
      <trkpt lat="44.07866" lon="6.50848">
        <ele>1278</ele>
      </trkpt>
      <trkpt lat="44.07856" lon="6.50862">
        <ele>1279</ele>
      </trkpt>
      <trkpt lat="44.07855" lon="6.50866">
        <ele>1280</ele>
      </trkpt>
      <trkpt lat="44.07852" lon="6.50876">
        <ele>1281</ele>
      </trkpt>
      <trkpt lat="44.07847" lon="6.50923">
        <ele>1289</ele>
      </trkpt>
      <trkpt lat="44.07843" lon="6.50942">
        <ele>1292</ele>
      </trkpt>
      <trkpt lat="44.07838" lon="6.50959">
        <ele>1295</ele>
      </trkpt>
      <trkpt lat="44.07826" lon="6.50983">
        <ele>1297</ele>
      </trkpt>
      <trkpt lat="44.07814" lon="6.51008">
        <ele>1300</ele>
      </trkpt>
      <trkpt lat="44.07798" lon="6.51039">
        <ele>1302</ele>
      </trkpt>
      <trkpt lat="44.07779" lon="6.51056">
        <ele>1307</ele>
      </trkpt>
      <trkpt lat="44.07758" lon="6.51042">
        <ele>1304</ele>
      </trkpt>
      <trkpt lat="44.07748" lon="6.51006">
        <ele>1295</ele>
      </trkpt>
      <trkpt lat="44.07731" lon="6.50965">
        <ele>1293</ele>
      </trkpt>
      <trkpt lat="44.07717" lon="6.50946">
        <ele>1297</ele>
      </trkpt>
      <trkpt lat="44.07699" lon="6.50956">
        <ele>1302</ele>
      </trkpt>
      <trkpt lat="44.07687" lon="6.50985">
        <ele>1304</ele>
      </trkpt>
      <trkpt lat="44.0768" lon="6.51023">
        <ele>1307</ele>
      </trkpt>
      <trkpt lat="44.07685" lon="6.51057">
        <ele>1309</ele>
      </trkpt>
      <trkpt lat="44.07703" lon="6.51085">
        <ele>1314</ele>
      </trkpt>
      <trkpt lat="44.07714" lon="6.51114">
        <ele>1319</ele>
      </trkpt>
      <trkpt lat="44.07709" lon="6.51139">
        <ele>1321</ele>
      </trkpt>
      <trkpt lat="44.07693" lon="6.51188">
        <ele>1325</ele>
      </trkpt>
      <trkpt lat="44.0768" lon="6.51219">
        <ele>1323</ele>
      </trkpt>
      <trkpt lat="44.0766" lon="6.51233">
        <ele>1326</ele>
      </trkpt>
      <trkpt lat="44.07635" lon="6.51246">
        <ele>1331</ele>
      </trkpt>
      <trkpt lat="44.07611" lon="6.51243">
        <ele>1336</ele>
      </trkpt>
      <trkpt lat="44.0759" lon="6.51226">
        <ele>1338</ele>
      </trkpt>
      <trkpt lat="44.07582" lon="6.51195">
        <ele>1334</ele>
      </trkpt>
      <trkpt lat="44.07573" lon="6.51162">
        <ele>1333</ele>
      </trkpt>
      <trkpt lat="44.07558" lon="6.51131">
        <ele>1336</ele>
      </trkpt>
      <trkpt lat="44.07552" lon="6.51098">
        <ele>1337</ele>
      </trkpt>
      <trkpt lat="44.07551" lon="6.51063">
        <ele>1336</ele>
      </trkpt>
      <trkpt lat="44.07539" lon="6.51033">
        <ele>1340</ele>
      </trkpt>
      <trkpt lat="44.07518" lon="6.51017">
        <ele>1347</ele>
      </trkpt>
      <trkpt lat="44.07491" lon="6.51016">
        <ele>1357</ele>
      </trkpt>
      <trkpt lat="44.07465" lon="6.51003">
        <ele>1363</ele>
      </trkpt>
      <trkpt lat="44.07439" lon="6.50991">
        <ele>1367</ele>
      </trkpt>
      <trkpt lat="44.07412" lon="6.50989">
        <ele>1373</ele>
      </trkpt>
      <trkpt lat="44.07386" lon="6.50973">
        <ele>1374</ele>
      </trkpt>
      <trkpt lat="44.07365" lon="6.50954">
        <ele>1374</ele>
      </trkpt>
      <trkpt lat="44.07356" lon="6.50926">
        <ele>1368</ele>
      </trkpt>
      <trkpt lat="44.07346" lon="6.50908">
        <ele>1367</ele>
      </trkpt>
      <trkpt lat="44.07334" lon="6.50876">
        <ele>1368</ele>
      </trkpt>
      <trkpt lat="44.0732" lon="6.50843">
        <ele>1371</ele>
      </trkpt>
      <trkpt lat="44.07304" lon="6.5081">
        <ele>1376</ele>
      </trkpt>
      <trkpt lat="44.07295" lon="6.50781">
        <ele>1376</ele>
      </trkpt>
      <trkpt lat="44.07285" lon="6.50748">
        <ele>1377</ele>
      </trkpt>
      <trkpt lat="44.07275" lon="6.50715">
        <ele>1380</ele>
      </trkpt>
      <trkpt lat="44.07261" lon="6.50683">
        <ele>1384</ele>
      </trkpt>
      <trkpt lat="44.07253" lon="6.50658">
        <ele>1385</ele>
      </trkpt>
      <trkpt lat="44.07256" lon="6.5065">
        <ele>1382</ele>
      </trkpt>
      <trkpt lat="44.07255" lon="6.50637">
        <ele>1382</ele>
      </trkpt>
      <trkpt lat="44.07253" lon="6.50609">
        <ele>1383</ele>
      </trkpt>
      <trkpt lat="44.07252" lon="6.50595">
        <ele>1382</ele>
      </trkpt>
      <trkpt lat="44.07248" lon="6.50577">
        <ele>1383</ele>
      </trkpt>
      <trkpt lat="44.07247" lon="6.50556">
        <ele>1381</ele>
      </trkpt>
      <trkpt lat="44.07237" lon="6.50536">
        <ele>1385</ele>
      </trkpt>
      <trkpt lat="44.07225" lon="6.50511">
        <ele>1390</ele>
      </trkpt>
      <trkpt lat="44.07217" lon="6.50479">
        <ele>1392</ele>
      </trkpt>
      <trkpt lat="44.07202" lon="6.50451">
        <ele>1399</ele>
      </trkpt>
      <trkpt lat="44.07193" lon="6.50422">
        <ele>1404</ele>
      </trkpt>
      <trkpt lat="44.07192" lon="6.5039">
        <ele>1402</ele>
      </trkpt>
      <trkpt lat="44.07181" lon="6.50364">
        <ele>1407</ele>
      </trkpt>
      <trkpt lat="44.07164" lon="6.50337">
        <ele>1413</ele>
      </trkpt>
      <trkpt lat="44.07154" lon="6.50308">
        <ele>1416</ele>
      </trkpt>
      <trkpt lat="44.07155" lon="6.50276">
        <ele>1411</ele>
      </trkpt>
      <trkpt lat="44.0715" lon="6.50242">
        <ele>1412</ele>
      </trkpt>
      <trkpt lat="44.07141" lon="6.50208">
        <ele>1416</ele>
      </trkpt>
      <trkpt lat="44.07134" lon="6.50178">
        <ele>1419</ele>
      </trkpt>
      <trkpt lat="44.07126" lon="6.50147">
        <ele>1422</ele>
      </trkpt>
      <trkpt lat="44.0712" lon="6.50112">
        <ele>1424</ele>
      </trkpt>
      <trkpt lat="44.07116" lon="6.50075">
        <ele>1424</ele>
      </trkpt>
      <trkpt lat="44.0711" lon="6.50038">
        <ele>1426</ele>
      </trkpt>
      <trkpt lat="44.07104" lon="6.50012">
        <ele>1429</ele>
      </trkpt>
      <trkpt lat="44.071" lon="6.49987">
        <ele>1432</ele>
      </trkpt>
      <trkpt lat="44.071" lon="6.4996">
        <ele>1431</ele>
      </trkpt>
      <trkpt lat="44.07096" lon="6.49926">
        <ele>1435</ele>
      </trkpt>
      <trkpt lat="44.07094" lon="6.49893">
        <ele>1436</ele>
      </trkpt>
      <trkpt lat="44.07089" lon="6.49866">
        <ele>1439</ele>
      </trkpt>
      <trkpt lat="44.07081" lon="6.49839">
        <ele>1444</ele>
      </trkpt>
      <trkpt lat="44.07069" lon="6.49813">
        <ele>1450</ele>
      </trkpt>
      <trkpt lat="44.07056" lon="6.49786">
        <ele>1456</ele>
      </trkpt>
      <trkpt lat="44.07045" lon="6.49756">
        <ele>1458</ele>
      </trkpt>
      <trkpt lat="44.07036" lon="6.49731">
        <ele>1457</ele>
      </trkpt>
      <trkpt lat="44.07023" lon="6.49716">
        <ele>1462</ele>
      </trkpt>
      <trkpt lat="44.07004" lon="6.49706">
        <ele>1470</ele>
      </trkpt>
      <trkpt lat="44.06985" lon="6.49697">
        <ele>1478</ele>
      </trkpt>
      <trkpt lat="44.06964" lon="6.49686">
        <ele>1482</ele>
      </trkpt>
      <trkpt lat="44.06952" lon="6.49662">
        <ele>1477</ele>
      </trkpt>
      <trkpt lat="44.06939" lon="6.49644">
        <ele>1476</ele>
      </trkpt>
      <trkpt lat="44.0692" lon="6.4964">
        <ele>1486</ele>
      </trkpt>
      <trkpt lat="44.06896" lon="6.49637">
        <ele>1498</ele>
      </trkpt>
      <trkpt lat="44.06879" lon="6.49622">
        <ele>1497</ele>
      </trkpt>
      <trkpt lat="44.06882" lon="6.49629">
        <ele>1499</ele>
      </trkpt>
      <trkpt lat="44.06879" lon="6.49623">
        <ele>1497</ele>
      </trkpt>
      <trkpt lat="44.06872" lon="6.4961">
        <ele>1494</ele>
      </trkpt>
      <trkpt lat="44.06863" lon="6.49593">
        <ele>1490</ele>
      </trkpt>
      <trkpt lat="44.06849" lon="6.4958">
        <ele>1491</ele>
      </trkpt>
      <trkpt lat="44.0683" lon="6.49568">
        <ele>1496</ele>
      </trkpt>
      <trkpt lat="44.06808" lon="6.49552">
        <ele>1500</ele>
      </trkpt>
      <trkpt lat="44.06787" lon="6.49532">
        <ele>1498</ele>
      </trkpt>
      <trkpt lat="44.06771" lon="6.49504">
        <ele>1494</ele>
      </trkpt>
      <trkpt lat="44.06754" lon="6.49481">
        <ele>1493</ele>
      </trkpt>
      <trkpt lat="44.06735" lon="6.49472">
        <ele>1498</ele>
      </trkpt>
      <trkpt lat="44.0671" lon="6.49468">
        <ele>1502</ele>
      </trkpt>
      <trkpt lat="44.06684" lon="6.49468">
        <ele>1504</ele>
      </trkpt>
      <trkpt lat="44.06658" lon="6.49477">
        <ele>1507</ele>
      </trkpt>
      <trkpt lat="44.06633" lon="6.49476">
        <ele>1507</ele>
      </trkpt>
      <trkpt lat="44.06611" lon="6.49463">
        <ele>1506</ele>
      </trkpt>
      <trkpt lat="44.06586" lon="6.4944">
        <ele>1504</ele>
      </trkpt>
      <trkpt lat="44.06565" lon="6.4942">
        <ele>1504</ele>
      </trkpt>
      <trkpt lat="44.06542" lon="6.4941">
        <ele>1506</ele>
      </trkpt>
      <trkpt lat="44.06522" lon="6.494">
        <ele>1507</ele>
      </trkpt>
      <trkpt lat="44.06511" lon="6.4941">
        <ele>1508</ele>
      </trkpt>
      <trkpt lat="44.06507" lon="6.49417">
        <ele>1508</ele>
      </trkpt>
      <trkpt lat="44.06511" lon="6.49415">
        <ele>1508</ele>
      </trkpt>
      <trkpt lat="44.06511" lon="6.49412">
        <ele>1508</ele>
      </trkpt>
      <trkpt lat="44.06508" lon="6.4941">
        <ele>1508</ele>
      </trkpt>
      <trkpt lat="44.06507" lon="6.49413">
        <ele>1508</ele>
      </trkpt>
      <trkpt lat="44.06512" lon="6.49414">
        <ele>1508</ele>
      </trkpt>
      <trkpt lat="44.06508" lon="6.49416">
        <ele>1508</ele>
      </trkpt>
      <trkpt lat="44.0651" lon="6.49424">
        <ele>1508</ele>
      </trkpt>
      <trkpt lat="44.0651" lon="6.49435">
        <ele>1508</ele>
      </trkpt>
      <trkpt lat="44.0651" lon="6.49454">
        <ele>1509</ele>
      </trkpt>
      <trkpt lat="44.06509" lon="6.4947">
        <ele>1510</ele>
      </trkpt>
      <trkpt lat="44.06509" lon="6.49486">
        <ele>1510</ele>
      </trkpt>
      <trkpt lat="44.06506" lon="6.49499">
        <ele>1511</ele>
      </trkpt>
      <trkpt lat="44.06507" lon="6.49512">
        <ele>1511</ele>
      </trkpt>
      <trkpt lat="44.06507" lon="6.49521">
        <ele>1512</ele>
      </trkpt>
      <trkpt lat="44.06508" lon="6.49526">
        <ele>1512</ele>
      </trkpt>
      <trkpt lat="44.06508" lon="6.49532">
        <ele>1512</ele>
      </trkpt>
      <trkpt lat="44.06507" lon="6.49541">
        <ele>1513</ele>
      </trkpt>
      <trkpt lat="44.06507" lon="6.49547">
        <ele>1513</ele>
      </trkpt>
      <trkpt lat="44.06503" lon="6.49557">
        <ele>1513</ele>
      </trkpt>
      <trkpt lat="44.06499" lon="6.49572">
        <ele>1514</ele>
      </trkpt>
      <trkpt lat="44.06489" lon="6.49583">
        <ele>1514</ele>
      </trkpt>
      <trkpt lat="44.06474" lon="6.49587">
        <ele>1513</ele>
      </trkpt>
      <trkpt lat="44.06458" lon="6.4959">
        <ele>1511</ele>
      </trkpt>
      <trkpt lat="44.06442" lon="6.49596">
        <ele>1510</ele>
      </trkpt>
      <trkpt lat="44.06426" lon="6.49606">
        <ele>1509</ele>
      </trkpt>
      <trkpt lat="44.0641" lon="6.49622">
        <ele>1509</ele>
      </trkpt>
      <trkpt lat="44.06396" lon="6.49637">
        <ele>1507</ele>
      </trkpt>
      <trkpt lat="44.06382" lon="6.49659">
        <ele>1507</ele>
      </trkpt>
      <trkpt lat="44.06371" lon="6.49682">
        <ele>1508</ele>
      </trkpt>
      <trkpt lat="44.06358" lon="6.49701">
        <ele>1509</ele>
      </trkpt>
      <trkpt lat="44.06346" lon="6.49712">
        <ele>1509</ele>
      </trkpt>
      <trkpt lat="44.06339" lon="6.49724">
        <ele>1509</ele>
      </trkpt>
      <trkpt lat="44.06333" lon="6.49738">
        <ele>1509</ele>
      </trkpt>
      <trkpt lat="44.06328" lon="6.49752">
        <ele>1510</ele>
      </trkpt>
      <trkpt lat="44.06324" lon="6.49763">
        <ele>1510</ele>
      </trkpt>
      <trkpt lat="44.0632" lon="6.49775">
        <ele>1509</ele>
      </trkpt>
      <trkpt lat="44.06314" lon="6.49788">
        <ele>1509</ele>
      </trkpt>
      <trkpt lat="44.06308" lon="6.49804">
        <ele>1508</ele>
      </trkpt>
      <trkpt lat="44.06303" lon="6.49822">
        <ele>1507</ele>
      </trkpt>
      <trkpt lat="44.06301" lon="6.4984">
        <ele>1506</ele>
      </trkpt>
      <trkpt lat="44.06299" lon="6.49858">
        <ele>1506</ele>
      </trkpt>
      <trkpt lat="44.06297" lon="6.49877">
        <ele>1505</ele>
      </trkpt>
      <trkpt lat="44.06296" lon="6.49895">
        <ele>1505</ele>
      </trkpt>
      <trkpt lat="44.06299" lon="6.49912">
        <ele>1507</ele>
      </trkpt>
      <trkpt lat="44.06301" lon="6.49929">
        <ele>1508</ele>
      </trkpt>
      <trkpt lat="44.06301" lon="6.49943">
        <ele>1509</ele>
      </trkpt>
      <trkpt lat="44.06299" lon="6.49952">
        <ele>1509</ele>
      </trkpt>
      <trkpt lat="44.06297" lon="6.4996">
        <ele>1510</ele>
      </trkpt>
      <trkpt lat="44.06294" lon="6.49965">
        <ele>1510</ele>
      </trkpt>
      <trkpt lat="44.06291" lon="6.49971">
        <ele>1510</ele>
      </trkpt>
      <trkpt lat="44.06288" lon="6.49975">
        <ele>1509</ele>
      </trkpt>
      <trkpt lat="44.06283" lon="6.4998">
        <ele>1509</ele>
      </trkpt>
      <trkpt lat="44.06276" lon="6.49985">
        <ele>1508</ele>
      </trkpt>
      <trkpt lat="44.06267" lon="6.49993">
        <ele>1507</ele>
      </trkpt>
      <trkpt lat="44.06261" lon="6.49995">
        <ele>1507</ele>
      </trkpt>
      <trkpt lat="44.06256" lon="6.49994">
        <ele>1506</ele>
      </trkpt>
      <trkpt lat="44.06252" lon="6.49992">
        <ele>1505</ele>
      </trkpt>
      <trkpt lat="44.06247" lon="6.49993">
        <ele>1505</ele>
      </trkpt>
      <trkpt lat="44.06236" lon="6.49995">
        <ele>1503</ele>
      </trkpt>
      <trkpt lat="44.06219" lon="6.50001">
        <ele>1501</ele>
      </trkpt>
      <trkpt lat="44.06201" lon="6.50017">
        <ele>1498</ele>
      </trkpt>
      <trkpt lat="44.06186" lon="6.50041">
        <ele>1497</ele>
      </trkpt>
      <trkpt lat="44.06171" lon="6.50066">
        <ele>1496</ele>
      </trkpt>
      <trkpt lat="44.06158" lon="6.50089">
        <ele>1496</ele>
      </trkpt>
      <trkpt lat="44.06148" lon="6.50111">
        <ele>1496</ele>
      </trkpt>
      <trkpt lat="44.06138" lon="6.5013">
        <ele>1496</ele>
      </trkpt>
      <trkpt lat="44.06128" lon="6.50148">
        <ele>1496</ele>
      </trkpt>
      <trkpt lat="44.06117" lon="6.50165">
        <ele>1497</ele>
      </trkpt>
      <trkpt lat="44.06104" lon="6.50184">
        <ele>1497</ele>
      </trkpt>
      <trkpt lat="44.06092" lon="6.50202">
        <ele>1497</ele>
      </trkpt>
      <trkpt lat="44.06084" lon="6.50224">
        <ele>1497</ele>
      </trkpt>
      <trkpt lat="44.06077" lon="6.50246">
        <ele>1497</ele>
      </trkpt>
      <trkpt lat="44.06071" lon="6.50266">
        <ele>1497</ele>
      </trkpt>
      <trkpt lat="44.06066" lon="6.50281">
        <ele>1497</ele>
      </trkpt>
      <trkpt lat="44.06062" lon="6.50294">
        <ele>1497</ele>
      </trkpt>
      <trkpt lat="44.06058" lon="6.50304">
        <ele>1497</ele>
      </trkpt>
      <trkpt lat="44.06054" lon="6.50312">
        <ele>1497</ele>
      </trkpt>
      <trkpt lat="44.06052" lon="6.50316">
        <ele>1497</ele>
      </trkpt>
      <trkpt lat="44.06054" lon="6.50317">
        <ele>1497</ele>
      </trkpt>
      <trkpt lat="44.06051" lon="6.50323">
        <ele>1497</ele>
      </trkpt>
      <trkpt lat="44.06047" lon="6.50333">
        <ele>1497</ele>
      </trkpt>
      <trkpt lat="44.06041" lon="6.50345">
        <ele>1497</ele>
      </trkpt>
      <trkpt lat="44.06034" lon="6.50358">
        <ele>1497</ele>
      </trkpt>
      <trkpt lat="44.06026" lon="6.50371">
        <ele>1496</ele>
      </trkpt>
      <trkpt lat="44.06014" lon="6.50388">
        <ele>1496</ele>
      </trkpt>
      <trkpt lat="44.06003" lon="6.50399">
        <ele>1495</ele>
      </trkpt>
      <trkpt lat="44.05993" lon="6.50411">
        <ele>1494</ele>
      </trkpt>
      <trkpt lat="44.05983" lon="6.50424">
        <ele>1494</ele>
      </trkpt>
      <trkpt lat="44.05974" lon="6.5044">
        <ele>1494</ele>
      </trkpt>
      <trkpt lat="44.05966" lon="6.50456">
        <ele>1494</ele>
      </trkpt>
      <trkpt lat="44.0596" lon="6.50473">
        <ele>1494</ele>
      </trkpt>
      <trkpt lat="44.05956" lon="6.50485">
        <ele>1494</ele>
      </trkpt>
      <trkpt lat="44.05955" lon="6.5049">
        <ele>1495</ele>
      </trkpt>
      <trkpt lat="44.05952" lon="6.50501">
        <ele>1495</ele>
      </trkpt>
      <trkpt lat="44.05946" lon="6.50514">
        <ele>1496</ele>
      </trkpt>
      <trkpt lat="44.05938" lon="6.50528">
        <ele>1496</ele>
      </trkpt>
      <trkpt lat="44.05929" lon="6.50541">
        <ele>1496</ele>
      </trkpt>
      <trkpt lat="44.05919" lon="6.50554">
        <ele>1496</ele>
      </trkpt>
      <trkpt lat="44.05909" lon="6.50565">
        <ele>1495</ele>
      </trkpt>
      <trkpt lat="44.05899" lon="6.50577">
        <ele>1495</ele>
      </trkpt>
      <trkpt lat="44.05892" lon="6.50592">
        <ele>1494</ele>
      </trkpt>
      <trkpt lat="44.05886" lon="6.50608">
        <ele>1494</ele>
      </trkpt>
      <trkpt lat="44.05881" lon="6.50624">
        <ele>1493</ele>
      </trkpt>
      <trkpt lat="44.05876" lon="6.50641">
        <ele>1493</ele>
      </trkpt>
      <trkpt lat="44.05872" lon="6.50658">
        <ele>1492</ele>
      </trkpt>
      <trkpt lat="44.05866" lon="6.50676">
        <ele>1491</ele>
      </trkpt>
      <trkpt lat="44.0586" lon="6.50696">
        <ele>1490</ele>
      </trkpt>
      <trkpt lat="44.05857" lon="6.5072">
        <ele>1489</ele>
      </trkpt>
      <trkpt lat="44.0585" lon="6.50747">
        <ele>1487</ele>
      </trkpt>
      <trkpt lat="44.05844" lon="6.50767">
        <ele>1485</ele>
      </trkpt>
      <trkpt lat="44.05842" lon="6.50772">
        <ele>1484</ele>
      </trkpt>
      <trkpt lat="44.05843" lon="6.50775">
        <ele>1484</ele>
      </trkpt>
      <trkpt lat="44.05841" lon="6.50785">
        <ele>1484</ele>
      </trkpt>
      <trkpt lat="44.05837" lon="6.50803">
        <ele>1482</ele>
      </trkpt>
      <trkpt lat="44.05828" lon="6.50825">
        <ele>1478</ele>
      </trkpt>
      <trkpt lat="44.05817" lon="6.50849">
        <ele>1474</ele>
      </trkpt>
      <trkpt lat="44.05808" lon="6.50878">
        <ele>1466</ele>
      </trkpt>
      <trkpt lat="44.05805" lon="6.50903">
        <ele>1459</ele>
      </trkpt>
      <trkpt lat="44.05814" lon="6.50923">
        <ele>1457</ele>
      </trkpt>
      <trkpt lat="44.05827" lon="6.50943">
        <ele>1450</ele>
      </trkpt>
      <trkpt lat="44.05845" lon="6.50959">
        <ele>1447</ele>
      </trkpt>
      <trkpt lat="44.05865" lon="6.50975">
        <ele>1445</ele>
      </trkpt>
      <trkpt lat="44.05888" lon="6.5099">
        <ele>1443</ele>
      </trkpt>
      <trkpt lat="44.05914" lon="6.51008">
        <ele>1444</ele>
      </trkpt>
      <trkpt lat="44.0594" lon="6.5103">
        <ele>1442</ele>
      </trkpt>
      <trkpt lat="44.05967" lon="6.51056">
        <ele>1439</ele>
      </trkpt>
      <trkpt lat="44.05995" lon="6.5108">
        <ele>1445</ele>
      </trkpt>
      <trkpt lat="44.06019" lon="6.51107">
        <ele>1448</ele>
      </trkpt>
      <trkpt lat="44.06037" lon="6.51134">
        <ele>1449</ele>
      </trkpt>
      <trkpt lat="44.06051" lon="6.51158">
        <ele>1455</ele>
      </trkpt>
      <trkpt lat="44.06062" lon="6.51177">
        <ele>1456</ele>
      </trkpt>
      <trkpt lat="44.06064" lon="6.51191">
        <ele>1456</ele>
      </trkpt>
      <trkpt lat="44.06052" lon="6.51195">
        <ele>1458</ele>
      </trkpt>
      <trkpt lat="44.06043" lon="6.5119">
        <ele>1456</ele>
      </trkpt>
      <trkpt lat="44.06034" lon="6.51184">
        <ele>1455</ele>
      </trkpt>
      <trkpt lat="44.06026" lon="6.51178">
        <ele>1455</ele>
      </trkpt>
      <trkpt lat="44.06016" lon="6.51174">
        <ele>1456</ele>
      </trkpt>
      <trkpt lat="44.06005" lon="6.51172">
        <ele>1458</ele>
      </trkpt>
      <trkpt lat="44.05996" lon="6.5117">
        <ele>1459</ele>
      </trkpt>
      <trkpt lat="44.05987" lon="6.51167">
        <ele>1459</ele>
      </trkpt>
      <trkpt lat="44.05979" lon="6.51164">
        <ele>1460</ele>
      </trkpt>
      <trkpt lat="44.05972" lon="6.51164">
        <ele>1461</ele>
      </trkpt>
      <trkpt lat="44.05965" lon="6.51164">
        <ele>1463</ele>
      </trkpt>
      <trkpt lat="44.05958" lon="6.51165">
        <ele>1465</ele>
      </trkpt>
      <trkpt lat="44.05952" lon="6.51167">
        <ele>1466</ele>
      </trkpt>
      <trkpt lat="44.05946" lon="6.5117">
        <ele>1469</ele>
      </trkpt>
      <trkpt lat="44.05941" lon="6.51169">
        <ele>1470</ele>
      </trkpt>
      <trkpt lat="44.05936" lon="6.51169">
        <ele>1470</ele>
      </trkpt>
      <trkpt lat="44.05931" lon="6.51169">
        <ele>1470</ele>
      </trkpt>
      <trkpt lat="44.05926" lon="6.5117">
        <ele>1470</ele>
      </trkpt>
      <trkpt lat="44.05922" lon="6.51172">
        <ele>1470</ele>
      </trkpt>
      <trkpt lat="44.05917" lon="6.51173">
        <ele>1471</ele>
      </trkpt>
      <trkpt lat="44.05911" lon="6.51174">
        <ele>1471</ele>
      </trkpt>
      <trkpt lat="44.05907" lon="6.51175">
        <ele>1471</ele>
      </trkpt>
      <trkpt lat="44.05902" lon="6.51177">
        <ele>1471</ele>
      </trkpt>
      <trkpt lat="44.05898" lon="6.5118">
        <ele>1472</ele>
      </trkpt>
      <trkpt lat="44.05894" lon="6.51183">
        <ele>1472</ele>
      </trkpt>
      <trkpt lat="44.05889" lon="6.51186">
        <ele>1472</ele>
      </trkpt>
      <trkpt lat="44.05886" lon="6.51189">
        <ele>1472</ele>
      </trkpt>
      <trkpt lat="44.05882" lon="6.51194">
        <ele>1472</ele>
      </trkpt>
      <trkpt lat="44.05879" lon="6.51199">
        <ele>1473</ele>
      </trkpt>
      <trkpt lat="44.05875" lon="6.51203">
        <ele>1473</ele>
      </trkpt>
      <trkpt lat="44.05872" lon="6.51208">
        <ele>1473</ele>
      </trkpt>
      <trkpt lat="44.0587" lon="6.51214">
        <ele>1474</ele>
      </trkpt>
      <trkpt lat="44.05868" lon="6.51223">
        <ele>1475</ele>
      </trkpt>
      <trkpt lat="44.05867" lon="6.51231">
        <ele>1477</ele>
      </trkpt>
      <trkpt lat="44.05865" lon="6.51238">
        <ele>1478</ele>
      </trkpt>
      <trkpt lat="44.05864" lon="6.51245">
        <ele>1479</ele>
      </trkpt>
      <trkpt lat="44.05864" lon="6.51253">
        <ele>1480</ele>
      </trkpt>
      <trkpt lat="44.05863" lon="6.51261">
        <ele>1481</ele>
      </trkpt>
      <trkpt lat="44.05862" lon="6.51269">
        <ele>1482</ele>
      </trkpt>
      <trkpt lat="44.05861" lon="6.51277">
        <ele>1482</ele>
      </trkpt>
      <trkpt lat="44.05859" lon="6.51286">
        <ele>1483</ele>
      </trkpt>
      <trkpt lat="44.05858" lon="6.51295">
        <ele>1484</ele>
      </trkpt>
      <trkpt lat="44.05856" lon="6.51304">
        <ele>1484</ele>
      </trkpt>
      <trkpt lat="44.05854" lon="6.51313">
        <ele>1484</ele>
      </trkpt>
      <trkpt lat="44.05852" lon="6.51323">
        <ele>1485</ele>
      </trkpt>
      <trkpt lat="44.05849" lon="6.51332">
        <ele>1485</ele>
      </trkpt>
      <trkpt lat="44.05847" lon="6.51341">
        <ele>1485</ele>
      </trkpt>
      <trkpt lat="44.05844" lon="6.51351">
        <ele>1485</ele>
      </trkpt>
      <trkpt lat="44.05841" lon="6.51362">
        <ele>1486</ele>
      </trkpt>
      <trkpt lat="44.05838" lon="6.51373">
        <ele>1485</ele>
      </trkpt>
      <trkpt lat="44.05834" lon="6.51384">
        <ele>1485</ele>
      </trkpt>
      <trkpt lat="44.05832" lon="6.51395">
        <ele>1486</ele>
      </trkpt>
      <trkpt lat="44.0583" lon="6.51405">
        <ele>1486</ele>
      </trkpt>
      <trkpt lat="44.05828" lon="6.51416">
        <ele>1486</ele>
      </trkpt>
      <trkpt lat="44.05826" lon="6.51426">
        <ele>1486</ele>
      </trkpt>
      <trkpt lat="44.05823" lon="6.51434">
        <ele>1486</ele>
      </trkpt>
      <trkpt lat="44.05821" lon="6.51441">
        <ele>1486</ele>
      </trkpt>
      <trkpt lat="44.05818" lon="6.51448">
        <ele>1486</ele>
      </trkpt>
      <trkpt lat="44.05812" lon="6.51453">
        <ele>1485</ele>
      </trkpt>
      <trkpt lat="44.05812" lon="6.51453">
        <ele>1485</ele>
      </trkpt>
      <trkpt lat="44.05805" lon="6.51455">
        <ele>1484</ele>
      </trkpt>
      <trkpt lat="44.05799" lon="6.51456">
        <ele>1483</ele>
      </trkpt>
      <trkpt lat="44.05792" lon="6.51453">
        <ele>1482</ele>
      </trkpt>
      <trkpt lat="44.05785" lon="6.5145">
        <ele>1481</ele>
      </trkpt>
      <trkpt lat="44.05778" lon="6.51446">
        <ele>1481</ele>
      </trkpt>
      <trkpt lat="44.05773" lon="6.51442">
        <ele>1481</ele>
      </trkpt>
      <trkpt lat="44.05769" lon="6.51438">
        <ele>1481</ele>
      </trkpt>
      <trkpt lat="44.05766" lon="6.51438">
        <ele>1481</ele>
      </trkpt>
      <trkpt lat="44.05761" lon="6.51435">
        <ele>1481</ele>
      </trkpt>
      <trkpt lat="44.05758" lon="6.51433">
        <ele>1482</ele>
      </trkpt>
      <trkpt lat="44.05755" lon="6.51429">
        <ele>1482</ele>
      </trkpt>
      <trkpt lat="44.05749" lon="6.51429">
        <ele>1482</ele>
      </trkpt>
      <trkpt lat="44.0574" lon="6.51424">
        <ele>1482</ele>
      </trkpt>
      <trkpt lat="44.05734" lon="6.51419">
        <ele>1482</ele>
      </trkpt>
      <trkpt lat="44.05728" lon="6.51414">
        <ele>1481</ele>
      </trkpt>
      <trkpt lat="44.05721" lon="6.51409">
        <ele>1481</ele>
      </trkpt>
      <trkpt lat="44.05715" lon="6.51404">
        <ele>1481</ele>
      </trkpt>
      <trkpt lat="44.05709" lon="6.51397">
        <ele>1481</ele>
      </trkpt>
      <trkpt lat="44.05703" lon="6.5139">
        <ele>1481</ele>
      </trkpt>
      <trkpt lat="44.05696" lon="6.51382">
        <ele>1481</ele>
      </trkpt>
      <trkpt lat="44.0569" lon="6.51374">
        <ele>1482</ele>
      </trkpt>
      <trkpt lat="44.05685" lon="6.51365">
        <ele>1482</ele>
      </trkpt>
      <trkpt lat="44.05679" lon="6.51356">
        <ele>1483</ele>
      </trkpt>
      <trkpt lat="44.05673" lon="6.51347">
        <ele>1484</ele>
      </trkpt>
      <trkpt lat="44.05667" lon="6.51338">
        <ele>1484</ele>
      </trkpt>
      <trkpt lat="44.05661" lon="6.51329">
        <ele>1484</ele>
      </trkpt>
      <trkpt lat="44.05655" lon="6.51319">
        <ele>1484</ele>
      </trkpt>
      <trkpt lat="44.05649" lon="6.5131">
        <ele>1485</ele>
      </trkpt>
      <trkpt lat="44.05642" lon="6.51301">
        <ele>1485</ele>
      </trkpt>
      <trkpt lat="44.05636" lon="6.5129">
        <ele>1485</ele>
      </trkpt>
      <trkpt lat="44.0563" lon="6.51278">
        <ele>1486</ele>
      </trkpt>
      <trkpt lat="44.05625" lon="6.51267">
        <ele>1486</ele>
      </trkpt>
      <trkpt lat="44.05617" lon="6.51258">
        <ele>1486</ele>
      </trkpt>
      <trkpt lat="44.05611" lon="6.51252">
        <ele>1486</ele>
      </trkpt>
      <trkpt lat="44.05601" lon="6.51246">
        <ele>1486</ele>
      </trkpt>
      <trkpt lat="44.05589" lon="6.51238">
        <ele>1486</ele>
      </trkpt>
      <trkpt lat="44.0558" lon="6.51233">
        <ele>1486</ele>
      </trkpt>
      <trkpt lat="44.05573" lon="6.5123">
        <ele>1487</ele>
      </trkpt>
      <trkpt lat="44.05561" lon="6.51222">
        <ele>1487</ele>
      </trkpt>
      <trkpt lat="44.05551" lon="6.51216">
        <ele>1488</ele>
      </trkpt>
      <trkpt lat="44.05545" lon="6.51213">
        <ele>1488</ele>
      </trkpt>
      <trkpt lat="44.05533" lon="6.5121">
        <ele>1488</ele>
      </trkpt>
      <trkpt lat="44.05524" lon="6.5121">
        <ele>1488</ele>
      </trkpt>
      <trkpt lat="44.05521" lon="6.5121">
        <ele>1489</ele>
      </trkpt>
      <trkpt lat="44.05514" lon="6.5121">
        <ele>1489</ele>
      </trkpt>
      <trkpt lat="44.05508" lon="6.5121">
        <ele>1489</ele>
      </trkpt>
      <trkpt lat="44.05501" lon="6.51206">
        <ele>1489</ele>
      </trkpt>
      <trkpt lat="44.05496" lon="6.51203">
        <ele>1490</ele>
      </trkpt>
      <trkpt lat="44.05499" lon="6.51203">
        <ele>1490</ele>
      </trkpt>
      <trkpt lat="44.05489" lon="6.51199">
        <ele>1490</ele>
      </trkpt>
      <trkpt lat="44.05478" lon="6.51194">
        <ele>1491</ele>
      </trkpt>
      <trkpt lat="44.05468" lon="6.51189">
        <ele>1491</ele>
      </trkpt>
      <trkpt lat="44.05457" lon="6.51186">
        <ele>1492</ele>
      </trkpt>
      <trkpt lat="44.05446" lon="6.51181">
        <ele>1492</ele>
      </trkpt>
      <trkpt lat="44.05435" lon="6.51176">
        <ele>1493</ele>
      </trkpt>
      <trkpt lat="44.05424" lon="6.51172">
        <ele>1494</ele>
      </trkpt>
      <trkpt lat="44.05412" lon="6.51169">
        <ele>1495</ele>
      </trkpt>
      <trkpt lat="44.05401" lon="6.51165">
        <ele>1497</ele>
      </trkpt>
      <trkpt lat="44.0539" lon="6.51163">
        <ele>1497</ele>
      </trkpt>
      <trkpt lat="44.0538" lon="6.5116">
        <ele>1498</ele>
      </trkpt>
      <trkpt lat="44.05369" lon="6.51158">
        <ele>1498</ele>
      </trkpt>
      <trkpt lat="44.05358" lon="6.51156">
        <ele>1499</ele>
      </trkpt>
      <trkpt lat="44.05348" lon="6.51155">
        <ele>1499</ele>
      </trkpt>
      <trkpt lat="44.05337" lon="6.51153">
        <ele>1500</ele>
      </trkpt>
      <trkpt lat="44.05327" lon="6.51151">
        <ele>1500</ele>
      </trkpt>
      <trkpt lat="44.05316" lon="6.51149">
        <ele>1500</ele>
      </trkpt>
      <trkpt lat="44.05305" lon="6.51147">
        <ele>1501</ele>
      </trkpt>
      <trkpt lat="44.05295" lon="6.51146">
        <ele>1501</ele>
      </trkpt>
      <trkpt lat="44.05284" lon="6.51147">
        <ele>1501</ele>
      </trkpt>
      <trkpt lat="44.05273" lon="6.5115">
        <ele>1501</ele>
      </trkpt>
      <trkpt lat="44.05262" lon="6.51155">
        <ele>1501</ele>
      </trkpt>
      <trkpt lat="44.05251" lon="6.51159">
        <ele>1501</ele>
      </trkpt>
      <trkpt lat="44.05239" lon="6.51162">
        <ele>1501</ele>
      </trkpt>
      <trkpt lat="44.05226" lon="6.51163">
        <ele>1501</ele>
      </trkpt>
      <trkpt lat="44.05213" lon="6.51166">
        <ele>1501</ele>
      </trkpt>
      <trkpt lat="44.05199" lon="6.51169">
        <ele>1501</ele>
      </trkpt>
      <trkpt lat="44.05185" lon="6.51172">
        <ele>1501</ele>
      </trkpt>
      <trkpt lat="44.05173" lon="6.51175">
        <ele>1501</ele>
      </trkpt>
      <trkpt lat="44.0516" lon="6.51177">
        <ele>1501</ele>
      </trkpt>
      <trkpt lat="44.05148" lon="6.5118">
        <ele>1501</ele>
      </trkpt>
      <trkpt lat="44.05135" lon="6.51183">
        <ele>1501</ele>
      </trkpt>
      <trkpt lat="44.05122" lon="6.51184">
        <ele>1501</ele>
      </trkpt>
      <trkpt lat="44.05109" lon="6.51185">
        <ele>1501</ele>
      </trkpt>
      <trkpt lat="44.05094" lon="6.51184">
        <ele>1501</ele>
      </trkpt>
      <trkpt lat="44.05079" lon="6.51184">
        <ele>1502</ele>
      </trkpt>
      <trkpt lat="44.05064" lon="6.51185">
        <ele>1501</ele>
      </trkpt>
      <trkpt lat="44.05049" lon="6.51189">
        <ele>1501</ele>
      </trkpt>
      <trkpt lat="44.05034" lon="6.51194">
        <ele>1500</ele>
      </trkpt>
      <trkpt lat="44.05018" lon="6.5119">
        <ele>1499</ele>
      </trkpt>
      <trkpt lat="44.05005" lon="6.51184">
        <ele>1499</ele>
      </trkpt>
      <trkpt lat="44.0499" lon="6.51179">
        <ele>1498</ele>
      </trkpt>
      <trkpt lat="44.04976" lon="6.51174">
        <ele>1496</ele>
      </trkpt>
      <trkpt lat="44.04962" lon="6.51167">
        <ele>1495</ele>
      </trkpt>
      <trkpt lat="44.0495" lon="6.5116">
        <ele>1493</ele>
      </trkpt>
      <trkpt lat="44.04942" lon="6.51156">
        <ele>1492</ele>
      </trkpt>
      <trkpt lat="44.04934" lon="6.51154">
        <ele>1491</ele>
      </trkpt>
      <trkpt lat="44.04924" lon="6.51153">
        <ele>1489</ele>
      </trkpt>
      <trkpt lat="44.04912" lon="6.51155">
        <ele>1487</ele>
      </trkpt>
      <trkpt lat="44.049" lon="6.51157">
        <ele>1486</ele>
      </trkpt>
      <trkpt lat="44.04887" lon="6.5116">
        <ele>1485</ele>
      </trkpt>
      <trkpt lat="44.04872" lon="6.51163">
        <ele>1485</ele>
      </trkpt>
      <trkpt lat="44.04857" lon="6.51166">
        <ele>1484</ele>
      </trkpt>
      <trkpt lat="44.0484" lon="6.51169">
        <ele>1485</ele>
      </trkpt>
      <trkpt lat="44.04823" lon="6.51171">
        <ele>1485</ele>
      </trkpt>
      <trkpt lat="44.04807" lon="6.51167">
        <ele>1487</ele>
      </trkpt>
      <trkpt lat="44.04788" lon="6.51164">
        <ele>1490</ele>
      </trkpt>
      <trkpt lat="44.04776" lon="6.51165">
        <ele>1491</ele>
      </trkpt>
      <trkpt lat="44.04768" lon="6.51165">
        <ele>1492</ele>
      </trkpt>
      <trkpt lat="44.04761" lon="6.51165">
        <ele>1493</ele>
      </trkpt>
      <trkpt lat="44.04754" lon="6.51164">
        <ele>1494</ele>
      </trkpt>
      <trkpt lat="44.04747" lon="6.51164">
        <ele>1495</ele>
      </trkpt>
      <trkpt lat="44.04741" lon="6.51164">
        <ele>1496</ele>
      </trkpt>
      <trkpt lat="44.04734" lon="6.51164">
        <ele>1497</ele>
      </trkpt>
      <trkpt lat="44.04727" lon="6.51165">
        <ele>1498</ele>
      </trkpt>
      <trkpt lat="44.04721" lon="6.51165">
        <ele>1499</ele>
      </trkpt>
      <trkpt lat="44.04714" lon="6.51166">
        <ele>1499</ele>
      </trkpt>
      <trkpt lat="44.04708" lon="6.51165">
        <ele>1500</ele>
      </trkpt>
      <trkpt lat="44.04701" lon="6.51166">
        <ele>1501</ele>
      </trkpt>
      <trkpt lat="44.04695" lon="6.51167">
        <ele>1501</ele>
      </trkpt>
      <trkpt lat="44.04688" lon="6.51168">
        <ele>1502</ele>
      </trkpt>
      <trkpt lat="44.04682" lon="6.5117">
        <ele>1502</ele>
      </trkpt>
      <trkpt lat="44.04675" lon="6.51173">
        <ele>1503</ele>
      </trkpt>
      <trkpt lat="44.04669" lon="6.51176">
        <ele>1503</ele>
      </trkpt>
      <trkpt lat="44.04661" lon="6.51179">
        <ele>1503</ele>
      </trkpt>
      <trkpt lat="44.04653" lon="6.51182">
        <ele>1503</ele>
      </trkpt>
      <trkpt lat="44.04644" lon="6.51184">
        <ele>1503</ele>
      </trkpt>
      <trkpt lat="44.04635" lon="6.51183">
        <ele>1503</ele>
      </trkpt>
      <trkpt lat="44.04626" lon="6.51181">
        <ele>1503</ele>
      </trkpt>
      <trkpt lat="44.04617" lon="6.51177">
        <ele>1502</ele>
      </trkpt>
      <trkpt lat="44.04606" lon="6.51173">
        <ele>1502</ele>
      </trkpt>
      <trkpt lat="44.04595" lon="6.51169">
        <ele>1502</ele>
      </trkpt>
      <trkpt lat="44.04583" lon="6.51167">
        <ele>1502</ele>
      </trkpt>
      <trkpt lat="44.04571" lon="6.51169">
        <ele>1501</ele>
      </trkpt>
      <trkpt lat="44.0456" lon="6.51175">
        <ele>1501</ele>
      </trkpt>
      <trkpt lat="44.0455" lon="6.51185">
        <ele>1501</ele>
      </trkpt>
      <trkpt lat="44.0454" lon="6.51197">
        <ele>1501</ele>
      </trkpt>
      <trkpt lat="44.04529" lon="6.51205">
        <ele>1501</ele>
      </trkpt>
      <trkpt lat="44.04518" lon="6.51212">
        <ele>1501</ele>
      </trkpt>
      <trkpt lat="44.04507" lon="6.51218">
        <ele>1501</ele>
      </trkpt>
      <trkpt lat="44.04497" lon="6.51227">
        <ele>1502</ele>
      </trkpt>
      <trkpt lat="44.04487" lon="6.51235">
        <ele>1502</ele>
      </trkpt>
      <trkpt lat="44.04477" lon="6.51242">
        <ele>1503</ele>
      </trkpt>
      <trkpt lat="44.04467" lon="6.51249">
        <ele>1503</ele>
      </trkpt>
      <trkpt lat="44.04461" lon="6.51255">
        <ele>1504</ele>
      </trkpt>
      <trkpt lat="44.04446" lon="6.51266">
        <ele>1504</ele>
      </trkpt>
      <trkpt lat="44.04436" lon="6.51273">
        <ele>1504</ele>
      </trkpt>
      <trkpt lat="44.04426" lon="6.51283">
        <ele>1503</ele>
      </trkpt>
      <trkpt lat="44.04417" lon="6.51296">
        <ele>1503</ele>
      </trkpt>
      <trkpt lat="44.04409" lon="6.51314">
        <ele>1503</ele>
      </trkpt>
      <trkpt lat="44.04399" lon="6.51338">
        <ele>1500</ele>
      </trkpt>
      <trkpt lat="44.04386" lon="6.51362">
        <ele>1498</ele>
      </trkpt>
      <trkpt lat="44.04369" lon="6.51381">
        <ele>1498</ele>
      </trkpt>
      <trkpt lat="44.04353" lon="6.51389">
        <ele>1499</ele>
      </trkpt>
      <trkpt lat="44.04344" lon="6.51392">
        <ele>1500</ele>
      </trkpt>
      <trkpt lat="44.04337" lon="6.51396">
        <ele>1500</ele>
      </trkpt>
      <trkpt lat="44.0433" lon="6.51398">
        <ele>1501</ele>
      </trkpt>
      <trkpt lat="44.04322" lon="6.514">
        <ele>1501</ele>
      </trkpt>
      <trkpt lat="44.04315" lon="6.51404">
        <ele>1502</ele>
      </trkpt>
      <trkpt lat="44.04307" lon="6.51409">
        <ele>1503</ele>
      </trkpt>
      <trkpt lat="44.043" lon="6.51414">
        <ele>1503</ele>
      </trkpt>
      <trkpt lat="44.04292" lon="6.51417">
        <ele>1504</ele>
      </trkpt>
      <trkpt lat="44.04283" lon="6.51418">
        <ele>1505</ele>
      </trkpt>
      <trkpt lat="44.04274" lon="6.51422">
        <ele>1505</ele>
      </trkpt>
      <trkpt lat="44.04269" lon="6.51424">
        <ele>1506</ele>
      </trkpt>
      <trkpt lat="44.04261" lon="6.51427">
        <ele>1506</ele>
      </trkpt>
      <trkpt lat="44.04254" lon="6.5143">
        <ele>1507</ele>
      </trkpt>
      <trkpt lat="44.04249" lon="6.51431">
        <ele>1507</ele>
      </trkpt>
      <trkpt lat="44.04238" lon="6.51432">
        <ele>1508</ele>
      </trkpt>
      <trkpt lat="44.0423" lon="6.51433">
        <ele>1508</ele>
      </trkpt>
      <trkpt lat="44.04222" lon="6.51432">
        <ele>1509</ele>
      </trkpt>
      <trkpt lat="44.04213" lon="6.51432">
        <ele>1509</ele>
      </trkpt>
      <trkpt lat="44.04205" lon="6.51432">
        <ele>1509</ele>
      </trkpt>
      <trkpt lat="44.04197" lon="6.51433">
        <ele>1510</ele>
      </trkpt>
      <trkpt lat="44.04189" lon="6.51434">
        <ele>1510</ele>
      </trkpt>
      <trkpt lat="44.04181" lon="6.51436">
        <ele>1510</ele>
      </trkpt>
      <trkpt lat="44.04173" lon="6.51437">
        <ele>1511</ele>
      </trkpt>
      <trkpt lat="44.04166" lon="6.51436">
        <ele>1511</ele>
      </trkpt>
      <trkpt lat="44.04159" lon="6.51437">
        <ele>1511</ele>
      </trkpt>
      <trkpt lat="44.04152" lon="6.51435">
        <ele>1512</ele>
      </trkpt>
      <trkpt lat="44.04149" lon="6.51436">
        <ele>1512</ele>
      </trkpt>
      <trkpt lat="44.04141" lon="6.51433">
        <ele>1513</ele>
      </trkpt>
      <trkpt lat="44.04137" lon="6.51431">
        <ele>1513</ele>
      </trkpt>
      <trkpt lat="44.04129" lon="6.51424">
        <ele>1514</ele>
      </trkpt>
      <trkpt lat="44.04121" lon="6.51415">
        <ele>1515</ele>
      </trkpt>
      <trkpt lat="44.04115" lon="6.51409">
        <ele>1515</ele>
      </trkpt>
      <trkpt lat="44.0411" lon="6.51404">
        <ele>1516</ele>
      </trkpt>
      <trkpt lat="44.04104" lon="6.514">
        <ele>1517</ele>
      </trkpt>
      <trkpt lat="44.041" lon="6.51395">
        <ele>1517</ele>
      </trkpt>
      <trkpt lat="44.04095" lon="6.51389">
        <ele>1518</ele>
      </trkpt>
      <trkpt lat="44.04091" lon="6.51384">
        <ele>1519</ele>
      </trkpt>
      <trkpt lat="44.04086" lon="6.51378">
        <ele>1520</ele>
      </trkpt>
      <trkpt lat="44.04081" lon="6.51374">
        <ele>1520</ele>
      </trkpt>
      <trkpt lat="44.04076" lon="6.5137">
        <ele>1521</ele>
      </trkpt>
      <trkpt lat="44.0407" lon="6.51368">
        <ele>1522</ele>
      </trkpt>
      <trkpt lat="44.04065" lon="6.51367">
        <ele>1522</ele>
      </trkpt>
      <trkpt lat="44.0406" lon="6.51368">
        <ele>1523</ele>
      </trkpt>
      <trkpt lat="44.04054" lon="6.5137">
        <ele>1523</ele>
      </trkpt>
      <trkpt lat="44.04049" lon="6.51372">
        <ele>1523</ele>
      </trkpt>
      <trkpt lat="44.04043" lon="6.51374">
        <ele>1523</ele>
      </trkpt>
      <trkpt lat="44.04038" lon="6.51376">
        <ele>1523</ele>
      </trkpt>
      <trkpt lat="44.04033" lon="6.51377">
        <ele>1523</ele>
      </trkpt>
      <trkpt lat="44.04028" lon="6.51378">
        <ele>1523</ele>
      </trkpt>
      <trkpt lat="44.04023" lon="6.51379">
        <ele>1523</ele>
      </trkpt>
      <trkpt lat="44.04018" lon="6.5138">
        <ele>1523</ele>
      </trkpt>
      <trkpt lat="44.04013" lon="6.51381">
        <ele>1523</ele>
      </trkpt>
      <trkpt lat="44.04008" lon="6.5138">
        <ele>1523</ele>
      </trkpt>
      <trkpt lat="44.04003" lon="6.5138">
        <ele>1523</ele>
      </trkpt>
      <trkpt lat="44.04004" lon="6.51376">
        <ele>1524</ele>
      </trkpt>
      <trkpt lat="44.03992" lon="6.51338">
        <ele>1530</ele>
      </trkpt>
      <trkpt lat="44.0399" lon="6.51335">
        <ele>1531</ele>
      </trkpt>
      <trkpt lat="44.0399" lon="6.51327">
        <ele>1531</ele>
      </trkpt>
      <trkpt lat="44.0399" lon="6.5132">
        <ele>1532</ele>
      </trkpt>
      <trkpt lat="44.0399" lon="6.51312">
        <ele>1533</ele>
      </trkpt>
      <trkpt lat="44.03991" lon="6.51305">
        <ele>1534</ele>
      </trkpt>
      <trkpt lat="44.0399" lon="6.51298">
        <ele>1535</ele>
      </trkpt>
      <trkpt lat="44.03989" lon="6.51291">
        <ele>1536</ele>
      </trkpt>
      <trkpt lat="44.03987" lon="6.51284">
        <ele>1537</ele>
      </trkpt>
      <trkpt lat="44.03985" lon="6.51277">
        <ele>1538</ele>
      </trkpt>
      <trkpt lat="44.03983" lon="6.5127">
        <ele>1538</ele>
      </trkpt>
      <trkpt lat="44.03981" lon="6.51263">
        <ele>1539</ele>
      </trkpt>
      <trkpt lat="44.03979" lon="6.51257">
        <ele>1540</ele>
      </trkpt>
      <trkpt lat="44.03976" lon="6.51251">
        <ele>1541</ele>
      </trkpt>
      <trkpt lat="44.03973" lon="6.51245">
        <ele>1542</ele>
      </trkpt>
      <trkpt lat="44.03971" lon="6.51239">
        <ele>1543</ele>
      </trkpt>
      <trkpt lat="44.03969" lon="6.51232">
        <ele>1544</ele>
      </trkpt>
      <trkpt lat="44.03967" lon="6.51227">
        <ele>1545</ele>
      </trkpt>
      <trkpt lat="44.03961" lon="6.51218">
        <ele>1546</ele>
      </trkpt>
      <trkpt lat="44.03958" lon="6.51213">
        <ele>1547</ele>
      </trkpt>
      <trkpt lat="44.03954" lon="6.51208">
        <ele>1547</ele>
      </trkpt>
      <trkpt lat="44.03951" lon="6.51204">
        <ele>1547</ele>
      </trkpt>
      <trkpt lat="44.03942" lon="6.51195">
        <ele>1548</ele>
      </trkpt>
      <trkpt lat="44.03938" lon="6.51191">
        <ele>1549</ele>
      </trkpt>
      <trkpt lat="44.03934" lon="6.51187">
        <ele>1549</ele>
      </trkpt>
      <trkpt lat="44.03931" lon="6.51184">
        <ele>1550</ele>
      </trkpt>
      <trkpt lat="44.03927" lon="6.51181">
        <ele>1551</ele>
      </trkpt>
      <trkpt lat="44.03923" lon="6.51177">
        <ele>1551</ele>
      </trkpt>
      <trkpt lat="44.0392" lon="6.51174">
        <ele>1552</ele>
      </trkpt>
      <trkpt lat="44.03911" lon="6.5117">
        <ele>1553</ele>
      </trkpt>
      <trkpt lat="44.03907" lon="6.51169">
        <ele>1554</ele>
      </trkpt>
      <trkpt lat="44.03898" lon="6.51172">
        <ele>1555</ele>
      </trkpt>
      <trkpt lat="44.03894" lon="6.51173">
        <ele>1556</ele>
      </trkpt>
      <trkpt lat="44.0389" lon="6.51176">
        <ele>1556</ele>
      </trkpt>
      <trkpt lat="44.03885" lon="6.51182">
        <ele>1557</ele>
      </trkpt>
      <trkpt lat="44.03883" lon="6.51184">
        <ele>1557</ele>
      </trkpt>
      <trkpt lat="44.03878" lon="6.5119">
        <ele>1558</ele>
      </trkpt>
      <trkpt lat="44.03874" lon="6.51195">
        <ele>1558</ele>
      </trkpt>
      <trkpt lat="44.0387" lon="6.512">
        <ele>1559</ele>
      </trkpt>
      <trkpt lat="44.03867" lon="6.51205">
        <ele>1559</ele>
      </trkpt>
      <trkpt lat="44.03864" lon="6.51211">
        <ele>1559</ele>
      </trkpt>
      <trkpt lat="44.03861" lon="6.51217">
        <ele>1560</ele>
      </trkpt>
      <trkpt lat="44.03858" lon="6.51223">
        <ele>1560</ele>
      </trkpt>
      <trkpt lat="44.03855" lon="6.51228">
        <ele>1560</ele>
      </trkpt>
      <trkpt lat="44.03851" lon="6.51237">
        <ele>1561</ele>
      </trkpt>
      <trkpt lat="44.03848" lon="6.51244">
        <ele>1561</ele>
      </trkpt>
      <trkpt lat="44.03844" lon="6.51251">
        <ele>1562</ele>
      </trkpt>
      <trkpt lat="44.0384" lon="6.51256">
        <ele>1562</ele>
      </trkpt>
      <trkpt lat="44.03835" lon="6.51261">
        <ele>1563</ele>
      </trkpt>
      <trkpt lat="44.03832" lon="6.51267">
        <ele>1563</ele>
      </trkpt>
      <trkpt lat="44.03829" lon="6.51271">
        <ele>1564</ele>
      </trkpt>
      <trkpt lat="44.03825" lon="6.5128">
        <ele>1564</ele>
      </trkpt>
      <trkpt lat="44.03823" lon="6.51287">
        <ele>1564</ele>
      </trkpt>
      <trkpt lat="44.03822" lon="6.51292">
        <ele>1564</ele>
      </trkpt>
      <trkpt lat="44.0382" lon="6.51304">
        <ele>1564</ele>
      </trkpt>
      <trkpt lat="44.03817" lon="6.51311">
        <ele>1564</ele>
      </trkpt>
      <trkpt lat="44.03815" lon="6.51319">
        <ele>1564</ele>
      </trkpt>
      <trkpt lat="44.03813" lon="6.51326">
        <ele>1564</ele>
      </trkpt>
      <trkpt lat="44.03811" lon="6.51333">
        <ele>1564</ele>
      </trkpt>
      <trkpt lat="44.03809" lon="6.5134">
        <ele>1564</ele>
      </trkpt>
      <trkpt lat="44.03807" lon="6.51347">
        <ele>1564</ele>
      </trkpt>
      <trkpt lat="44.03804" lon="6.51354">
        <ele>1564</ele>
      </trkpt>
      <trkpt lat="44.03802" lon="6.51362">
        <ele>1564</ele>
      </trkpt>
      <trkpt lat="44.03798" lon="6.5137">
        <ele>1564</ele>
      </trkpt>
      <trkpt lat="44.03795" lon="6.5138">
        <ele>1564</ele>
      </trkpt>
      <trkpt lat="44.03791" lon="6.51391">
        <ele>1564</ele>
      </trkpt>
      <trkpt lat="44.03788" lon="6.51403">
        <ele>1564</ele>
      </trkpt>
      <trkpt lat="44.03784" lon="6.51415">
        <ele>1564</ele>
      </trkpt>
      <trkpt lat="44.03779" lon="6.51428">
        <ele>1564</ele>
      </trkpt>
      <trkpt lat="44.03774" lon="6.51441">
        <ele>1564</ele>
      </trkpt>
      <trkpt lat="44.03769" lon="6.51454">
        <ele>1564</ele>
      </trkpt>
      <trkpt lat="44.03764" lon="6.51468">
        <ele>1564</ele>
      </trkpt>
      <trkpt lat="44.03759" lon="6.51481">
        <ele>1564</ele>
      </trkpt>
      <trkpt lat="44.03755" lon="6.5149">
        <ele>1564</ele>
      </trkpt>
      <trkpt lat="44.03748" lon="6.51502">
        <ele>1565</ele>
      </trkpt>
      <trkpt lat="44.03738" lon="6.51515">
        <ele>1565</ele>
      </trkpt>
      <trkpt lat="44.0373" lon="6.51522">
        <ele>1566</ele>
      </trkpt>
      <trkpt lat="44.03723" lon="6.51528">
        <ele>1566</ele>
      </trkpt>
      <trkpt lat="44.03716" lon="6.51533">
        <ele>1567</ele>
      </trkpt>
      <trkpt lat="44.03709" lon="6.51537">
        <ele>1567</ele>
      </trkpt>
      <trkpt lat="44.03705" lon="6.51538">
        <ele>1567</ele>
      </trkpt>
      <trkpt lat="44.03693" lon="6.51536">
        <ele>1569</ele>
      </trkpt>
      <trkpt lat="44.03684" lon="6.51535">
        <ele>1569</ele>
      </trkpt>
      <trkpt lat="44.03674" lon="6.51533">
        <ele>1570</ele>
      </trkpt>
      <trkpt lat="44.03665" lon="6.5153">
        <ele>1571</ele>
      </trkpt>
      <trkpt lat="44.03656" lon="6.51525">
        <ele>1571</ele>
      </trkpt>
      <trkpt lat="44.03648" lon="6.51517">
        <ele>1572</ele>
      </trkpt>
      <trkpt lat="44.0364" lon="6.51509">
        <ele>1572</ele>
      </trkpt>
      <trkpt lat="44.03633" lon="6.515">
        <ele>1572</ele>
      </trkpt>
      <trkpt lat="44.03625" lon="6.51492">
        <ele>1572</ele>
      </trkpt>
      <trkpt lat="44.03617" lon="6.51484">
        <ele>1572</ele>
      </trkpt>
      <trkpt lat="44.03608" lon="6.51476">
        <ele>1572</ele>
      </trkpt>
      <trkpt lat="44.03599" lon="6.51468">
        <ele>1572</ele>
      </trkpt>
      <trkpt lat="44.03589" lon="6.51461">
        <ele>1573</ele>
      </trkpt>
      <trkpt lat="44.0358" lon="6.51453">
        <ele>1573</ele>
      </trkpt>
      <trkpt lat="44.03571" lon="6.51444">
        <ele>1573</ele>
      </trkpt>
      <trkpt lat="44.03563" lon="6.51435">
        <ele>1572</ele>
      </trkpt>
      <trkpt lat="44.03556" lon="6.51424">
        <ele>1572</ele>
      </trkpt>
      <trkpt lat="44.03549" lon="6.51411">
        <ele>1571</ele>
      </trkpt>
      <trkpt lat="44.03543" lon="6.51399">
        <ele>1571</ele>
      </trkpt>
      <trkpt lat="44.03538" lon="6.51389">
        <ele>1570</ele>
      </trkpt>
      <trkpt lat="44.03531" lon="6.51379">
        <ele>1570</ele>
      </trkpt>
      <trkpt lat="44.03524" lon="6.51373">
        <ele>1571</ele>
      </trkpt>
      <trkpt lat="44.03515" lon="6.51368">
        <ele>1571</ele>
      </trkpt>
      <trkpt lat="44.03505" lon="6.51367">
        <ele>1573</ele>
      </trkpt>
      <trkpt lat="44.03493" lon="6.51366">
        <ele>1574</ele>
      </trkpt>
      <trkpt lat="44.03481" lon="6.51366">
        <ele>1575</ele>
      </trkpt>
      <trkpt lat="44.03469" lon="6.51364">
        <ele>1575</ele>
      </trkpt>
      <trkpt lat="44.03458" lon="6.5136">
        <ele>1576</ele>
      </trkpt>
      <trkpt lat="44.03448" lon="6.51354">
        <ele>1576</ele>
      </trkpt>
      <trkpt lat="44.0344" lon="6.51344">
        <ele>1575</ele>
      </trkpt>
      <trkpt lat="44.03436" lon="6.51328">
        <ele>1574</ele>
      </trkpt>
      <trkpt lat="44.03438" lon="6.51313">
        <ele>1572</ele>
      </trkpt>
      <trkpt lat="44.0344" lon="6.51298">
        <ele>1570</ele>
      </trkpt>
      <trkpt lat="44.03443" lon="6.51282">
        <ele>1569</ele>
      </trkpt>
      <trkpt lat="44.03445" lon="6.51267">
        <ele>1568</ele>
      </trkpt>
      <trkpt lat="44.03445" lon="6.51251">
        <ele>1566</ele>
      </trkpt>
      <trkpt lat="44.03446" lon="6.51235">
        <ele>1565</ele>
      </trkpt>
      <trkpt lat="44.03446" lon="6.51219">
        <ele>1564</ele>
      </trkpt>
      <trkpt lat="44.03442" lon="6.51201">
        <ele>1564</ele>
      </trkpt>
      <trkpt lat="44.03439" lon="6.51185">
        <ele>1564</ele>
      </trkpt>
      <trkpt lat="44.03435" lon="6.51169">
        <ele>1564</ele>
      </trkpt>
      <trkpt lat="44.03429" lon="6.51154">
        <ele>1564</ele>
      </trkpt>
      <trkpt lat="44.0342" lon="6.51141">
        <ele>1566</ele>
      </trkpt>
      <trkpt lat="44.03409" lon="6.51129">
        <ele>1567</ele>
      </trkpt>
      <trkpt lat="44.034" lon="6.51118">
        <ele>1568</ele>
      </trkpt>
      <trkpt lat="44.0339" lon="6.51109">
        <ele>1569</ele>
      </trkpt>
      <trkpt lat="44.03379" lon="6.51102">
        <ele>1570</ele>
      </trkpt>
      <trkpt lat="44.03367" lon="6.51096">
        <ele>1570</ele>
      </trkpt>
      <trkpt lat="44.03354" lon="6.51095">
        <ele>1571</ele>
      </trkpt>
      <trkpt lat="44.0334" lon="6.51097">
        <ele>1572</ele>
      </trkpt>
      <trkpt lat="44.03327" lon="6.51099">
        <ele>1572</ele>
      </trkpt>
      <trkpt lat="44.03316" lon="6.51104">
        <ele>1572</ele>
      </trkpt>
      <trkpt lat="44.03303" lon="6.51108">
        <ele>1571</ele>
      </trkpt>
      <trkpt lat="44.03292" lon="6.51123">
        <ele>1571</ele>
      </trkpt>
      <trkpt lat="44.03283" lon="6.51144">
        <ele>1571</ele>
      </trkpt>
      <trkpt lat="44.03278" lon="6.5116">
        <ele>1571</ele>
      </trkpt>
      <trkpt lat="44.03276" lon="6.51178">
        <ele>1572</ele>
      </trkpt>
      <trkpt lat="44.03274" lon="6.51198">
        <ele>1574</ele>
      </trkpt>
      <trkpt lat="44.03268" lon="6.51215">
        <ele>1575</ele>
      </trkpt>
      <trkpt lat="44.03255" lon="6.5122">
        <ele>1574</ele>
      </trkpt>
      <trkpt lat="44.03244" lon="6.51224">
        <ele>1574</ele>
      </trkpt>
      <trkpt lat="44.03234" lon="6.51231">
        <ele>1575</ele>
      </trkpt>
      <trkpt lat="44.03224" lon="6.51239">
        <ele>1575</ele>
      </trkpt>
      <trkpt lat="44.03215" lon="6.51252">
        <ele>1576</ele>
      </trkpt>
      <trkpt lat="44.03202" lon="6.51259">
        <ele>1576</ele>
      </trkpt>
      <trkpt lat="44.03191" lon="6.51267">
        <ele>1576</ele>
      </trkpt>
      <trkpt lat="44.03182" lon="6.51279">
        <ele>1576</ele>
      </trkpt>
      <trkpt lat="44.03171" lon="6.51288">
        <ele>1574</ele>
      </trkpt>
      <trkpt lat="44.03163" lon="6.51294">
        <ele>1572</ele>
      </trkpt>
      <trkpt lat="44.03157" lon="6.51308">
        <ele>1571</ele>
      </trkpt>
      <trkpt lat="44.03155" lon="6.51334">
        <ele>1573</ele>
      </trkpt>
      <trkpt lat="44.03156" lon="6.51354">
        <ele>1574</ele>
      </trkpt>
      <trkpt lat="44.03153" lon="6.51377">
        <ele>1573</ele>
      </trkpt>
      <trkpt lat="44.0315" lon="6.51398">
        <ele>1572</ele>
      </trkpt>
      <trkpt lat="44.03147" lon="6.51418">
        <ele>1570</ele>
      </trkpt>
      <trkpt lat="44.03146" lon="6.51434">
        <ele>1568</ele>
      </trkpt>
      <trkpt lat="44.03146" lon="6.5145">
        <ele>1566</ele>
      </trkpt>
      <trkpt lat="44.03143" lon="6.51465">
        <ele>1564</ele>
      </trkpt>
      <trkpt lat="44.03132" lon="6.51471">
        <ele>1562</ele>
      </trkpt>
      <trkpt lat="44.03123" lon="6.51462">
        <ele>1562</ele>
      </trkpt>
      <trkpt lat="44.03114" lon="6.51448">
        <ele>1561</ele>
      </trkpt>
      <trkpt lat="44.03102" lon="6.51434">
        <ele>1558</ele>
      </trkpt>
      <trkpt lat="44.03091" lon="6.51412">
        <ele>1552</ele>
      </trkpt>
      <trkpt lat="44.03079" lon="6.51391">
        <ele>1550</ele>
      </trkpt>
      <trkpt lat="44.03064" lon="6.51371">
        <ele>1548</ele>
      </trkpt>
      <trkpt lat="44.03052" lon="6.51358">
        <ele>1547</ele>
      </trkpt>
      <trkpt lat="44.03041" lon="6.51345">
        <ele>1547</ele>
      </trkpt>
      <trkpt lat="44.03034" lon="6.51338">
        <ele>1547</ele>
      </trkpt>
      <trkpt lat="44.03028" lon="6.51333">
        <ele>1547</ele>
      </trkpt>
      <trkpt lat="44.03023" lon="6.51323">
        <ele>1546</ele>
      </trkpt>
      <trkpt lat="44.03015" lon="6.51311">
        <ele>1545</ele>
      </trkpt>
      <trkpt lat="44.03006" lon="6.51293">
        <ele>1543</ele>
      </trkpt>
      <trkpt lat="44.02998" lon="6.5127">
        <ele>1538</ele>
      </trkpt>
      <trkpt lat="44.02988" lon="6.51247">
        <ele>1535</ele>
      </trkpt>
      <trkpt lat="44.02976" lon="6.51221">
        <ele>1532</ele>
      </trkpt>
      <trkpt lat="44.02957" lon="6.51206">
        <ele>1532</ele>
      </trkpt>
      <trkpt lat="44.02935" lon="6.51205">
        <ele>1532</ele>
      </trkpt>
      <trkpt lat="44.02915" lon="6.51215">
        <ele>1532</ele>
      </trkpt>
      <trkpt lat="44.02903" lon="6.51229">
        <ele>1531</ele>
      </trkpt>
      <trkpt lat="44.02896" lon="6.51254">
        <ele>1531</ele>
      </trkpt>
      <trkpt lat="44.02883" lon="6.51284">
        <ele>1531</ele>
      </trkpt>
      <trkpt lat="44.02868" lon="6.51311">
        <ele>1531</ele>
      </trkpt>
      <trkpt lat="44.02851" lon="6.51334">
        <ele>1530</ele>
      </trkpt>
      <trkpt lat="44.02838" lon="6.51361">
        <ele>1530</ele>
      </trkpt>
      <trkpt lat="44.02824" lon="6.51384">
        <ele>1529</ele>
      </trkpt>
      <trkpt lat="44.02809" lon="6.5138">
        <ele>1527</ele>
      </trkpt>
      <trkpt lat="44.02799" lon="6.51377">
        <ele>1525</ele>
      </trkpt>
      <trkpt lat="44.02792" lon="6.51374">
        <ele>1524</ele>
      </trkpt>
      <trkpt lat="44.02782" lon="6.51371">
        <ele>1522</ele>
      </trkpt>
      <trkpt lat="44.02771" lon="6.51368">
        <ele>1522</ele>
      </trkpt>
      <trkpt lat="44.0276" lon="6.51366">
        <ele>1523</ele>
      </trkpt>
      <trkpt lat="44.0275" lon="6.51365">
        <ele>1524</ele>
      </trkpt>
      <trkpt lat="44.02739" lon="6.51367">
        <ele>1526</ele>
      </trkpt>
      <trkpt lat="44.02726" lon="6.51369">
        <ele>1528</ele>
      </trkpt>
      <trkpt lat="44.02715" lon="6.51365">
        <ele>1528</ele>
      </trkpt>
      <trkpt lat="44.02708" lon="6.51366">
        <ele>1528</ele>
      </trkpt>
      <trkpt lat="44.02696" lon="6.51367">
        <ele>1530</ele>
      </trkpt>
      <trkpt lat="44.0269" lon="6.51367">
        <ele>1530</ele>
      </trkpt>
      <trkpt lat="44.02679" lon="6.51368">
        <ele>1531</ele>
      </trkpt>
      <trkpt lat="44.02663" lon="6.51369">
        <ele>1532</ele>
      </trkpt>
      <trkpt lat="44.02649" lon="6.51372">
        <ele>1534</ele>
      </trkpt>
      <trkpt lat="44.02634" lon="6.51373">
        <ele>1535</ele>
      </trkpt>
      <trkpt lat="44.02624" lon="6.51375">
        <ele>1536</ele>
      </trkpt>
      <trkpt lat="44.02615" lon="6.51377">
        <ele>1537</ele>
      </trkpt>
      <trkpt lat="44.02606" lon="6.51379">
        <ele>1538</ele>
      </trkpt>
      <trkpt lat="44.026" lon="6.51375">
        <ele>1537</ele>
      </trkpt>
      <trkpt lat="44.02593" lon="6.51377">
        <ele>1537</ele>
      </trkpt>
      <trkpt lat="44.02587" lon="6.51382">
        <ele>1539</ele>
      </trkpt>
      <trkpt lat="44.02577" lon="6.51386">
        <ele>1540</ele>
      </trkpt>
      <trkpt lat="44.02564" lon="6.5139">
        <ele>1541</ele>
      </trkpt>
      <trkpt lat="44.02557" lon="6.51396">
        <ele>1543</ele>
      </trkpt>
      <trkpt lat="44.02549" lon="6.51399">
        <ele>1544</ele>
      </trkpt>
      <trkpt lat="44.02539" lon="6.51404">
        <ele>1545</ele>
      </trkpt>
      <trkpt lat="44.02529" lon="6.51409">
        <ele>1546</ele>
      </trkpt>
      <trkpt lat="44.02517" lon="6.51414">
        <ele>1548</ele>
      </trkpt>
      <trkpt lat="44.02506" lon="6.51416">
        <ele>1548</ele>
      </trkpt>
      <trkpt lat="44.02496" lon="6.5142">
        <ele>1548</ele>
      </trkpt>
      <trkpt lat="44.02483" lon="6.51424">
        <ele>1548</ele>
      </trkpt>
      <trkpt lat="44.02476" lon="6.51428">
        <ele>1549</ele>
      </trkpt>
      <trkpt lat="44.0247" lon="6.51432">
        <ele>1550</ele>
      </trkpt>
      <trkpt lat="44.02464" lon="6.51437">
        <ele>1551</ele>
      </trkpt>
      <trkpt lat="44.02458" lon="6.51441">
        <ele>1552</ele>
      </trkpt>
      <trkpt lat="44.02452" lon="6.51445">
        <ele>1553</ele>
      </trkpt>
      <trkpt lat="44.02443" lon="6.51454">
        <ele>1555</ele>
      </trkpt>
      <trkpt lat="44.02438" lon="6.51459">
        <ele>1556</ele>
      </trkpt>
      <trkpt lat="44.02432" lon="6.51465">
        <ele>1558</ele>
      </trkpt>
      <trkpt lat="44.02426" lon="6.51469">
        <ele>1559</ele>
      </trkpt>
      <trkpt lat="44.0242" lon="6.51473">
        <ele>1561</ele>
      </trkpt>
      <trkpt lat="44.02414" lon="6.51481">
        <ele>1564</ele>
      </trkpt>
      <trkpt lat="44.02405" lon="6.51488">
        <ele>1565</ele>
      </trkpt>
      <trkpt lat="44.02395" lon="6.51497">
        <ele>1566</ele>
      </trkpt>
      <trkpt lat="44.02385" lon="6.51504">
        <ele>1566</ele>
      </trkpt>
      <trkpt lat="44.0238" lon="6.51508">
        <ele>1567</ele>
      </trkpt>
      <trkpt lat="44.02375" lon="6.51513">
        <ele>1568</ele>
      </trkpt>
      <trkpt lat="44.02368" lon="6.51517">
        <ele>1569</ele>
      </trkpt>
      <trkpt lat="44.02363" lon="6.51522">
        <ele>1569</ele>
      </trkpt>
      <trkpt lat="44.02358" lon="6.51528">
        <ele>1570</ele>
      </trkpt>
      <trkpt lat="44.0235" lon="6.51537">
        <ele>1571</ele>
      </trkpt>
      <trkpt lat="44.02345" lon="6.51543">
        <ele>1572</ele>
      </trkpt>
      <trkpt lat="44.0234" lon="6.51549">
        <ele>1573</ele>
      </trkpt>
      <trkpt lat="44.02335" lon="6.51558">
        <ele>1575</ele>
      </trkpt>
      <trkpt lat="44.02331" lon="6.51565">
        <ele>1577</ele>
      </trkpt>
      <trkpt lat="44.02325" lon="6.51572">
        <ele>1579</ele>
      </trkpt>
      <trkpt lat="44.0232" lon="6.51579">
        <ele>1580</ele>
      </trkpt>
      <trkpt lat="44.02316" lon="6.51586">
        <ele>1581</ele>
      </trkpt>
      <trkpt lat="44.02311" lon="6.51593">
        <ele>1582</ele>
      </trkpt>
      <trkpt lat="44.02307" lon="6.516">
        <ele>1583</ele>
      </trkpt>
      <trkpt lat="44.02294" lon="6.51608">
        <ele>1581</ele>
      </trkpt>
      <trkpt lat="44.02288" lon="6.51612">
        <ele>1580</ele>
      </trkpt>
      <trkpt lat="44.02275" lon="6.5162">
        <ele>1578</ele>
      </trkpt>
      <trkpt lat="44.02269" lon="6.51623">
        <ele>1577</ele>
      </trkpt>
      <trkpt lat="44.0226" lon="6.51626">
        <ele>1575</ele>
      </trkpt>
      <trkpt lat="44.02253" lon="6.51627">
        <ele>1574</ele>
      </trkpt>
      <trkpt lat="44.02242" lon="6.51626">
        <ele>1569</ele>
      </trkpt>
      <trkpt lat="44.02234" lon="6.51628">
        <ele>1568</ele>
      </trkpt>
      <trkpt lat="44.02224" lon="6.51626">
        <ele>1565</ele>
      </trkpt>
      <trkpt lat="44.02215" lon="6.51624">
        <ele>1563</ele>
      </trkpt>
      <trkpt lat="44.02207" lon="6.5162">
        <ele>1561</ele>
      </trkpt>
      <trkpt lat="44.022" lon="6.5162">
        <ele>1560</ele>
      </trkpt>
      <trkpt lat="44.02186" lon="6.51619">
        <ele>1558</ele>
      </trkpt>
      <trkpt lat="44.02179" lon="6.5162">
        <ele>1558</ele>
      </trkpt>
      <trkpt lat="44.02172" lon="6.51618">
        <ele>1557</ele>
      </trkpt>
      <trkpt lat="44.0216" lon="6.51617">
        <ele>1557</ele>
      </trkpt>
      <trkpt lat="44.02153" lon="6.51613">
        <ele>1556</ele>
      </trkpt>
      <trkpt lat="44.02144" lon="6.51611">
        <ele>1556</ele>
      </trkpt>
      <trkpt lat="44.02135" lon="6.51613">
        <ele>1556</ele>
      </trkpt>
      <trkpt lat="44.02122" lon="6.51614">
        <ele>1557</ele>
      </trkpt>
      <trkpt lat="44.02116" lon="6.51611">
        <ele>1556</ele>
      </trkpt>
      <trkpt lat="44.02102" lon="6.51609">
        <ele>1557</ele>
      </trkpt>
      <trkpt lat="44.02093" lon="6.51615">
        <ele>1557</ele>
      </trkpt>
      <trkpt lat="44.02085" lon="6.51618">
        <ele>1557</ele>
      </trkpt>
      <trkpt lat="44.02075" lon="6.51623">
        <ele>1558</ele>
      </trkpt>
      <trkpt lat="44.02067" lon="6.51627">
        <ele>1558</ele>
      </trkpt>
      <trkpt lat="44.02058" lon="6.51634">
        <ele>1558</ele>
      </trkpt>
      <trkpt lat="44.02049" lon="6.51638">
        <ele>1558</ele>
      </trkpt>
      <trkpt lat="44.02041" lon="6.5164">
        <ele>1558</ele>
      </trkpt>
      <trkpt lat="44.02035" lon="6.51645">
        <ele>1559</ele>
      </trkpt>
      <trkpt lat="44.02027" lon="6.5165">
        <ele>1560</ele>
      </trkpt>
      <trkpt lat="44.02017" lon="6.51652">
        <ele>1560</ele>
      </trkpt>
      <trkpt lat="44.02007" lon="6.51651">
        <ele>1559</ele>
      </trkpt>
      <trkpt lat="44.01998" lon="6.51651">
        <ele>1559</ele>
      </trkpt>
      <trkpt lat="44.01984" lon="6.5165">
        <ele>1558</ele>
      </trkpt>
      <trkpt lat="44.01959" lon="6.51647">
        <ele>1557</ele>
      </trkpt>
      <trkpt lat="44.01938" lon="6.51645">
        <ele>1555</ele>
      </trkpt>
      <trkpt lat="44.01919" lon="6.51641">
        <ele>1553</ele>
      </trkpt>
      <trkpt lat="44.01906" lon="6.51635">
        <ele>1552</ele>
      </trkpt>
      <trkpt lat="44.01894" lon="6.51631">
        <ele>1551</ele>
      </trkpt>
      <trkpt lat="44.01891" lon="6.51638">
        <ele>1552</ele>
      </trkpt>
      <trkpt lat="44.01887" lon="6.5163">
        <ele>1551</ele>
      </trkpt>
      <trkpt lat="44.01888" lon="6.5164">
        <ele>1553</ele>
      </trkpt>
      <trkpt lat="44.01879" lon="6.51636">
        <ele>1552</ele>
      </trkpt>
      <trkpt lat="44.01869" lon="6.51637">
        <ele>1552</ele>
      </trkpt>
      <trkpt lat="44.01861" lon="6.51624">
        <ele>1550</ele>
      </trkpt>
      <trkpt lat="44.01856" lon="6.51618">
        <ele>1549</ele>
      </trkpt>
      <trkpt lat="44.01852" lon="6.51612">
        <ele>1548</ele>
      </trkpt>
      <trkpt lat="44.01847" lon="6.51607">
        <ele>1548</ele>
      </trkpt>
      <trkpt lat="44.01844" lon="6.516">
        <ele>1547</ele>
      </trkpt>
      <trkpt lat="44.01838" lon="6.51596">
        <ele>1546</ele>
      </trkpt>
      <trkpt lat="44.01832" lon="6.51591">
        <ele>1546</ele>
      </trkpt>
      <trkpt lat="44.01824" lon="6.51588">
        <ele>1546</ele>
      </trkpt>
      <trkpt lat="44.01816" lon="6.51586">
        <ele>1548</ele>
      </trkpt>
      <trkpt lat="44.01806" lon="6.51584">
        <ele>1549</ele>
      </trkpt>
      <trkpt lat="44.01795" lon="6.51583">
        <ele>1551</ele>
      </trkpt>
      <trkpt lat="44.01786" lon="6.51582">
        <ele>1553</ele>
      </trkpt>
      <trkpt lat="44.01774" lon="6.51585">
        <ele>1555</ele>
      </trkpt>
      <trkpt lat="44.01767" lon="6.51587">
        <ele>1556</ele>
      </trkpt>
      <trkpt lat="44.01761" lon="6.51592">
        <ele>1558</ele>
      </trkpt>
      <trkpt lat="44.01755" lon="6.51598">
        <ele>1559</ele>
      </trkpt>
      <trkpt lat="44.01744" lon="6.51606">
        <ele>1562</ele>
      </trkpt>
      <trkpt lat="44.01739" lon="6.51611">
        <ele>1564</ele>
      </trkpt>
      <trkpt lat="44.01732" lon="6.51622">
        <ele>1566</ele>
      </trkpt>
      <trkpt lat="44.01728" lon="6.51629">
        <ele>1567</ele>
      </trkpt>
      <trkpt lat="44.01721" lon="6.51639">
        <ele>1568</ele>
      </trkpt>
      <trkpt lat="44.01718" lon="6.51646">
        <ele>1569</ele>
      </trkpt>
      <trkpt lat="44.01714" lon="6.51652">
        <ele>1570</ele>
      </trkpt>
      <trkpt lat="44.01704" lon="6.51659">
        <ele>1572</ele>
      </trkpt>
      <trkpt lat="44.01692" lon="6.51666">
        <ele>1574</ele>
      </trkpt>
      <trkpt lat="44.01686" lon="6.5167">
        <ele>1575</ele>
      </trkpt>
      <trkpt lat="44.01674" lon="6.51676">
        <ele>1576</ele>
      </trkpt>
      <trkpt lat="44.01667" lon="6.51678">
        <ele>1577</ele>
      </trkpt>
      <trkpt lat="44.01656" lon="6.51685">
        <ele>1577</ele>
      </trkpt>
      <trkpt lat="44.01646" lon="6.51691">
        <ele>1578</ele>
      </trkpt>
      <trkpt lat="44.01636" lon="6.51697">
        <ele>1578</ele>
      </trkpt>
      <trkpt lat="44.01626" lon="6.51704">
        <ele>1577</ele>
      </trkpt>
      <trkpt lat="44.01619" lon="6.51716">
        <ele>1577</ele>
      </trkpt>
      <trkpt lat="44.01618" lon="6.51724">
        <ele>1577</ele>
      </trkpt>
      <trkpt lat="44.0162" lon="6.51738">
        <ele>1579</ele>
      </trkpt>
      <trkpt lat="44.01622" lon="6.51749">
        <ele>1581</ele>
      </trkpt>
      <trkpt lat="44.01624" lon="6.51758">
        <ele>1583</ele>
      </trkpt>
      <trkpt lat="44.01626" lon="6.51768">
        <ele>1584</ele>
      </trkpt>
      <trkpt lat="44.01628" lon="6.51781">
        <ele>1586</ele>
      </trkpt>
      <trkpt lat="44.01626" lon="6.51794">
        <ele>1587</ele>
      </trkpt>
      <trkpt lat="44.01625" lon="6.51803">
        <ele>1588</ele>
      </trkpt>
      <trkpt lat="44.01624" lon="6.51812">
        <ele>1589</ele>
      </trkpt>
      <trkpt lat="44.01622" lon="6.51821">
        <ele>1590</ele>
      </trkpt>
      <trkpt lat="44.0162" lon="6.51828">
        <ele>1590</ele>
      </trkpt>
      <trkpt lat="44.01615" lon="6.51834">
        <ele>1590</ele>
      </trkpt>
      <trkpt lat="44.0161" lon="6.51849">
        <ele>1590</ele>
      </trkpt>
      <trkpt lat="44.01608" lon="6.5186">
        <ele>1591</ele>
      </trkpt>
      <trkpt lat="44.01606" lon="6.51869">
        <ele>1592</ele>
      </trkpt>
      <trkpt lat="44.01607" lon="6.51878">
        <ele>1593</ele>
      </trkpt>
      <trkpt lat="44.01604" lon="6.51895">
        <ele>1594</ele>
      </trkpt>
      <trkpt lat="44.01601" lon="6.51904">
        <ele>1595</ele>
      </trkpt>
      <trkpt lat="44.016" lon="6.51913">
        <ele>1596</ele>
      </trkpt>
      <trkpt lat="44.01596" lon="6.5192">
        <ele>1596</ele>
      </trkpt>
      <trkpt lat="44.01593" lon="6.51928">
        <ele>1596</ele>
      </trkpt>
      <trkpt lat="44.01594" lon="6.51936">
        <ele>1596</ele>
      </trkpt>
      <trkpt lat="44.01595" lon="6.51944">
        <ele>1596</ele>
      </trkpt>
      <trkpt lat="44.01596" lon="6.51959">
        <ele>1596</ele>
      </trkpt>
      <trkpt lat="44.01599" lon="6.51967">
        <ele>1597</ele>
      </trkpt>
      <trkpt lat="44.01601" lon="6.51976">
        <ele>1598</ele>
      </trkpt>
      <trkpt lat="44.01603" lon="6.51984">
        <ele>1599</ele>
      </trkpt>
      <trkpt lat="44.01607" lon="6.51991">
        <ele>1600</ele>
      </trkpt>
      <trkpt lat="44.0161" lon="6.52001">
        <ele>1602</ele>
      </trkpt>
      <trkpt lat="44.01612" lon="6.52009">
        <ele>1603</ele>
      </trkpt>
      <trkpt lat="44.01614" lon="6.52017">
        <ele>1603</ele>
      </trkpt>
      <trkpt lat="44.01614" lon="6.52027">
        <ele>1603</ele>
      </trkpt>
      <trkpt lat="44.01614" lon="6.52036">
        <ele>1604</ele>
      </trkpt>
      <trkpt lat="44.01614" lon="6.52046">
        <ele>1604</ele>
      </trkpt>
      <trkpt lat="44.01612" lon="6.52057">
        <ele>1605</ele>
      </trkpt>
      <trkpt lat="44.01611" lon="6.52068">
        <ele>1606</ele>
      </trkpt>
      <trkpt lat="44.01609" lon="6.52077">
        <ele>1607</ele>
      </trkpt>
      <trkpt lat="44.01607" lon="6.52083">
        <ele>1608</ele>
      </trkpt>
      <trkpt lat="44.01603" lon="6.52095">
        <ele>1609</ele>
      </trkpt>
      <trkpt lat="44.016" lon="6.52103">
        <ele>1609</ele>
      </trkpt>
      <trkpt lat="44.01599" lon="6.52113">
        <ele>1610</ele>
      </trkpt>
      <trkpt lat="44.01596" lon="6.5212">
        <ele>1610</ele>
      </trkpt>
      <trkpt lat="44.01595" lon="6.52128">
        <ele>1611</ele>
      </trkpt>
      <trkpt lat="44.01595" lon="6.52137">
        <ele>1613</ele>
      </trkpt>
      <trkpt lat="44.01596" lon="6.52148">
        <ele>1614</ele>
      </trkpt>
      <trkpt lat="44.01594" lon="6.52155">
        <ele>1614</ele>
      </trkpt>
      <trkpt lat="44.01593" lon="6.52162">
        <ele>1615</ele>
      </trkpt>
      <trkpt lat="44.01592" lon="6.52171">
        <ele>1616</ele>
      </trkpt>
      <trkpt lat="44.0159" lon="6.52179">
        <ele>1616</ele>
      </trkpt>
      <trkpt lat="44.01589" lon="6.52188">
        <ele>1618</ele>
      </trkpt>
      <trkpt lat="44.01587" lon="6.52197">
        <ele>1619</ele>
      </trkpt>
      <trkpt lat="44.01586" lon="6.5221">
        <ele>1622</ele>
      </trkpt>
      <trkpt lat="44.01589" lon="6.52223">
        <ele>1626</ele>
      </trkpt>
      <trkpt lat="44.01589" lon="6.52232">
        <ele>1628</ele>
      </trkpt>
      <trkpt lat="44.01585" lon="6.52238">
        <ele>1627</ele>
      </trkpt>
      <trkpt lat="44.01576" lon="6.5224">
        <ele>1625</ele>
      </trkpt>
      <trkpt lat="44.01563" lon="6.5224">
        <ele>1624</ele>
      </trkpt>
      <trkpt lat="44.01556" lon="6.52239">
        <ele>1624</ele>
      </trkpt>
      <trkpt lat="44.01542" lon="6.52244">
        <ele>1626</ele>
      </trkpt>
      <trkpt lat="44.01529" lon="6.52249">
        <ele>1628</ele>
      </trkpt>
      <trkpt lat="44.01522" lon="6.52253">
        <ele>1629</ele>
      </trkpt>
      <trkpt lat="44.01516" lon="6.52257">
        <ele>1630</ele>
      </trkpt>
      <trkpt lat="44.0151" lon="6.52261">
        <ele>1631</ele>
      </trkpt>
      <trkpt lat="44.015" lon="6.52269">
        <ele>1633</ele>
      </trkpt>
      <trkpt lat="44.01494" lon="6.5228">
        <ele>1637</ele>
      </trkpt>
      <trkpt lat="44.01486" lon="6.52291">
        <ele>1639</ele>
      </trkpt>
      <trkpt lat="44.01482" lon="6.52298">
        <ele>1639</ele>
      </trkpt>
      <trkpt lat="44.0148" lon="6.52307">
        <ele>1640</ele>
      </trkpt>
      <trkpt lat="44.01478" lon="6.52314">
        <ele>1641</ele>
      </trkpt>
      <trkpt lat="44.01476" lon="6.52321">
        <ele>1642</ele>
      </trkpt>
      <trkpt lat="44.01473" lon="6.5233">
        <ele>1643</ele>
      </trkpt>
      <trkpt lat="44.01471" lon="6.52337">
        <ele>1643</ele>
      </trkpt>
      <trkpt lat="44.01469" lon="6.52346">
        <ele>1645</ele>
      </trkpt>
      <trkpt lat="44.01467" lon="6.52353">
        <ele>1646</ele>
      </trkpt>
      <trkpt lat="44.01465" lon="6.5236">
        <ele>1647</ele>
      </trkpt>
      <trkpt lat="44.0146" lon="6.52371">
        <ele>1648</ele>
      </trkpt>
      <trkpt lat="44.0145" lon="6.52373">
        <ele>1645</ele>
      </trkpt>
      <trkpt lat="44.01442" lon="6.52366">
        <ele>1641</ele>
      </trkpt>
      <trkpt lat="44.01435" lon="6.52361">
        <ele>1638</ele>
      </trkpt>
      <trkpt lat="44.0143" lon="6.52357">
        <ele>1638</ele>
      </trkpt>
      <trkpt lat="44.01425" lon="6.52352">
        <ele>1637</ele>
      </trkpt>
      <trkpt lat="44.01415" lon="6.52343">
        <ele>1636</ele>
      </trkpt>
      <trkpt lat="44.01404" lon="6.52338">
        <ele>1637</ele>
      </trkpt>
      <trkpt lat="44.01394" lon="6.52334">
        <ele>1637</ele>
      </trkpt>
      <trkpt lat="44.01384" lon="6.52332">
        <ele>1639</ele>
      </trkpt>
      <trkpt lat="44.01372" lon="6.52327">
        <ele>1640</ele>
      </trkpt>
      <trkpt lat="44.01362" lon="6.52325">
        <ele>1642</ele>
      </trkpt>
      <trkpt lat="44.01351" lon="6.52326">
        <ele>1645</ele>
      </trkpt>
      <trkpt lat="44.01339" lon="6.52324">
        <ele>1646</ele>
      </trkpt>
      <trkpt lat="44.01327" lon="6.52326">
        <ele>1648</ele>
      </trkpt>
      <trkpt lat="44.01316" lon="6.52327">
        <ele>1650</ele>
      </trkpt>
      <trkpt lat="44.01306" lon="6.5233">
        <ele>1652</ele>
      </trkpt>
      <trkpt lat="44.01296" lon="6.52333">
        <ele>1653</ele>
      </trkpt>
      <trkpt lat="44.013" lon="6.52331">
        <ele>1652</ele>
      </trkpt>
      <trkpt lat="44.01272" lon="6.52348">
        <ele>1658</ele>
      </trkpt>
      <trkpt lat="44.01268" lon="6.52349">
        <ele>1658</ele>
      </trkpt>
      <trkpt lat="44.01258" lon="6.52354">
        <ele>1660</ele>
      </trkpt>
      <trkpt lat="44.01254" lon="6.5236">
        <ele>1661</ele>
      </trkpt>
      <trkpt lat="44.01244" lon="6.52368">
        <ele>1662</ele>
      </trkpt>
      <trkpt lat="44.01235" lon="6.52379">
        <ele>1664</ele>
      </trkpt>
      <trkpt lat="44.01226" lon="6.52388">
        <ele>1666</ele>
      </trkpt>
      <trkpt lat="44.01216" lon="6.52396">
        <ele>1667</ele>
      </trkpt>
      <trkpt lat="44.0121" lon="6.524">
        <ele>1668</ele>
      </trkpt>
      <trkpt lat="44.01204" lon="6.52403">
        <ele>1668</ele>
      </trkpt>
      <trkpt lat="44.01197" lon="6.52404">
        <ele>1668</ele>
      </trkpt>
      <trkpt lat="44.01189" lon="6.52415">
        <ele>1670</ele>
      </trkpt>
      <trkpt lat="44.01181" lon="6.52421">
        <ele>1671</ele>
      </trkpt>
      <trkpt lat="44.01172" lon="6.52414">
        <ele>1668</ele>
      </trkpt>
      <trkpt lat="44.01167" lon="6.52407">
        <ele>1665</ele>
      </trkpt>
      <trkpt lat="44.01161" lon="6.52399">
        <ele>1663</ele>
      </trkpt>
      <trkpt lat="44.01155" lon="6.52391">
        <ele>1662</ele>
      </trkpt>
      <trkpt lat="44.01147" lon="6.52386">
        <ele>1661</ele>
      </trkpt>
      <trkpt lat="44.01139" lon="6.5238">
        <ele>1661</ele>
      </trkpt>
      <trkpt lat="44.0113" lon="6.52376">
        <ele>1661</ele>
      </trkpt>
      <trkpt lat="44.01122" lon="6.52373">
        <ele>1662</ele>
      </trkpt>
      <trkpt lat="44.01112" lon="6.52373">
        <ele>1664</ele>
      </trkpt>
      <trkpt lat="44.01102" lon="6.52371">
        <ele>1665</ele>
      </trkpt>
      <trkpt lat="44.01091" lon="6.52367">
        <ele>1666</ele>
      </trkpt>
      <trkpt lat="44.01082" lon="6.52364">
        <ele>1667</ele>
      </trkpt>
      <trkpt lat="44.01073" lon="6.52362">
        <ele>1669</ele>
      </trkpt>
      <trkpt lat="44.01064" lon="6.52359">
        <ele>1670</ele>
      </trkpt>
      <trkpt lat="44.01054" lon="6.52356">
        <ele>1671</ele>
      </trkpt>
      <trkpt lat="44.01044" lon="6.52353">
        <ele>1672</ele>
      </trkpt>
      <trkpt lat="44.01036" lon="6.5235">
        <ele>1672</ele>
      </trkpt>
      <trkpt lat="44.01028" lon="6.52347">
        <ele>1673</ele>
      </trkpt>
      <trkpt lat="44.01021" lon="6.52344">
        <ele>1673</ele>
      </trkpt>
      <trkpt lat="44.01014" lon="6.52339">
        <ele>1673</ele>
      </trkpt>
      <trkpt lat="44.01007" lon="6.52337">
        <ele>1673</ele>
      </trkpt>
      <trkpt lat="44.00997" lon="6.52331">
        <ele>1673</ele>
      </trkpt>
      <trkpt lat="44.00988" lon="6.5233">
        <ele>1675</ele>
      </trkpt>
      <trkpt lat="44.00978" lon="6.52327">
        <ele>1675</ele>
      </trkpt>
      <trkpt lat="44.00971" lon="6.52323">
        <ele>1675</ele>
      </trkpt>
      <trkpt lat="44.00962" lon="6.52315">
        <ele>1674</ele>
      </trkpt>
      <trkpt lat="44.00954" lon="6.52307">
        <ele>1673</ele>
      </trkpt>
      <trkpt lat="44.00947" lon="6.52298">
        <ele>1672</ele>
      </trkpt>
      <trkpt lat="44.00939" lon="6.52291">
        <ele>1672</ele>
      </trkpt>
      <trkpt lat="44.00932" lon="6.52284">
        <ele>1672</ele>
      </trkpt>
      <trkpt lat="44.00924" lon="6.5228">
        <ele>1672</ele>
      </trkpt>
      <trkpt lat="44.00917" lon="6.52276">
        <ele>1672</ele>
      </trkpt>
      <trkpt lat="44.00909" lon="6.52272">
        <ele>1672</ele>
      </trkpt>
      <trkpt lat="44.00899" lon="6.52269">
        <ele>1673</ele>
      </trkpt>
      <trkpt lat="44.00891" lon="6.52266">
        <ele>1674</ele>
      </trkpt>
      <trkpt lat="44.00882" lon="6.52264">
        <ele>1675</ele>
      </trkpt>
      <trkpt lat="44.00873" lon="6.5226">
        <ele>1676</ele>
      </trkpt>
      <trkpt lat="44.00861" lon="6.52254">
        <ele>1677</ele>
      </trkpt>
      <trkpt lat="44.0085" lon="6.52249">
        <ele>1678</ele>
      </trkpt>
      <trkpt lat="44.00838" lon="6.52244">
        <ele>1678</ele>
      </trkpt>
      <trkpt lat="44.00825" lon="6.52237">
        <ele>1678</ele>
      </trkpt>
      <trkpt lat="44.00815" lon="6.52232">
        <ele>1678</ele>
      </trkpt>
      <trkpt lat="44.00802" lon="6.52226">
        <ele>1678</ele>
      </trkpt>
      <trkpt lat="44.0079" lon="6.52221">
        <ele>1678</ele>
      </trkpt>
      <trkpt lat="44.00774" lon="6.52214">
        <ele>1678</ele>
      </trkpt>
      <trkpt lat="44.00766" lon="6.52217">
        <ele>1679</ele>
      </trkpt>
      <trkpt lat="44.00766" lon="6.52218">
        <ele>1679</ele>
      </trkpt>
      <trkpt lat="44.00722" lon="6.5219">
        <ele>1675</ele>
      </trkpt>
      <trkpt lat="44.00649" lon="6.52184">
        <ele>1670</ele>
      </trkpt>
      <trkpt lat="44.00594" lon="6.52194">
        <ele>1669</ele>
      </trkpt>
      <trkpt lat="44.00526" lon="6.52203">
        <ele>1664</ele>
      </trkpt>
      <trkpt lat="44.00487" lon="6.52223">
        <ele>1661</ele>
      </trkpt>
      <trkpt lat="44.00457" lon="6.52247">
        <ele>1659</ele>
      </trkpt>
      <trkpt lat="44.00434" lon="6.52243">
        <ele>1656</ele>
      </trkpt>
      <trkpt lat="44.00405" lon="6.5226">
        <ele>1654</ele>
      </trkpt>
      <trkpt lat="44.00402" lon="6.52257">
        <ele>1654</ele>
      </trkpt>
      <trkpt lat="44.00395" lon="6.52255">
        <ele>1653</ele>
      </trkpt>
      <trkpt lat="44.00391" lon="6.52253">
        <ele>1652</ele>
      </trkpt>
      <trkpt lat="44.00385" lon="6.52251">
        <ele>1651</ele>
      </trkpt>
      <trkpt lat="44.00377" lon="6.52251">
        <ele>1650</ele>
      </trkpt>
      <trkpt lat="44.0037" lon="6.5225">
        <ele>1649</ele>
      </trkpt>
      <trkpt lat="44.00364" lon="6.52247">
        <ele>1648</ele>
      </trkpt>
      <trkpt lat="44.00358" lon="6.52246">
        <ele>1647</ele>
      </trkpt>
      <trkpt lat="44.00351" lon="6.52244">
        <ele>1646</ele>
      </trkpt>
      <trkpt lat="44.00345" lon="6.52243">
        <ele>1645</ele>
      </trkpt>
      <trkpt lat="44.00341" lon="6.52239">
        <ele>1644</ele>
      </trkpt>
      <trkpt lat="44.00335" lon="6.52234">
        <ele>1643</ele>
      </trkpt>
      <trkpt lat="44.00326" lon="6.52227">
        <ele>1642</ele>
      </trkpt>
      <trkpt lat="44.00317" lon="6.52222">
        <ele>1640</ele>
      </trkpt>
      <trkpt lat="44.00307" lon="6.52219">
        <ele>1638</ele>
      </trkpt>
      <trkpt lat="44.00302" lon="6.52217">
        <ele>1637</ele>
      </trkpt>
      <trkpt lat="44.00289" lon="6.52213">
        <ele>1634</ele>
      </trkpt>
      <trkpt lat="44.0028" lon="6.52208">
        <ele>1632</ele>
      </trkpt>
      <trkpt lat="44.00269" lon="6.52202">
        <ele>1630</ele>
      </trkpt>
      <trkpt lat="44.00257" lon="6.52198">
        <ele>1627</ele>
      </trkpt>
      <trkpt lat="44.00246" lon="6.52196">
        <ele>1625</ele>
      </trkpt>
      <trkpt lat="44.00238" lon="6.52195">
        <ele>1623</ele>
      </trkpt>
      <trkpt lat="44.00228" lon="6.52194">
        <ele>1621</ele>
      </trkpt>
      <trkpt lat="44.00218" lon="6.52192">
        <ele>1618</ele>
      </trkpt>
      <trkpt lat="44.0021" lon="6.5219">
        <ele>1616</ele>
      </trkpt>
      <trkpt lat="44.00204" lon="6.52186">
        <ele>1614</ele>
      </trkpt>
      <trkpt lat="44.002" lon="6.52182">
        <ele>1612</ele>
      </trkpt>
      <trkpt lat="44.00193" lon="6.52178">
        <ele>1610</ele>
      </trkpt>
      <trkpt lat="44.00188" lon="6.52178">
        <ele>1609</ele>
      </trkpt>
      <trkpt lat="44.00183" lon="6.52176">
        <ele>1607</ele>
      </trkpt>
      <trkpt lat="44.00178" lon="6.52176">
        <ele>1606</ele>
      </trkpt>
      <trkpt lat="44.00174" lon="6.52172">
        <ele>1604</ele>
      </trkpt>
      <trkpt lat="44.00169" lon="6.52167">
        <ele>1602</ele>
      </trkpt>
      <trkpt lat="44.00163" lon="6.52158">
        <ele>1600</ele>
      </trkpt>
      <trkpt lat="44.00153" lon="6.52154">
        <ele>1597</ele>
      </trkpt>
      <trkpt lat="44.00142" lon="6.5215">
        <ele>1594</ele>
      </trkpt>
      <trkpt lat="44.00126" lon="6.52145">
        <ele>1589</ele>
      </trkpt>
      <trkpt lat="44.00114" lon="6.52145">
        <ele>1584</ele>
      </trkpt>
      <trkpt lat="44.00102" lon="6.52148">
        <ele>1578</ele>
      </trkpt>
      <trkpt lat="44.00093" lon="6.52149">
        <ele>1575</ele>
      </trkpt>
      <trkpt lat="44.00083" lon="6.52152">
        <ele>1571</ele>
      </trkpt>
      <trkpt lat="44.00076" lon="6.52151">
        <ele>1569</ele>
      </trkpt>
      <trkpt lat="44.00069" lon="6.52148">
        <ele>1567</ele>
      </trkpt>
      <trkpt lat="44.00063" lon="6.52145">
        <ele>1566</ele>
      </trkpt>
      <trkpt lat="44.00053" lon="6.52141">
        <ele>1564</ele>
      </trkpt>
      <trkpt lat="44.00045" lon="6.52135">
        <ele>1563</ele>
      </trkpt>
      <trkpt lat="44.00039" lon="6.52132">
        <ele>1562</ele>
      </trkpt>
      <trkpt lat="44.00034" lon="6.5213">
        <ele>1561</ele>
      </trkpt>
      <trkpt lat="44.00024" lon="6.5213">
        <ele>1559</ele>
      </trkpt>
      <trkpt lat="44.00015" lon="6.5213">
        <ele>1556</ele>
      </trkpt>
      <trkpt lat="44" lon="6.52121">
        <ele>1555</ele>
      </trkpt>
      <trkpt lat="43.99987" lon="6.52115">
        <ele>1552</ele>
      </trkpt>
      <trkpt lat="43.99977" lon="6.52112">
        <ele>1549</ele>
      </trkpt>
      <trkpt lat="43.99969" lon="6.52105">
        <ele>1547</ele>
      </trkpt>
      <trkpt lat="43.99963" lon="6.521">
        <ele>1545</ele>
      </trkpt>
      <trkpt lat="43.99959" lon="6.52095">
        <ele>1545</ele>
      </trkpt>
      <trkpt lat="43.99961" lon="6.52089">
        <ele>1546</ele>
      </trkpt>
      <trkpt lat="43.99968" lon="6.5208">
        <ele>1549</ele>
      </trkpt>
      <trkpt lat="43.99976" lon="6.52072">
        <ele>1552</ele>
      </trkpt>
      <trkpt lat="43.99981" lon="6.52065">
        <ele>1553</ele>
      </trkpt>
      <trkpt lat="43.99987" lon="6.52058">
        <ele>1554</ele>
      </trkpt>
      <trkpt lat="43.99995" lon="6.52051">
        <ele>1555</ele>
      </trkpt>
      <trkpt lat="44.00004" lon="6.5204">
        <ele>1553</ele>
      </trkpt>
      <trkpt lat="44.00011" lon="6.52033">
        <ele>1552</ele>
      </trkpt>
      <trkpt lat="44.00018" lon="6.52029">
        <ele>1551</ele>
      </trkpt>
      <trkpt lat="44.00024" lon="6.52026">
        <ele>1551</ele>
      </trkpt>
      <trkpt lat="44.00029" lon="6.52025">
        <ele>1551</ele>
      </trkpt>
      <trkpt lat="44.00032" lon="6.52021">
        <ele>1550</ele>
      </trkpt>
      <trkpt lat="44.0004" lon="6.52018">
        <ele>1550</ele>
      </trkpt>
      <trkpt lat="44.00046" lon="6.52016">
        <ele>1549</ele>
      </trkpt>
      <trkpt lat="44.00051" lon="6.52013">
        <ele>1549</ele>
      </trkpt>
      <trkpt lat="44.00057" lon="6.52009">
        <ele>1548</ele>
      </trkpt>
      <trkpt lat="44.00063" lon="6.52006">
        <ele>1548</ele>
      </trkpt>
      <trkpt lat="44.00068" lon="6.52003">
        <ele>1547</ele>
      </trkpt>
      <trkpt lat="44.0006" lon="6.52005">
        <ele>1547</ele>
      </trkpt>
      <trkpt lat="44.00054" lon="6.52003">
        <ele>1546</ele>
      </trkpt>
      <trkpt lat="44.00045" lon="6.52002">
        <ele>1546</ele>
      </trkpt>
      <trkpt lat="44.00034" lon="6.51997">
        <ele>1544</ele>
      </trkpt>
      <trkpt lat="44.0002" lon="6.51991">
        <ele>1541</ele>
      </trkpt>
      <trkpt lat="44.00005" lon="6.51985">
        <ele>1539</ele>
      </trkpt>
      <trkpt lat="43.99987" lon="6.51982">
        <ele>1537</ele>
      </trkpt>
      <trkpt lat="43.99968" lon="6.5198">
        <ele>1536</ele>
      </trkpt>
      <trkpt lat="43.99951" lon="6.51979">
        <ele>1534</ele>
      </trkpt>
      <trkpt lat="43.99935" lon="6.5198">
        <ele>1533</ele>
      </trkpt>
      <trkpt lat="43.99921" lon="6.51982">
        <ele>1533</ele>
      </trkpt>
      <trkpt lat="43.99911" lon="6.5198">
        <ele>1530</ele>
      </trkpt>
      <trkpt lat="43.9991" lon="6.51972">
        <ele>1527</ele>
      </trkpt>
      <trkpt lat="43.99914" lon="6.51964">
        <ele>1525</ele>
      </trkpt>
      <trkpt lat="43.99923" lon="6.51964">
        <ele>1526</ele>
      </trkpt>
      <trkpt lat="43.99932" lon="6.51963">
        <ele>1527</ele>
      </trkpt>
      <trkpt lat="43.99943" lon="6.51962">
        <ele>1528</ele>
      </trkpt>
      <trkpt lat="43.99956" lon="6.51959">
        <ele>1528</ele>
      </trkpt>
      <trkpt lat="43.99968" lon="6.51955">
        <ele>1527</ele>
      </trkpt>
      <trkpt lat="43.99979" lon="6.51949">
        <ele>1526</ele>
      </trkpt>
      <trkpt lat="43.99988" lon="6.51943">
        <ele>1524</ele>
      </trkpt>
      <trkpt lat="43.99995" lon="6.51939">
        <ele>1523</ele>
      </trkpt>
      <trkpt lat="43.99993" lon="6.51938">
        <ele>1523</ele>
      </trkpt>
      <trkpt lat="43.99988" lon="6.51934">
        <ele>1521</ele>
      </trkpt>
      <trkpt lat="43.99977" lon="6.51925">
        <ele>1517</ele>
      </trkpt>
      <trkpt lat="43.99969" lon="6.51918">
        <ele>1514</ele>
      </trkpt>
      <trkpt lat="43.99958" lon="6.51915">
        <ele>1511</ele>
      </trkpt>
      <trkpt lat="43.99946" lon="6.51913">
        <ele>1509</ele>
      </trkpt>
      <trkpt lat="43.99936" lon="6.51912">
        <ele>1508</ele>
      </trkpt>
      <trkpt lat="43.99926" lon="6.51912">
        <ele>1507</ele>
      </trkpt>
      <trkpt lat="43.99919" lon="6.51912">
        <ele>1506</ele>
      </trkpt>
      <trkpt lat="43.99912" lon="6.5191">
        <ele>1504</ele>
      </trkpt>
      <trkpt lat="43.99907" lon="6.51909">
        <ele>1502</ele>
      </trkpt>
      <trkpt lat="43.99899" lon="6.51908">
        <ele>1501</ele>
      </trkpt>
      <trkpt lat="43.9989" lon="6.5191">
        <ele>1500</ele>
      </trkpt>
      <trkpt lat="43.99881" lon="6.51914">
        <ele>1500</ele>
      </trkpt>
      <trkpt lat="43.99874" lon="6.51919">
        <ele>1500</ele>
      </trkpt>
      <trkpt lat="43.99867" lon="6.51921">
        <ele>1498</ele>
      </trkpt>
      <trkpt lat="43.99859" lon="6.51923">
        <ele>1496</ele>
      </trkpt>
      <trkpt lat="43.9985" lon="6.51926">
        <ele>1494</ele>
      </trkpt>
      <trkpt lat="43.99842" lon="6.5193">
        <ele>1492</ele>
      </trkpt>
      <trkpt lat="43.99836" lon="6.51933">
        <ele>1491</ele>
      </trkpt>
      <trkpt lat="43.99828" lon="6.51943">
        <ele>1490</ele>
      </trkpt>
      <trkpt lat="43.99818" lon="6.51951">
        <ele>1488</ele>
      </trkpt>
      <trkpt lat="43.99811" lon="6.51962">
        <ele>1486</ele>
      </trkpt>
      <trkpt lat="43.99806" lon="6.51974">
        <ele>1486</ele>
      </trkpt>
      <trkpt lat="43.99801" lon="6.51983">
        <ele>1484</ele>
      </trkpt>
      <trkpt lat="43.99795" lon="6.51996">
        <ele>1482</ele>
      </trkpt>
      <trkpt lat="43.99789" lon="6.52004">
        <ele>1479</ele>
      </trkpt>
      <trkpt lat="43.99784" lon="6.52015">
        <ele>1476</ele>
      </trkpt>
      <trkpt lat="43.99785" lon="6.52024">
        <ele>1478</ele>
      </trkpt>
      <trkpt lat="43.99784" lon="6.5203">
        <ele>1478</ele>
      </trkpt>
      <trkpt lat="43.99782" lon="6.52037">
        <ele>1478</ele>
      </trkpt>
      <trkpt lat="43.99782" lon="6.52042">
        <ele>1476</ele>
      </trkpt>
      <trkpt lat="43.99777" lon="6.52041">
        <ele>1473</ele>
      </trkpt>
      <trkpt lat="43.99776" lon="6.52032">
        <ele>1473</ele>
      </trkpt>
      <trkpt lat="43.99773" lon="6.52021">
        <ele>1471</ele>
      </trkpt>
      <trkpt lat="43.99766" lon="6.52011">
        <ele>1467</ele>
      </trkpt>
      <trkpt lat="43.99756" lon="6.52009">
        <ele>1461</ele>
      </trkpt>
      <trkpt lat="43.99746" lon="6.5201">
        <ele>1456</ele>
      </trkpt>
      <trkpt lat="43.9974" lon="6.52011">
        <ele>1453</ele>
      </trkpt>
      <trkpt lat="43.99731" lon="6.52014">
        <ele>1449</ele>
      </trkpt>
      <trkpt lat="43.99717" lon="6.52017">
        <ele>1443</ele>
      </trkpt>
      <trkpt lat="43.99702" lon="6.52021">
        <ele>1436</ele>
      </trkpt>
      <trkpt lat="43.9969" lon="6.52024">
        <ele>1431</ele>
      </trkpt>
      <trkpt lat="43.9968" lon="6.52027">
        <ele>1427</ele>
      </trkpt>
      <trkpt lat="43.99669" lon="6.52027">
        <ele>1423</ele>
      </trkpt>
      <trkpt lat="43.9966" lon="6.52023">
        <ele>1421</ele>
      </trkpt>
      <trkpt lat="43.99648" lon="6.52013">
        <ele>1420</ele>
      </trkpt>
      <trkpt lat="43.99637" lon="6.52001">
        <ele>1420</ele>
      </trkpt>
      <trkpt lat="43.99628" lon="6.51992">
        <ele>1419</ele>
      </trkpt>
      <trkpt lat="43.9962" lon="6.51987">
        <ele>1417</ele>
      </trkpt>
      <trkpt lat="43.99607" lon="6.51987">
        <ele>1412</ele>
      </trkpt>
      <trkpt lat="43.99594" lon="6.51988">
        <ele>1408</ele>
      </trkpt>
      <trkpt lat="43.99583" lon="6.51987">
        <ele>1404</ele>
      </trkpt>
      <trkpt lat="43.99572" lon="6.51985">
        <ele>1401</ele>
      </trkpt>
      <trkpt lat="43.99558" lon="6.51984">
        <ele>1397</ele>
      </trkpt>
      <trkpt lat="43.99542" lon="6.51981">
        <ele>1393</ele>
      </trkpt>
      <trkpt lat="43.99528" lon="6.51976">
        <ele>1392</ele>
      </trkpt>
      <trkpt lat="43.99513" lon="6.51973">
        <ele>1389</ele>
      </trkpt>
      <trkpt lat="43.995" lon="6.51968">
        <ele>1386</ele>
      </trkpt>
      <trkpt lat="43.99486" lon="6.51961">
        <ele>1384</ele>
      </trkpt>
      <trkpt lat="43.99474" lon="6.51948">
        <ele>1385</ele>
      </trkpt>
      <trkpt lat="43.99463" lon="6.5193">
        <ele>1386</ele>
      </trkpt>
      <trkpt lat="43.9945" lon="6.51911">
        <ele>1386</ele>
      </trkpt>
      <trkpt lat="43.99436" lon="6.51889">
        <ele>1387</ele>
      </trkpt>
      <trkpt lat="43.99425" lon="6.51869">
        <ele>1386</ele>
      </trkpt>
      <trkpt lat="43.99411" lon="6.51853">
        <ele>1383</ele>
      </trkpt>
      <trkpt lat="43.99399" lon="6.51839">
        <ele>1381</ele>
      </trkpt>
      <trkpt lat="43.99386" lon="6.51834">
        <ele>1377</ele>
      </trkpt>
      <trkpt lat="43.99373" lon="6.51831">
        <ele>1373</ele>
      </trkpt>
      <trkpt lat="43.99359" lon="6.5183">
        <ele>1368</ele>
      </trkpt>
      <trkpt lat="43.99345" lon="6.51824">
        <ele>1365</ele>
      </trkpt>
      <trkpt lat="43.99331" lon="6.51817">
        <ele>1362</ele>
      </trkpt>
      <trkpt lat="43.99323" lon="6.51812">
        <ele>1360</ele>
      </trkpt>
      <trkpt lat="43.99328" lon="6.51812">
        <ele>1362</ele>
      </trkpt>
      <trkpt lat="43.9933" lon="6.51815">
        <ele>1362</ele>
      </trkpt>
      <trkpt lat="43.99334" lon="6.51823">
        <ele>1361</ele>
      </trkpt>
      <trkpt lat="43.99339" lon="6.51833">
        <ele>1360</ele>
      </trkpt>
      <trkpt lat="43.99344" lon="6.51841">
        <ele>1359</ele>
      </trkpt>
      <trkpt lat="43.99334" lon="6.51842">
        <ele>1355</ele>
      </trkpt>
      <trkpt lat="43.99326" lon="6.51838">
        <ele>1353</ele>
      </trkpt>
      <trkpt lat="43.99328" lon="6.51844">
        <ele>1352</ele>
      </trkpt>
      <trkpt lat="43.9933" lon="6.51854">
        <ele>1350</ele>
      </trkpt>
      <trkpt lat="43.99334" lon="6.51862">
        <ele>1349</ele>
      </trkpt>
      <trkpt lat="43.99327" lon="6.51862">
        <ele>1346</ele>
      </trkpt>
      <trkpt lat="43.99315" lon="6.51858">
        <ele>1342</ele>
      </trkpt>
      <trkpt lat="43.9932" lon="6.51864">
        <ele>1343</ele>
      </trkpt>
      <trkpt lat="43.99323" lon="6.51871">
        <ele>1342</ele>
      </trkpt>
      <trkpt lat="43.99321" lon="6.51876">
        <ele>1339</ele>
      </trkpt>
      <trkpt lat="43.99315" lon="6.51877">
        <ele>1336</ele>
      </trkpt>
      <trkpt lat="43.99307" lon="6.51873">
        <ele>1334</ele>
      </trkpt>
      <trkpt lat="43.99312" lon="6.51887">
        <ele>1331</ele>
      </trkpt>
      <trkpt lat="43.99307" lon="6.51887">
        <ele>1329</ele>
      </trkpt>
      <trkpt lat="43.993" lon="6.51885">
        <ele>1327</ele>
      </trkpt>
      <trkpt lat="43.99288" lon="6.51878">
        <ele>1324</ele>
      </trkpt>
      <trkpt lat="43.99278" lon="6.51873">
        <ele>1323</ele>
      </trkpt>
      <trkpt lat="43.99271" lon="6.51871">
        <ele>1321</ele>
      </trkpt>
      <trkpt lat="43.99268" lon="6.51867">
        <ele>1321</ele>
      </trkpt>
      <trkpt lat="43.99254" lon="6.51863">
        <ele>1317</ele>
      </trkpt>
      <trkpt lat="43.99242" lon="6.51857">
        <ele>1315</ele>
      </trkpt>
      <trkpt lat="43.99229" lon="6.51849">
        <ele>1313</ele>
      </trkpt>
      <trkpt lat="43.99217" lon="6.51839">
        <ele>1312</ele>
      </trkpt>
      <trkpt lat="43.99204" lon="6.51824">
        <ele>1312</ele>
      </trkpt>
      <trkpt lat="43.9919" lon="6.5181">
        <ele>1311</ele>
      </trkpt>
      <trkpt lat="43.99176" lon="6.51797">
        <ele>1310</ele>
      </trkpt>
      <trkpt lat="43.99163" lon="6.51787">
        <ele>1307</ele>
      </trkpt>
      <trkpt lat="43.99152" lon="6.51775">
        <ele>1305</ele>
      </trkpt>
      <trkpt lat="43.99141" lon="6.51758">
        <ele>1304</ele>
      </trkpt>
      <trkpt lat="43.99126" lon="6.51742">
        <ele>1301</ele>
      </trkpt>
      <trkpt lat="43.99112" lon="6.51724">
        <ele>1297</ele>
      </trkpt>
      <trkpt lat="43.991" lon="6.51711">
        <ele>1294</ele>
      </trkpt>
      <trkpt lat="43.99096" lon="6.5171">
        <ele>1293</ele>
      </trkpt>
      <trkpt lat="43.99092" lon="6.51708">
        <ele>1292</ele>
      </trkpt>
      <trkpt lat="43.99089" lon="6.51708">
        <ele>1290</ele>
      </trkpt>
      <trkpt lat="43.99086" lon="6.51709">
        <ele>1289</ele>
      </trkpt>
      <trkpt lat="43.99086" lon="6.51715">
        <ele>1288</ele>
      </trkpt>
      <trkpt lat="43.99084" lon="6.51713">
        <ele>1288</ele>
      </trkpt>
      <trkpt lat="43.99086" lon="6.51711">
        <ele>1289</ele>
      </trkpt>
      <trkpt lat="43.99083" lon="6.51712">
        <ele>1288</ele>
      </trkpt>
      <trkpt lat="43.99086" lon="6.51712">
        <ele>1289</ele>
      </trkpt>
      <trkpt lat="43.99087" lon="6.51715">
        <ele>1289</ele>
      </trkpt>
      <trkpt lat="43.99089" lon="6.51721">
        <ele>1289</ele>
      </trkpt>
      <trkpt lat="43.9909" lon="6.51731">
        <ele>1288</ele>
      </trkpt>
      <trkpt lat="43.99094" lon="6.51742">
        <ele>1288</ele>
      </trkpt>
      <trkpt lat="43.99092" lon="6.51748">
        <ele>1285</ele>
      </trkpt>
      <trkpt lat="43.99083" lon="6.51745">
        <ele>1282</ele>
      </trkpt>
      <trkpt lat="43.99073" lon="6.51739">
        <ele>1280</ele>
      </trkpt>
      <trkpt lat="43.99068" lon="6.51736">
        <ele>1279</ele>
      </trkpt>
      <trkpt lat="43.99072" lon="6.51748">
        <ele>1276</ele>
      </trkpt>
      <trkpt lat="43.99077" lon="6.5176">
        <ele>1275</ele>
      </trkpt>
      <trkpt lat="43.99081" lon="6.51769">
        <ele>1274</ele>
      </trkpt>
      <trkpt lat="43.99085" lon="6.51779">
        <ele>1272</ele>
      </trkpt>
      <trkpt lat="43.99086" lon="6.51785">
        <ele>1271</ele>
      </trkpt>
      <trkpt lat="43.99078" lon="6.5178">
        <ele>1269</ele>
      </trkpt>
      <trkpt lat="43.99071" lon="6.51773">
        <ele>1268</ele>
      </trkpt>
      <trkpt lat="43.99061" lon="6.51767">
        <ele>1266</ele>
      </trkpt>
      <trkpt lat="43.99051" lon="6.51761">
        <ele>1264</ele>
      </trkpt>
      <trkpt lat="43.9904" lon="6.51751">
        <ele>1263</ele>
      </trkpt>
      <trkpt lat="43.99027" lon="6.51742">
        <ele>1261</ele>
      </trkpt>
      <trkpt lat="43.99013" lon="6.51735">
        <ele>1257</ele>
      </trkpt>
      <trkpt lat="43.99001" lon="6.51728">
        <ele>1254</ele>
      </trkpt>
      <trkpt lat="43.9899" lon="6.51725">
        <ele>1251</ele>
      </trkpt>
      <trkpt lat="43.98979" lon="6.5172">
        <ele>1247</ele>
      </trkpt>
      <trkpt lat="43.98965" lon="6.51716">
        <ele>1243</ele>
      </trkpt>
      <trkpt lat="43.98952" lon="6.51708">
        <ele>1241</ele>
      </trkpt>
      <trkpt lat="43.98938" lon="6.51698">
        <ele>1238</ele>
      </trkpt>
      <trkpt lat="43.98926" lon="6.5169">
        <ele>1237</ele>
      </trkpt>
      <trkpt lat="43.98918" lon="6.51686">
        <ele>1235</ele>
      </trkpt>
      <trkpt lat="43.98906" lon="6.51684">
        <ele>1232</ele>
      </trkpt>
      <trkpt lat="43.98893" lon="6.51676">
        <ele>1231</ele>
      </trkpt>
      <trkpt lat="43.98882" lon="6.51669">
        <ele>1230</ele>
      </trkpt>
      <trkpt lat="43.98871" lon="6.51662">
        <ele>1229</ele>
      </trkpt>
      <trkpt lat="43.98859" lon="6.51662">
        <ele>1226</ele>
      </trkpt>
      <trkpt lat="43.98846" lon="6.51664">
        <ele>1223</ele>
      </trkpt>
      <trkpt lat="43.9883" lon="6.51664">
        <ele>1220</ele>
      </trkpt>
      <trkpt lat="43.98813" lon="6.51665">
        <ele>1215</ele>
      </trkpt>
      <trkpt lat="43.98797" lon="6.51662">
        <ele>1212</ele>
      </trkpt>
      <trkpt lat="43.98781" lon="6.51657">
        <ele>1209</ele>
      </trkpt>
      <trkpt lat="43.98767" lon="6.51653">
        <ele>1207</ele>
      </trkpt>
      <trkpt lat="43.98754" lon="6.5165">
        <ele>1203</ele>
      </trkpt>
      <trkpt lat="43.98744" lon="6.51644">
        <ele>1202</ele>
      </trkpt>
      <trkpt lat="43.98741" lon="6.51637">
        <ele>1203</ele>
      </trkpt>
      <trkpt lat="43.98741" lon="6.51631">
        <ele>1205</ele>
      </trkpt>
      <trkpt lat="43.98742" lon="6.51625">
        <ele>1207</ele>
      </trkpt>
      <trkpt lat="43.98737" lon="6.51631">
        <ele>1203</ele>
      </trkpt>
      <trkpt lat="43.98729" lon="6.51629">
        <ele>1201</ele>
      </trkpt>
      <trkpt lat="43.98717" lon="6.51622">
        <ele>1199</ele>
      </trkpt>
      <trkpt lat="43.98707" lon="6.51616">
        <ele>1198</ele>
      </trkpt>
      <trkpt lat="43.98697" lon="6.51613">
        <ele>1196</ele>
      </trkpt>
      <trkpt lat="43.98691" lon="6.51608">
        <ele>1195</ele>
      </trkpt>
      <trkpt lat="43.98685" lon="6.51609">
        <ele>1193</ele>
      </trkpt>
      <trkpt lat="43.9868" lon="6.51603">
        <ele>1193</ele>
      </trkpt>
      <trkpt lat="43.98672" lon="6.51601">
        <ele>1191</ele>
      </trkpt>
      <trkpt lat="43.98665" lon="6.51598">
        <ele>1190</ele>
      </trkpt>
      <trkpt lat="43.98657" lon="6.51592">
        <ele>1189</ele>
      </trkpt>
      <trkpt lat="43.98648" lon="6.51588">
        <ele>1187</ele>
      </trkpt>
      <trkpt lat="43.98639" lon="6.51582">
        <ele>1186</ele>
      </trkpt>
      <trkpt lat="43.98634" lon="6.5158">
        <ele>1185</ele>
      </trkpt>
      <trkpt lat="43.98601" lon="6.51556">
        <ele>1178</ele>
      </trkpt>
      <trkpt lat="43.98594" lon="6.51552">
        <ele>1175</ele>
      </trkpt>
      <trkpt lat="43.98585" lon="6.51547">
        <ele>1173</ele>
      </trkpt>
      <trkpt lat="43.98575" lon="6.5154">
        <ele>1171</ele>
      </trkpt>
      <trkpt lat="43.98565" lon="6.51534">
        <ele>1169</ele>
      </trkpt>
      <trkpt lat="43.98548" lon="6.51526">
        <ele>1165</ele>
      </trkpt>
      <trkpt lat="43.98537" lon="6.51518">
        <ele>1164</ele>
      </trkpt>
      <trkpt lat="43.98526" lon="6.51511">
        <ele>1163</ele>
      </trkpt>
      <trkpt lat="43.98518" lon="6.51506">
        <ele>1162</ele>
      </trkpt>
      <trkpt lat="43.98511" lon="6.51504">
        <ele>1160</ele>
      </trkpt>
      <trkpt lat="43.98501" lon="6.51502">
        <ele>1158</ele>
      </trkpt>
      <trkpt lat="43.98491" lon="6.51497">
        <ele>1155</ele>
      </trkpt>
      <trkpt lat="43.98483" lon="6.51494">
        <ele>1152</ele>
      </trkpt>
      <trkpt lat="43.98474" lon="6.51495">
        <ele>1149</ele>
      </trkpt>
      <trkpt lat="43.9847" lon="6.5149">
        <ele>1148</ele>
      </trkpt>
      <trkpt lat="43.98469" lon="6.51485">
        <ele>1147</ele>
      </trkpt>
      <trkpt lat="43.98468" lon="6.51481">
        <ele>1147</ele>
      </trkpt>
      <trkpt lat="43.98442" lon="6.51463">
        <ele>1140</ele>
      </trkpt>
      <trkpt lat="43.98437" lon="6.51462">
        <ele>1138</ele>
      </trkpt>
      <trkpt lat="43.98436" lon="6.51455">
        <ele>1138</ele>
      </trkpt>
      <trkpt lat="43.98435" lon="6.51444">
        <ele>1139</ele>
      </trkpt>
      <trkpt lat="43.98438" lon="6.51435">
        <ele>1140</ele>
      </trkpt>
      <trkpt lat="43.98446" lon="6.51428">
        <ele>1141</ele>
      </trkpt>
      <trkpt lat="43.9846" lon="6.51425">
        <ele>1143</ele>
      </trkpt>
      <trkpt lat="43.98483" lon="6.51421">
        <ele>1145</ele>
      </trkpt>
      <trkpt lat="43.98499" lon="6.51421">
        <ele>1146</ele>
      </trkpt>
      <trkpt lat="43.98514" lon="6.51421">
        <ele>1147</ele>
      </trkpt>
      <trkpt lat="43.98531" lon="6.51417">
        <ele>1147</ele>
      </trkpt>
      <trkpt lat="43.98549" lon="6.51412">
        <ele>1148</ele>
      </trkpt>
      <trkpt lat="43.98562" lon="6.51397">
        <ele>1146</ele>
      </trkpt>
      <trkpt lat="43.98574" lon="6.51384">
        <ele>1146</ele>
      </trkpt>
      <trkpt lat="43.98582" lon="6.5137">
        <ele>1146</ele>
      </trkpt>
      <trkpt lat="43.98587" lon="6.51358">
        <ele>1145</ele>
      </trkpt>
      <trkpt lat="43.98587" lon="6.51347">
        <ele>1144</ele>
      </trkpt>
      <trkpt lat="43.98585" lon="6.51337">
        <ele>1143</ele>
      </trkpt>
      <trkpt lat="43.98583" lon="6.51327">
        <ele>1141</ele>
      </trkpt>
      <trkpt lat="43.9858" lon="6.51318">
        <ele>1140</ele>
      </trkpt>
      <trkpt lat="43.98578" lon="6.5131">
        <ele>1139</ele>
      </trkpt>
      <trkpt lat="43.98577" lon="6.51303">
        <ele>1138</ele>
      </trkpt>
      <trkpt lat="43.98576" lon="6.51297">
        <ele>1137</ele>
      </trkpt>
      <trkpt lat="43.98575" lon="6.5129">
        <ele>1137</ele>
      </trkpt>
      <trkpt lat="43.98575" lon="6.51283">
        <ele>1136</ele>
      </trkpt>
      <trkpt lat="43.98579" lon="6.51279">
        <ele>1137</ele>
      </trkpt>
      <trkpt lat="43.98591" lon="6.51246">
        <ele>1136</ele>
      </trkpt>
      <trkpt lat="43.9859" lon="6.51251">
        <ele>1137</ele>
      </trkpt>
      <trkpt lat="43.98598" lon="6.51247">
        <ele>1138</ele>
      </trkpt>
      <trkpt lat="43.98604" lon="6.51246">
        <ele>1139</ele>
      </trkpt>
      <trkpt lat="43.98609" lon="6.51245">
        <ele>1140</ele>
      </trkpt>
      <trkpt lat="43.98614" lon="6.51243">
        <ele>1140</ele>
      </trkpt>
      <trkpt lat="43.9862" lon="6.51242">
        <ele>1142</ele>
      </trkpt>
      <trkpt lat="43.98624" lon="6.51238">
        <ele>1142</ele>
      </trkpt>
      <trkpt lat="43.98628" lon="6.51234">
        <ele>1142</ele>
      </trkpt>
      <trkpt lat="43.98634" lon="6.5123">
        <ele>1143</ele>
      </trkpt>
      <trkpt lat="43.9864" lon="6.51227">
        <ele>1143</ele>
      </trkpt>
      <trkpt lat="43.98646" lon="6.51224">
        <ele>1144</ele>
      </trkpt>
      <trkpt lat="43.98653" lon="6.51221">
        <ele>1146</ele>
      </trkpt>
      <trkpt lat="43.9866" lon="6.51216">
        <ele>1147</ele>
      </trkpt>
      <trkpt lat="43.98667" lon="6.51211">
        <ele>1148</ele>
      </trkpt>
      <trkpt lat="43.98674" lon="6.51206">
        <ele>1149</ele>
      </trkpt>
      <trkpt lat="43.98682" lon="6.51202">
        <ele>1150</ele>
      </trkpt>
      <trkpt lat="43.98689" lon="6.51197">
        <ele>1150</ele>
      </trkpt>
      <trkpt lat="43.98696" lon="6.51191">
        <ele>1150</ele>
      </trkpt>
      <trkpt lat="43.98703" lon="6.51187">
        <ele>1151</ele>
      </trkpt>
      <trkpt lat="43.98709" lon="6.51182">
        <ele>1151</ele>
      </trkpt>
      <trkpt lat="43.98717" lon="6.51176">
        <ele>1151</ele>
      </trkpt>
      <trkpt lat="43.98724" lon="6.5117">
        <ele>1151</ele>
      </trkpt>
      <trkpt lat="43.98731" lon="6.51166">
        <ele>1152</ele>
      </trkpt>
      <trkpt lat="43.98738" lon="6.51161">
        <ele>1152</ele>
      </trkpt>
      <trkpt lat="43.98744" lon="6.51156">
        <ele>1152</ele>
      </trkpt>
      <trkpt lat="43.98751" lon="6.51153">
        <ele>1152</ele>
      </trkpt>
      <trkpt lat="43.98759" lon="6.5115">
        <ele>1152</ele>
      </trkpt>
      <trkpt lat="43.98766" lon="6.51147">
        <ele>1153</ele>
      </trkpt>
      <trkpt lat="43.98773" lon="6.51145">
        <ele>1153</ele>
      </trkpt>
      <trkpt lat="43.98779" lon="6.51143">
        <ele>1154</ele>
      </trkpt>
      <trkpt lat="43.98784" lon="6.51142">
        <ele>1154</ele>
      </trkpt>
      <trkpt lat="43.9879" lon="6.51139">
        <ele>1154</ele>
      </trkpt>
      <trkpt lat="43.98794" lon="6.51142">
        <ele>1156</ele>
      </trkpt>
      <trkpt lat="43.988" lon="6.51138">
        <ele>1155</ele>
      </trkpt>
      <trkpt lat="43.98808" lon="6.51137">
        <ele>1156</ele>
      </trkpt>
      <trkpt lat="43.98817" lon="6.51133">
        <ele>1156</ele>
      </trkpt>
      <trkpt lat="43.98822" lon="6.51131">
        <ele>1157</ele>
      </trkpt>
      <trkpt lat="43.98826" lon="6.51128">
        <ele>1156</ele>
      </trkpt>
      <trkpt lat="43.98831" lon="6.51126">
        <ele>1157</ele>
      </trkpt>
      <trkpt lat="43.98836" lon="6.51125">
        <ele>1157</ele>
      </trkpt>
      <trkpt lat="43.98841" lon="6.51125">
        <ele>1157</ele>
      </trkpt>
      <trkpt lat="43.98851" lon="6.51121">
        <ele>1157</ele>
      </trkpt>
      <trkpt lat="43.9886" lon="6.51121">
        <ele>1158</ele>
      </trkpt>
      <trkpt lat="43.98865" lon="6.51119">
        <ele>1158</ele>
      </trkpt>
      <trkpt lat="43.98871" lon="6.51116">
        <ele>1158</ele>
      </trkpt>
      <trkpt lat="43.98877" lon="6.51116">
        <ele>1158</ele>
      </trkpt>
      <trkpt lat="43.98884" lon="6.51114">
        <ele>1159</ele>
      </trkpt>
      <trkpt lat="43.9889" lon="6.51113">
        <ele>1159</ele>
      </trkpt>
      <trkpt lat="43.98897" lon="6.51114">
        <ele>1160</ele>
      </trkpt>
      <trkpt lat="43.98905" lon="6.51115">
        <ele>1161</ele>
      </trkpt>
      <trkpt lat="43.9891" lon="6.51116">
        <ele>1162</ele>
      </trkpt>
      <trkpt lat="43.98916" lon="6.51114">
        <ele>1162</ele>
      </trkpt>
      <trkpt lat="43.98924" lon="6.51114">
        <ele>1162</ele>
      </trkpt>
      <trkpt lat="43.9893" lon="6.51113">
        <ele>1163</ele>
      </trkpt>
      <trkpt lat="43.98937" lon="6.51113">
        <ele>1163</ele>
      </trkpt>
      <trkpt lat="43.98944" lon="6.51114">
        <ele>1164</ele>
      </trkpt>
      <trkpt lat="43.98952" lon="6.51118">
        <ele>1166</ele>
      </trkpt>
      <trkpt lat="43.98958" lon="6.5112">
        <ele>1167</ele>
      </trkpt>
      <trkpt lat="43.98965" lon="6.51121">
        <ele>1168</ele>
      </trkpt>
      <trkpt lat="43.9897" lon="6.5112">
        <ele>1168</ele>
      </trkpt>
      <trkpt lat="43.98975" lon="6.5112">
        <ele>1169</ele>
      </trkpt>
      <trkpt lat="43.98986" lon="6.51119">
        <ele>1169</ele>
      </trkpt>
      <trkpt lat="43.98991" lon="6.51119">
        <ele>1170</ele>
      </trkpt>
      <trkpt lat="43.98997" lon="6.5112">
        <ele>1170</ele>
      </trkpt>
      <trkpt lat="43.99005" lon="6.51119">
        <ele>1171</ele>
      </trkpt>
      <trkpt lat="43.9901" lon="6.51119">
        <ele>1171</ele>
      </trkpt>
      <trkpt lat="43.99019" lon="6.51118">
        <ele>1171</ele>
      </trkpt>
      <trkpt lat="43.99026" lon="6.51115">
        <ele>1171</ele>
      </trkpt>
      <trkpt lat="43.99032" lon="6.51111">
        <ele>1170</ele>
      </trkpt>
      <trkpt lat="43.99038" lon="6.51108">
        <ele>1169</ele>
      </trkpt>
      <trkpt lat="43.99045" lon="6.51103">
        <ele>1168</ele>
      </trkpt>
      <trkpt lat="43.99052" lon="6.51101">
        <ele>1168</ele>
      </trkpt>
      <trkpt lat="43.99059" lon="6.511">
        <ele>1168</ele>
      </trkpt>
      <trkpt lat="43.99067" lon="6.51099">
        <ele>1168</ele>
      </trkpt>
      <trkpt lat="43.99074" lon="6.51098">
        <ele>1168</ele>
      </trkpt>
      <trkpt lat="43.99079" lon="6.51097">
        <ele>1168</ele>
      </trkpt>
      <trkpt lat="43.99091" lon="6.51087">
        <ele>1166</ele>
      </trkpt>
      <trkpt lat="43.99098" lon="6.51083">
        <ele>1165</ele>
      </trkpt>
      <trkpt lat="43.99105" lon="6.51082">
        <ele>1165</ele>
      </trkpt>
      <trkpt lat="43.99111" lon="6.51082">
        <ele>1165</ele>
      </trkpt>
      <trkpt lat="43.99118" lon="6.5108">
        <ele>1165</ele>
      </trkpt>
      <trkpt lat="43.99122" lon="6.51078">
        <ele>1165</ele>
      </trkpt>
      <trkpt lat="43.99127" lon="6.51077">
        <ele>1165</ele>
      </trkpt>
      <trkpt lat="43.99132" lon="6.51076">
        <ele>1165</ele>
      </trkpt>
      <trkpt lat="43.99141" lon="6.51077">
        <ele>1165</ele>
      </trkpt>
      <trkpt lat="43.99148" lon="6.51078">
        <ele>1166</ele>
      </trkpt>
      <trkpt lat="43.99156" lon="6.51078">
        <ele>1166</ele>
      </trkpt>
      <trkpt lat="43.99166" lon="6.51073">
        <ele>1165</ele>
      </trkpt>
      <trkpt lat="43.99172" lon="6.5107">
        <ele>1164</ele>
      </trkpt>
      <trkpt lat="43.99177" lon="6.51066">
        <ele>1164</ele>
      </trkpt>
      <trkpt lat="43.99182" lon="6.51061">
        <ele>1163</ele>
      </trkpt>
      <trkpt lat="43.99187" lon="6.51058">
        <ele>1162</ele>
      </trkpt>
      <trkpt lat="43.99192" lon="6.51055">
        <ele>1161</ele>
      </trkpt>
      <trkpt lat="43.99199" lon="6.51049">
        <ele>1160</ele>
      </trkpt>
      <trkpt lat="43.99206" lon="6.51046">
        <ele>1159</ele>
      </trkpt>
      <trkpt lat="43.99214" lon="6.51044">
        <ele>1159</ele>
      </trkpt>
      <trkpt lat="43.99223" lon="6.51041">
        <ele>1159</ele>
      </trkpt>
      <trkpt lat="43.99228" lon="6.5104">
        <ele>1159</ele>
      </trkpt>
      <trkpt lat="43.99236" lon="6.51039">
        <ele>1159</ele>
      </trkpt>
      <trkpt lat="43.99241" lon="6.51038">
        <ele>1159</ele>
      </trkpt>
      <trkpt lat="43.99247" lon="6.51037">
        <ele>1159</ele>
      </trkpt>
      <trkpt lat="43.99252" lon="6.51036">
        <ele>1159</ele>
      </trkpt>
      <trkpt lat="43.99258" lon="6.51037">
        <ele>1160</ele>
      </trkpt>
      <trkpt lat="43.99266" lon="6.51038">
        <ele>1160</ele>
      </trkpt>
      <trkpt lat="43.99272" lon="6.51038">
        <ele>1160</ele>
      </trkpt>
      <trkpt lat="43.99281" lon="6.51038">
        <ele>1161</ele>
      </trkpt>
      <trkpt lat="43.9929" lon="6.51035">
        <ele>1160</ele>
      </trkpt>
      <trkpt lat="43.99295" lon="6.51035">
        <ele>1161</ele>
      </trkpt>
      <trkpt lat="43.993" lon="6.51033">
        <ele>1161</ele>
      </trkpt>
      <trkpt lat="43.99304" lon="6.51032">
        <ele>1161</ele>
      </trkpt>
      <trkpt lat="43.99313" lon="6.51027">
        <ele>1160</ele>
      </trkpt>
      <trkpt lat="43.99319" lon="6.51023">
        <ele>1160</ele>
      </trkpt>
      <trkpt lat="43.99323" lon="6.5102">
        <ele>1159</ele>
      </trkpt>
      <trkpt lat="43.99328" lon="6.51016">
        <ele>1159</ele>
      </trkpt>
      <trkpt lat="43.99332" lon="6.51013">
        <ele>1159</ele>
      </trkpt>
      <trkpt lat="43.99336" lon="6.51008">
        <ele>1158</ele>
      </trkpt>
      <trkpt lat="43.99341" lon="6.51002">
        <ele>1158</ele>
      </trkpt>
      <trkpt lat="43.99345" lon="6.50996">
        <ele>1157</ele>
      </trkpt>
      <trkpt lat="43.9935" lon="6.50989">
        <ele>1156</ele>
      </trkpt>
      <trkpt lat="43.99354" lon="6.50982">
        <ele>1154</ele>
      </trkpt>
      <trkpt lat="43.99358" lon="6.50976">
        <ele>1153</ele>
      </trkpt>
      <trkpt lat="43.99365" lon="6.50969">
        <ele>1153</ele>
      </trkpt>
      <trkpt lat="43.99372" lon="6.5096">
        <ele>1151</ele>
      </trkpt>
      <trkpt lat="43.99378" lon="6.50952">
        <ele>1151</ele>
      </trkpt>
      <trkpt lat="43.99387" lon="6.50945">
        <ele>1150</ele>
      </trkpt>
      <trkpt lat="43.99396" lon="6.50939">
        <ele>1150</ele>
      </trkpt>
      <trkpt lat="43.99406" lon="6.5093">
        <ele>1149</ele>
      </trkpt>
      <trkpt lat="43.99413" lon="6.50922">
        <ele>1148</ele>
      </trkpt>
      <trkpt lat="43.9942" lon="6.50911">
        <ele>1146</ele>
      </trkpt>
      <trkpt lat="43.99426" lon="6.50902">
        <ele>1144</ele>
      </trkpt>
      <trkpt lat="43.99432" lon="6.50895">
        <ele>1143</ele>
      </trkpt>
      <trkpt lat="43.99437" lon="6.50889">
        <ele>1141</ele>
      </trkpt>
      <trkpt lat="43.99442" lon="6.50885">
        <ele>1140</ele>
      </trkpt>
      <trkpt lat="43.99448" lon="6.5088">
        <ele>1139</ele>
      </trkpt>
      <trkpt lat="43.99452" lon="6.50875">
        <ele>1138</ele>
      </trkpt>
      <trkpt lat="43.99457" lon="6.50872">
        <ele>1138</ele>
      </trkpt>
      <trkpt lat="43.99465" lon="6.50869">
        <ele>1137</ele>
      </trkpt>
      <trkpt lat="43.99471" lon="6.50866">
        <ele>1137</ele>
      </trkpt>
      <trkpt lat="43.99478" lon="6.50864">
        <ele>1136</ele>
      </trkpt>
      <trkpt lat="43.99486" lon="6.50862">
        <ele>1136</ele>
      </trkpt>
      <trkpt lat="43.99495" lon="6.50858">
        <ele>1134</ele>
      </trkpt>
      <trkpt lat="43.99504" lon="6.50854">
        <ele>1134</ele>
      </trkpt>
      <trkpt lat="43.99514" lon="6.50849">
        <ele>1132</ele>
      </trkpt>
      <trkpt lat="43.99521" lon="6.50844">
        <ele>1131</ele>
      </trkpt>
      <trkpt lat="43.99529" lon="6.5084">
        <ele>1129</ele>
      </trkpt>
      <trkpt lat="43.99539" lon="6.50839">
        <ele>1129</ele>
      </trkpt>
      <trkpt lat="43.99551" lon="6.50834">
        <ele>1127</ele>
      </trkpt>
      <trkpt lat="43.99563" lon="6.5083">
        <ele>1126</ele>
      </trkpt>
      <trkpt lat="43.99577" lon="6.50829">
        <ele>1125</ele>
      </trkpt>
      <trkpt lat="43.9959" lon="6.50829">
        <ele>1125</ele>
      </trkpt>
      <trkpt lat="43.99601" lon="6.50821">
        <ele>1124</ele>
      </trkpt>
      <trkpt lat="43.99613" lon="6.50813">
        <ele>1122</ele>
      </trkpt>
      <trkpt lat="43.99627" lon="6.50802">
        <ele>1120</ele>
      </trkpt>
      <trkpt lat="43.99643" lon="6.50791">
        <ele>1118</ele>
      </trkpt>
      <trkpt lat="43.99661" lon="6.50778">
        <ele>1115</ele>
      </trkpt>
      <trkpt lat="43.99678" lon="6.50765">
        <ele>1112</ele>
      </trkpt>
      <trkpt lat="43.99696" lon="6.50754">
        <ele>1109</ele>
      </trkpt>
      <trkpt lat="43.99711" lon="6.50743">
        <ele>1105</ele>
      </trkpt>
      <trkpt lat="43.99727" lon="6.50741">
        <ele>1102</ele>
      </trkpt>
      <trkpt lat="43.99744" lon="6.50743">
        <ele>1100</ele>
      </trkpt>
      <trkpt lat="43.9976" lon="6.50745">
        <ele>1097</ele>
      </trkpt>
      <trkpt lat="43.99774" lon="6.5075">
        <ele>1096</ele>
      </trkpt>
      <trkpt lat="43.99788" lon="6.50756">
        <ele>1095</ele>
      </trkpt>
      <trkpt lat="43.99805" lon="6.50762">
        <ele>1095</ele>
      </trkpt>
      <trkpt lat="43.9982" lon="6.50763">
        <ele>1095</ele>
      </trkpt>
      <trkpt lat="43.99834" lon="6.50765">
        <ele>1095</ele>
      </trkpt>
      <trkpt lat="43.99838" lon="6.50774">
        <ele>1099</ele>
      </trkpt>
      <trkpt lat="43.9984" lon="6.50779">
        <ele>1101</ele>
      </trkpt>
      <trkpt lat="43.9984" lon="6.50769">
        <ele>1098</ele>
      </trkpt>
      <trkpt lat="43.99841" lon="6.50759">
        <ele>1095</ele>
      </trkpt>
      <trkpt lat="43.99844" lon="6.50749">
        <ele>1091</ele>
      </trkpt>
      <trkpt lat="43.99846" lon="6.50738">
        <ele>1088</ele>
      </trkpt>
      <trkpt lat="43.99849" lon="6.50734">
        <ele>1087</ele>
      </trkpt>
      <trkpt lat="43.99846" lon="6.50731">
        <ele>1085</ele>
      </trkpt>
      <trkpt lat="43.99848" lon="6.50725">
        <ele>1085</ele>
      </trkpt>
      <trkpt lat="43.99852" lon="6.50721">
        <ele>1085</ele>
      </trkpt>
      <trkpt lat="43.99859" lon="6.50722">
        <ele>1086</ele>
      </trkpt>
      <trkpt lat="43.99867" lon="6.50733">
        <ele>1090</ele>
      </trkpt>
      <trkpt lat="43.99871" lon="6.50746">
        <ele>1095</ele>
      </trkpt>
      <trkpt lat="43.99878" lon="6.50755">
        <ele>1100</ele>
      </trkpt>
      <trkpt lat="43.99882" lon="6.50752">
        <ele>1100</ele>
      </trkpt>
      <trkpt lat="43.99887" lon="6.50742">
        <ele>1097</ele>
      </trkpt>
      <trkpt lat="43.99894" lon="6.50735">
        <ele>1096</ele>
      </trkpt>
      <trkpt lat="43.99902" lon="6.50731">
        <ele>1097</ele>
      </trkpt>
      <trkpt lat="43.99906" lon="6.50724">
        <ele>1096</ele>
      </trkpt>
      <trkpt lat="43.9991" lon="6.50716">
        <ele>1095</ele>
      </trkpt>
      <trkpt lat="43.99917" lon="6.50706">
        <ele>1094</ele>
      </trkpt>
      <trkpt lat="43.99925" lon="6.50698">
        <ele>1094</ele>
      </trkpt>
      <trkpt lat="43.99933" lon="6.50692">
        <ele>1092</ele>
      </trkpt>
      <trkpt lat="43.99938" lon="6.50684">
        <ele>1090</ele>
      </trkpt>
      <trkpt lat="43.99941" lon="6.50672">
        <ele>1087</ele>
      </trkpt>
      <trkpt lat="43.99945" lon="6.50663">
        <ele>1085</ele>
      </trkpt>
      <trkpt lat="43.99947" lon="6.50657">
        <ele>1084</ele>
      </trkpt>
      <trkpt lat="43.99951" lon="6.5065">
        <ele>1083</ele>
      </trkpt>
      <trkpt lat="43.99954" lon="6.50642">
        <ele>1082</ele>
      </trkpt>
      <trkpt lat="43.99957" lon="6.50635">
        <ele>1081</ele>
      </trkpt>
      <trkpt lat="43.99961" lon="6.50624">
        <ele>1080</ele>
      </trkpt>
      <trkpt lat="43.99967" lon="6.50613">
        <ele>1080</ele>
      </trkpt>
      <trkpt lat="43.99973" lon="6.50599">
        <ele>1077</ele>
      </trkpt>
      <trkpt lat="43.9998" lon="6.50586">
        <ele>1074</ele>
      </trkpt>
      <trkpt lat="43.99986" lon="6.50575">
        <ele>1070</ele>
      </trkpt>
      <trkpt lat="43.99991" lon="6.50564">
        <ele>1067</ele>
      </trkpt>
      <trkpt lat="43.99996" lon="6.50553">
        <ele>1063</ele>
      </trkpt>
      <trkpt lat="44.00002" lon="6.50541">
        <ele>1060</ele>
      </trkpt>
      <trkpt lat="44.00007" lon="6.50532">
        <ele>1058</ele>
      </trkpt>
      <trkpt lat="44.00014" lon="6.50522">
        <ele>1056</ele>
      </trkpt>
      <trkpt lat="44.0002" lon="6.50513">
        <ele>1054</ele>
      </trkpt>
      <trkpt lat="44.00024" lon="6.50509">
        <ele>1053</ele>
      </trkpt>
      <trkpt lat="44.0003" lon="6.505">
        <ele>1052</ele>
      </trkpt>
      <trkpt lat="44.00034" lon="6.50493">
        <ele>1051</ele>
      </trkpt>
      <trkpt lat="44.00026" lon="6.50498">
        <ele>1052</ele>
      </trkpt>
      <trkpt lat="44.00021" lon="6.50504">
        <ele>1052</ele>
      </trkpt>
      <trkpt lat="44.00016" lon="6.5051">
        <ele>1053</ele>
      </trkpt>
      <trkpt lat="44.00012" lon="6.50517">
        <ele>1055</ele>
      </trkpt>
      <trkpt lat="44.00004" lon="6.50524">
        <ele>1057</ele>
      </trkpt>
      <trkpt lat="43.99998" lon="6.50529">
        <ele>1058</ele>
      </trkpt>
      <trkpt lat="43.99993" lon="6.5053">
        <ele>1059</ele>
      </trkpt>
      <trkpt lat="43.99987" lon="6.50528">
        <ele>1059</ele>
      </trkpt>
      <trkpt lat="43.99981" lon="6.50526">
        <ele>1059</ele>
      </trkpt>
      <trkpt lat="43.99972" lon="6.50519">
        <ele>1057</ele>
      </trkpt>
      <trkpt lat="43.99965" lon="6.50516">
        <ele>1055</ele>
      </trkpt>
      <trkpt lat="43.99958" lon="6.50514">
        <ele>1053</ele>
      </trkpt>
      <trkpt lat="43.99951" lon="6.50516">
        <ele>1053</ele>
      </trkpt>
      <trkpt lat="43.99945" lon="6.50521">
        <ele>1053</ele>
      </trkpt>
      <trkpt lat="43.99939" lon="6.50529">
        <ele>1053</ele>
      </trkpt>
      <trkpt lat="43.99937" lon="6.50537">
        <ele>1054</ele>
      </trkpt>
      <trkpt lat="43.99933" lon="6.50542">
        <ele>1054</ele>
      </trkpt>
      <trkpt lat="43.9993" lon="6.50552">
        <ele>1055</ele>
      </trkpt>
      <trkpt lat="43.9993" lon="6.50558">
        <ele>1057</ele>
      </trkpt>
      <trkpt lat="43.99925" lon="6.50552">
        <ele>1054</ele>
      </trkpt>
      <trkpt lat="43.99925" lon="6.50542">
        <ele>1052</ele>
      </trkpt>
      <trkpt lat="43.99927" lon="6.50532">
        <ele>1051</ele>
      </trkpt>
      <trkpt lat="43.99926" lon="6.5052">
        <ele>1049</ele>
      </trkpt>
      <trkpt lat="43.99924" lon="6.50507">
        <ele>1047</ele>
      </trkpt>
      <trkpt lat="43.99921" lon="6.50496">
        <ele>1045</ele>
      </trkpt>
      <trkpt lat="43.99918" lon="6.50483">
        <ele>1043</ele>
      </trkpt>
      <trkpt lat="43.99915" lon="6.50468">
        <ele>1041</ele>
      </trkpt>
      <trkpt lat="43.99909" lon="6.50454">
        <ele>1040</ele>
      </trkpt>
      <trkpt lat="43.99902" lon="6.50442">
        <ele>1038</ele>
      </trkpt>
      <trkpt lat="43.99897" lon="6.50432">
        <ele>1037</ele>
      </trkpt>
      <trkpt lat="43.9989" lon="6.50425">
        <ele>1036</ele>
      </trkpt>
      <trkpt lat="43.99886" lon="6.50415">
        <ele>1035</ele>
      </trkpt>
      <trkpt lat="43.99882" lon="6.50405">
        <ele>1033</ele>
      </trkpt>
      <trkpt lat="43.99879" lon="6.50392">
        <ele>1032</ele>
      </trkpt>
      <trkpt lat="43.99878" lon="6.50387">
        <ele>1031</ele>
      </trkpt>
      <trkpt lat="43.99874" lon="6.50384">
        <ele>1030</ele>
      </trkpt>
      <trkpt lat="43.99871" lon="6.50389">
        <ele>1031</ele>
      </trkpt>
      <trkpt lat="43.99866" lon="6.50393">
        <ele>1032</ele>
      </trkpt>
      <trkpt lat="43.99859" lon="6.50394">
        <ele>1032</ele>
      </trkpt>
      <trkpt lat="43.99851" lon="6.50392">
        <ele>1032</ele>
      </trkpt>
      <trkpt lat="43.99846" lon="6.5039">
        <ele>1032</ele>
      </trkpt>
      <trkpt lat="43.99836" lon="6.50388">
        <ele>1032</ele>
      </trkpt>
      <trkpt lat="43.99831" lon="6.50383">
        <ele>1031</ele>
      </trkpt>
      <trkpt lat="43.99826" lon="6.50379">
        <ele>1030</ele>
      </trkpt>
      <trkpt lat="43.9982" lon="6.50373">
        <ele>1030</ele>
      </trkpt>
      <trkpt lat="43.99816" lon="6.50369">
        <ele>1029</ele>
      </trkpt>
      <trkpt lat="43.99813" lon="6.50366">
        <ele>1028</ele>
      </trkpt>
      <trkpt lat="43.99807" lon="6.50359">
        <ele>1027</ele>
      </trkpt>
      <trkpt lat="43.998" lon="6.50356">
        <ele>1026</ele>
      </trkpt>
      <trkpt lat="43.99796" lon="6.50351">
        <ele>1025</ele>
      </trkpt>
      <trkpt lat="43.99792" lon="6.50347">
        <ele>1025</ele>
      </trkpt>
      <trkpt lat="43.99786" lon="6.50346">
        <ele>1024</ele>
      </trkpt>
      <trkpt lat="43.99778" lon="6.50345">
        <ele>1024</ele>
      </trkpt>
      <trkpt lat="43.99771" lon="6.50348">
        <ele>1024</ele>
      </trkpt>
      <trkpt lat="43.99764" lon="6.50356">
        <ele>1025</ele>
      </trkpt>
      <trkpt lat="43.99758" lon="6.5036">
        <ele>1026</ele>
      </trkpt>
      <trkpt lat="43.99754" lon="6.50363">
        <ele>1027</ele>
      </trkpt>
      <trkpt lat="43.9975" lon="6.50367">
        <ele>1028</ele>
      </trkpt>
      <trkpt lat="43.99744" lon="6.50373">
        <ele>1029</ele>
      </trkpt>
      <trkpt lat="43.99737" lon="6.50379">
        <ele>1030</ele>
      </trkpt>
      <trkpt lat="43.99727" lon="6.50382">
        <ele>1031</ele>
      </trkpt>
      <trkpt lat="43.99718" lon="6.5039">
        <ele>1032</ele>
      </trkpt>
      <trkpt lat="43.99709" lon="6.50397">
        <ele>1034</ele>
      </trkpt>
      <trkpt lat="43.99699" lon="6.50402">
        <ele>1033</ele>
      </trkpt>
      <trkpt lat="43.99689" lon="6.50404">
        <ele>1031</ele>
      </trkpt>
      <trkpt lat="43.99676" lon="6.50403">
        <ele>1028</ele>
      </trkpt>
      <trkpt lat="43.99663" lon="6.50404">
        <ele>1025</ele>
      </trkpt>
      <trkpt lat="43.99652" lon="6.50403">
        <ele>1021</ele>
      </trkpt>
      <trkpt lat="43.99644" lon="6.50407">
        <ele>1020</ele>
      </trkpt>
      <trkpt lat="43.99634" lon="6.50417">
        <ele>1020</ele>
      </trkpt>
      <trkpt lat="43.99624" lon="6.50427">
        <ele>1020</ele>
      </trkpt>
      <trkpt lat="43.99616" lon="6.50435">
        <ele>1020</ele>
      </trkpt>
      <trkpt lat="43.99613" lon="6.50446">
        <ele>1022</ele>
      </trkpt>
      <trkpt lat="43.99615" lon="6.50437">
        <ele>1020</ele>
      </trkpt>
      <trkpt lat="43.99621" lon="6.50427">
        <ele>1019</ele>
      </trkpt>
      <trkpt lat="43.99624" lon="6.50419">
        <ele>1018</ele>
      </trkpt>
      <trkpt lat="43.99629" lon="6.5041">
        <ele>1016</ele>
      </trkpt>
      <trkpt lat="43.99637" lon="6.504">
        <ele>1015</ele>
      </trkpt>
      <trkpt lat="43.99644" lon="6.50391">
        <ele>1014</ele>
      </trkpt>
      <trkpt lat="43.99654" lon="6.50379">
        <ele>1012</ele>
      </trkpt>
      <trkpt lat="43.99662" lon="6.50369">
        <ele>1010</ele>
      </trkpt>
      <trkpt lat="43.99663" lon="6.50363">
        <ele>1008</ele>
      </trkpt>
      <trkpt lat="43.99657" lon="6.50371">
        <ele>1009</ele>
      </trkpt>
      <trkpt lat="43.9965" lon="6.50376">
        <ele>1009</ele>
      </trkpt>
      <trkpt lat="43.99642" lon="6.50382">
        <ele>1009</ele>
      </trkpt>
      <trkpt lat="43.99633" lon="6.50388">
        <ele>1009</ele>
      </trkpt>
      <trkpt lat="43.99623" lon="6.50393">
        <ele>1008</ele>
      </trkpt>
      <trkpt lat="43.99611" lon="6.50402">
        <ele>1006</ele>
      </trkpt>
      <trkpt lat="43.99599" lon="6.50414">
        <ele>1006</ele>
      </trkpt>
      <trkpt lat="43.99591" lon="6.50428">
        <ele>1008</ele>
      </trkpt>
      <trkpt lat="43.99583" lon="6.50438">
        <ele>1008</ele>
      </trkpt>
      <trkpt lat="43.99573" lon="6.50435">
        <ele>1004</ele>
      </trkpt>
      <trkpt lat="43.99565" lon="6.5043">
        <ele>999</ele>
      </trkpt>
      <trkpt lat="43.99557" lon="6.50435">
        <ele>998</ele>
      </trkpt>
      <trkpt lat="43.99549" lon="6.50443">
        <ele>998</ele>
      </trkpt>
      <trkpt lat="43.99536" lon="6.50448">
        <ele>996</ele>
      </trkpt>
      <trkpt lat="43.99524" lon="6.5046">
        <ele>996</ele>
      </trkpt>
      <trkpt lat="43.99513" lon="6.50479">
        <ele>999</ele>
      </trkpt>
      <trkpt lat="43.99499" lon="6.50493">
        <ele>1000</ele>
      </trkpt>
      <trkpt lat="43.99491" lon="6.50498">
        <ele>998</ele>
      </trkpt>
      <trkpt lat="43.99482" lon="6.50505">
        <ele>998</ele>
      </trkpt>
      <trkpt lat="43.9947" lon="6.50512">
        <ele>997</ele>
      </trkpt>
      <trkpt lat="43.9946" lon="6.50516">
        <ele>996</ele>
      </trkpt>
      <trkpt lat="43.99451" lon="6.50516">
        <ele>994</ele>
      </trkpt>
      <trkpt lat="43.99442" lon="6.50512">
        <ele>989</ele>
      </trkpt>
      <trkpt lat="43.99435" lon="6.50511">
        <ele>987</ele>
      </trkpt>
      <trkpt lat="43.99427" lon="6.50511">
        <ele>986</ele>
      </trkpt>
      <trkpt lat="43.9943" lon="6.50504">
        <ele>983</ele>
      </trkpt>
      <trkpt lat="43.99436" lon="6.50496">
        <ele>981</ele>
      </trkpt>
      <trkpt lat="43.99446" lon="6.50492">
        <ele>982</ele>
      </trkpt>
      <trkpt lat="43.99455" lon="6.50485">
        <ele>981</ele>
      </trkpt>
      <trkpt lat="43.99466" lon="6.50477">
        <ele>981</ele>
      </trkpt>
      <trkpt lat="43.99477" lon="6.50469">
        <ele>981</ele>
      </trkpt>
      <trkpt lat="43.99485" lon="6.5046">
        <ele>979</ele>
      </trkpt>
      <trkpt lat="43.99491" lon="6.5045">
        <ele>978</ele>
      </trkpt>
      <trkpt lat="43.99497" lon="6.50435">
        <ele>975</ele>
      </trkpt>
      <trkpt lat="43.99505" lon="6.50415">
        <ele>971</ele>
      </trkpt>
      <trkpt lat="43.99515" lon="6.50401">
        <ele>969</ele>
      </trkpt>
      <trkpt lat="43.99523" lon="6.50385">
        <ele>966</ele>
      </trkpt>
      <trkpt lat="43.99531" lon="6.50367">
        <ele>963</ele>
      </trkpt>
      <trkpt lat="43.99538" lon="6.50348">
        <ele>959</ele>
      </trkpt>
      <trkpt lat="43.99544" lon="6.50343">
        <ele>960</ele>
      </trkpt>
      <trkpt lat="43.99568" lon="6.50311">
        <ele>958</ele>
      </trkpt>
      <trkpt lat="43.99568" lon="6.50311">
        <ele>958</ele>
      </trkpt>
      <trkpt lat="43.99568" lon="6.5031">
        <ele>958</ele>
      </trkpt>
      <trkpt lat="43.99572" lon="6.50304">
        <ele>957</ele>
      </trkpt>
      <trkpt lat="43.99578" lon="6.50299">
        <ele>957</ele>
      </trkpt>
      <trkpt lat="43.99583" lon="6.50293">
        <ele>957</ele>
      </trkpt>
      <trkpt lat="43.9959" lon="6.50286">
        <ele>956</ele>
      </trkpt>
      <trkpt lat="43.99596" lon="6.50282">
        <ele>956</ele>
      </trkpt>
      <trkpt lat="43.99604" lon="6.50279">
        <ele>956</ele>
      </trkpt>
      <trkpt lat="43.99612" lon="6.50276">
        <ele>956</ele>
      </trkpt>
      <trkpt lat="43.9962" lon="6.50274">
        <ele>957</ele>
      </trkpt>
      <trkpt lat="43.99625" lon="6.50269">
        <ele>957</ele>
      </trkpt>
      <trkpt lat="43.99629" lon="6.50263">
        <ele>957</ele>
      </trkpt>
      <trkpt lat="43.99632" lon="6.50259">
        <ele>957</ele>
      </trkpt>
      <trkpt lat="43.9964" lon="6.50253">
        <ele>958</ele>
      </trkpt>
      <trkpt lat="43.99643" lon="6.50247">
        <ele>957</ele>
      </trkpt>
      <trkpt lat="43.99647" lon="6.50241">
        <ele>957</ele>
      </trkpt>
      <trkpt lat="43.99651" lon="6.50237">
        <ele>956</ele>
      </trkpt>
      <trkpt lat="43.99654" lon="6.50231">
        <ele>956</ele>
      </trkpt>
      <trkpt lat="43.99661" lon="6.50214">
        <ele>953</ele>
      </trkpt>
      <trkpt lat="43.99669" lon="6.50206">
        <ele>953</ele>
      </trkpt>
      <trkpt lat="43.99667" lon="6.50197">
        <ele>952</ele>
      </trkpt>
      <trkpt lat="43.9966" lon="6.50192">
        <ele>950</ele>
      </trkpt>
      <trkpt lat="43.99647" lon="6.50201">
        <ele>949</ele>
      </trkpt>
      <trkpt lat="43.99632" lon="6.50213">
        <ele>948</ele>
      </trkpt>
      <trkpt lat="43.99624" lon="6.50218">
        <ele>948</ele>
      </trkpt>
      <trkpt lat="43.99617" lon="6.50223">
        <ele>948</ele>
      </trkpt>
      <trkpt lat="43.99601" lon="6.50231">
        <ele>948</ele>
      </trkpt>
      <trkpt lat="43.99593" lon="6.50235">
        <ele>948</ele>
      </trkpt>
      <trkpt lat="43.99581" lon="6.50239">
        <ele>947</ele>
      </trkpt>
      <trkpt lat="43.99575" lon="6.50242">
        <ele>947</ele>
      </trkpt>
      <trkpt lat="43.9957" lon="6.50245">
        <ele>947</ele>
      </trkpt>
      <trkpt lat="43.99565" lon="6.50246">
        <ele>946</ele>
      </trkpt>
      <trkpt lat="43.9956" lon="6.50247">
        <ele>946</ele>
      </trkpt>
      <trkpt lat="43.99555" lon="6.50248">
        <ele>945</ele>
      </trkpt>
      <trkpt lat="43.9955" lon="6.5025">
        <ele>945</ele>
      </trkpt>
      <trkpt lat="43.99546" lon="6.50254">
        <ele>945</ele>
      </trkpt>
      <trkpt lat="43.9954" lon="6.50257">
        <ele>944</ele>
      </trkpt>
      <trkpt lat="43.99532" lon="6.50262">
        <ele>944</ele>
      </trkpt>
      <trkpt lat="43.99524" lon="6.50267">
        <ele>943</ele>
      </trkpt>
      <trkpt lat="43.99515" lon="6.50273">
        <ele>942</ele>
      </trkpt>
      <trkpt lat="43.99505" lon="6.50276">
        <ele>941</ele>
      </trkpt>
      <trkpt lat="43.99495" lon="6.50274">
        <ele>939</ele>
      </trkpt>
      <trkpt lat="43.99487" lon="6.50269">
        <ele>938</ele>
      </trkpt>
      <trkpt lat="43.99477" lon="6.50261">
        <ele>938</ele>
      </trkpt>
      <trkpt lat="43.99468" lon="6.50256">
        <ele>938</ele>
      </trkpt>
      <trkpt lat="43.99459" lon="6.50254">
        <ele>938</ele>
      </trkpt>
      <trkpt lat="43.99448" lon="6.50258">
        <ele>938</ele>
      </trkpt>
      <trkpt lat="43.99436" lon="6.50265">
        <ele>937</ele>
      </trkpt>
      <trkpt lat="43.99424" lon="6.50272">
        <ele>937</ele>
      </trkpt>
      <trkpt lat="43.99413" lon="6.50281">
        <ele>937</ele>
      </trkpt>
      <trkpt lat="43.99402" lon="6.50289">
        <ele>937</ele>
      </trkpt>
      <trkpt lat="43.99391" lon="6.50296">
        <ele>936</ele>
      </trkpt>
      <trkpt lat="43.99381" lon="6.503">
        <ele>936</ele>
      </trkpt>
      <trkpt lat="43.9937" lon="6.50305">
        <ele>935</ele>
      </trkpt>
      <trkpt lat="43.99359" lon="6.50308">
        <ele>935</ele>
      </trkpt>
      <trkpt lat="43.99346" lon="6.5031">
        <ele>934</ele>
      </trkpt>
      <trkpt lat="43.99333" lon="6.50312">
        <ele>934</ele>
      </trkpt>
      <trkpt lat="43.9932" lon="6.50312">
        <ele>933</ele>
      </trkpt>
      <trkpt lat="43.99309" lon="6.50311">
        <ele>933</ele>
      </trkpt>
      <trkpt lat="43.99297" lon="6.5031">
        <ele>934</ele>
      </trkpt>
      <trkpt lat="43.99287" lon="6.50306">
        <ele>935</ele>
      </trkpt>
      <trkpt lat="43.99278" lon="6.50304">
        <ele>935</ele>
      </trkpt>
      <trkpt lat="43.99269" lon="6.50302">
        <ele>936</ele>
      </trkpt>
      <trkpt lat="43.99259" lon="6.50302">
        <ele>936</ele>
      </trkpt>
      <trkpt lat="43.99248" lon="6.50304">
        <ele>937</ele>
      </trkpt>
      <trkpt lat="43.99238" lon="6.50308">
        <ele>937</ele>
      </trkpt>
      <trkpt lat="43.99228" lon="6.5031">
        <ele>937</ele>
      </trkpt>
      <trkpt lat="43.99217" lon="6.50314">
        <ele>937</ele>
      </trkpt>
      <trkpt lat="43.99205" lon="6.50319">
        <ele>937</ele>
      </trkpt>
      <trkpt lat="43.99193" lon="6.50325">
        <ele>937</ele>
      </trkpt>
      <trkpt lat="43.99182" lon="6.5033">
        <ele>937</ele>
      </trkpt>
      <trkpt lat="43.99171" lon="6.50335">
        <ele>936</ele>
      </trkpt>
      <trkpt lat="43.99158" lon="6.50339">
        <ele>936</ele>
      </trkpt>
      <trkpt lat="43.99146" lon="6.50343">
        <ele>936</ele>
      </trkpt>
      <trkpt lat="43.99132" lon="6.50346">
        <ele>936</ele>
      </trkpt>
      <trkpt lat="43.99118" lon="6.50349">
        <ele>936</ele>
      </trkpt>
      <trkpt lat="43.99103" lon="6.50355">
        <ele>935</ele>
      </trkpt>
      <trkpt lat="43.99091" lon="6.5036">
        <ele>935</ele>
      </trkpt>
      <trkpt lat="43.99066" lon="6.50364">
        <ele>935</ele>
      </trkpt>
      <trkpt lat="43.99054" lon="6.5037">
        <ele>935</ele>
      </trkpt>
      <trkpt lat="43.99044" lon="6.50376">
        <ele>936</ele>
      </trkpt>
      <trkpt lat="43.99034" lon="6.50382">
        <ele>936</ele>
      </trkpt>
      <trkpt lat="43.99026" lon="6.50388">
        <ele>938</ele>
      </trkpt>
      <trkpt lat="43.99007" lon="6.50398">
        <ele>940</ele>
      </trkpt>
      <trkpt lat="43.98995" lon="6.50424">
        <ele>938</ele>
      </trkpt>
      <trkpt lat="43.98987" lon="6.50444">
        <ele>938</ele>
      </trkpt>
      <trkpt lat="43.98982" lon="6.50461">
        <ele>938</ele>
      </trkpt>
      <trkpt lat="43.98977" lon="6.50478">
        <ele>937</ele>
      </trkpt>
      <trkpt lat="43.9897" lon="6.50493">
        <ele>936</ele>
      </trkpt>
      <trkpt lat="43.98966" lon="6.50505">
        <ele>936</ele>
      </trkpt>
      <trkpt lat="43.98958" lon="6.50514">
        <ele>936</ele>
      </trkpt>
      <trkpt lat="43.98946" lon="6.50517">
        <ele>936</ele>
      </trkpt>
      <trkpt lat="43.98933" lon="6.50514">
        <ele>935</ele>
      </trkpt>
      <trkpt lat="43.9892" lon="6.50509">
        <ele>934</ele>
      </trkpt>
      <trkpt lat="43.98907" lon="6.50505">
        <ele>933</ele>
      </trkpt>
      <trkpt lat="43.98894" lon="6.50502">
        <ele>932</ele>
      </trkpt>
      <trkpt lat="43.9888" lon="6.50498">
        <ele>931</ele>
      </trkpt>
      <trkpt lat="43.98867" lon="6.50491">
        <ele>931</ele>
      </trkpt>
      <trkpt lat="43.98854" lon="6.50486">
        <ele>930</ele>
      </trkpt>
      <trkpt lat="43.9884" lon="6.5048">
        <ele>930</ele>
      </trkpt>
      <trkpt lat="43.98826" lon="6.50476">
        <ele>930</ele>
      </trkpt>
      <trkpt lat="43.98811" lon="6.50471">
        <ele>930</ele>
      </trkpt>
      <trkpt lat="43.98797" lon="6.50467">
        <ele>930</ele>
      </trkpt>
      <trkpt lat="43.98782" lon="6.50466">
        <ele>930</ele>
      </trkpt>
      <trkpt lat="43.98767" lon="6.50462">
        <ele>930</ele>
      </trkpt>
      <trkpt lat="43.98751" lon="6.5046">
        <ele>930</ele>
      </trkpt>
      <trkpt lat="43.98735" lon="6.5046">
        <ele>930</ele>
      </trkpt>
      <trkpt lat="43.9872" lon="6.50464">
        <ele>929</ele>
      </trkpt>
      <trkpt lat="43.98703" lon="6.5047">
        <ele>930</ele>
      </trkpt>
      <trkpt lat="43.98686" lon="6.50478">
        <ele>930</ele>
      </trkpt>
      <trkpt lat="43.98672" lon="6.50487">
        <ele>930</ele>
      </trkpt>
      <trkpt lat="43.98657" lon="6.50498">
        <ele>929</ele>
      </trkpt>
      <trkpt lat="43.98644" lon="6.50509">
        <ele>928</ele>
      </trkpt>
      <trkpt lat="43.98629" lon="6.50519">
        <ele>927</ele>
      </trkpt>
      <trkpt lat="43.98616" lon="6.50533">
        <ele>927</ele>
      </trkpt>
      <trkpt lat="43.98602" lon="6.50547">
        <ele>926</ele>
      </trkpt>
      <trkpt lat="43.98588" lon="6.50559">
        <ele>923</ele>
      </trkpt>
      <trkpt lat="43.98575" lon="6.50573">
        <ele>920</ele>
      </trkpt>
      <trkpt lat="43.9856" lon="6.50583">
        <ele>920</ele>
      </trkpt>
      <trkpt lat="43.98545" lon="6.50598">
        <ele>919</ele>
      </trkpt>
      <trkpt lat="43.9853" lon="6.5061">
        <ele>917</ele>
      </trkpt>
      <trkpt lat="43.98516" lon="6.50616">
        <ele>918</ele>
      </trkpt>
      <trkpt lat="43.98498" lon="6.50627">
        <ele>916</ele>
      </trkpt>
      <trkpt lat="43.98483" lon="6.50636">
        <ele>916</ele>
      </trkpt>
      <trkpt lat="43.9847" lon="6.50647">
        <ele>917</ele>
      </trkpt>
      <trkpt lat="43.98451" lon="6.5066">
        <ele>917</ele>
      </trkpt>
      <trkpt lat="43.98431" lon="6.5067">
        <ele>917</ele>
      </trkpt>
      <trkpt lat="43.98413" lon="6.50671">
        <ele>917</ele>
      </trkpt>
      <trkpt lat="43.98398" lon="6.5067">
        <ele>917</ele>
      </trkpt>
      <trkpt lat="43.98388" lon="6.50667">
        <ele>918</ele>
      </trkpt>
      <trkpt lat="43.98378" lon="6.50664">
        <ele>918</ele>
      </trkpt>
      <trkpt lat="43.98364" lon="6.50664">
        <ele>918</ele>
      </trkpt>
      <trkpt lat="43.98352" lon="6.50668">
        <ele>917</ele>
      </trkpt>
      <trkpt lat="43.98347" lon="6.50669">
        <ele>917</ele>
      </trkpt>
      <trkpt lat="43.98348" lon="6.50674">
        <ele>916</ele>
      </trkpt>
      <trkpt lat="43.98352" lon="6.50668">
        <ele>917</ele>
      </trkpt>
      <trkpt lat="43.98358" lon="6.50663">
        <ele>918</ele>
      </trkpt>
      <trkpt lat="43.98351" lon="6.5066">
        <ele>919</ele>
      </trkpt>
      <trkpt lat="43.98342" lon="6.50661">
        <ele>919</ele>
      </trkpt>
      <trkpt lat="43.98334" lon="6.50662">
        <ele>918</ele>
      </trkpt>
      <trkpt lat="43.98324" lon="6.50667">
        <ele>917</ele>
      </trkpt>
      <trkpt lat="43.98314" lon="6.50671">
        <ele>917</ele>
      </trkpt>
      <trkpt lat="43.98304" lon="6.50675">
        <ele>916</ele>
      </trkpt>
      <trkpt lat="43.98294" lon="6.50682">
        <ele>915</ele>
      </trkpt>
      <trkpt lat="43.98285" lon="6.50687">
        <ele>915</ele>
      </trkpt>
      <trkpt lat="43.98274" lon="6.50692">
        <ele>915</ele>
      </trkpt>
      <trkpt lat="43.98264" lon="6.50697">
        <ele>915</ele>
      </trkpt>
      <trkpt lat="43.98253" lon="6.50704">
        <ele>915</ele>
      </trkpt>
      <trkpt lat="43.98244" lon="6.50709">
        <ele>915</ele>
      </trkpt>
      <trkpt lat="43.98234" lon="6.50715">
        <ele>915</ele>
      </trkpt>
      <trkpt lat="43.98223" lon="6.50718">
        <ele>916</ele>
      </trkpt>
      <trkpt lat="43.98214" lon="6.50722">
        <ele>916</ele>
      </trkpt>
      <trkpt lat="43.98207" lon="6.50726">
        <ele>916</ele>
      </trkpt>
      <trkpt lat="43.98199" lon="6.50736">
        <ele>915</ele>
      </trkpt>
      <trkpt lat="43.9819" lon="6.50743">
        <ele>916</ele>
      </trkpt>
      <trkpt lat="43.98183" lon="6.50752">
        <ele>916</ele>
      </trkpt>
      <trkpt lat="43.98178" lon="6.50756">
        <ele>916</ele>
      </trkpt>
      <trkpt lat="43.98174" lon="6.50759">
        <ele>916</ele>
      </trkpt>
      <trkpt lat="43.98169" lon="6.50762">
        <ele>916</ele>
      </trkpt>
      <trkpt lat="43.98149" lon="6.50748">
        <ele>917</ele>
      </trkpt>
      <trkpt lat="43.98142" lon="6.50745">
        <ele>917</ele>
      </trkpt>
      <trkpt lat="43.98136" lon="6.50741">
        <ele>917</ele>
      </trkpt>
      <trkpt lat="43.9813" lon="6.50735">
        <ele>918</ele>
      </trkpt>
      <trkpt lat="43.98121" lon="6.5073">
        <ele>918</ele>
      </trkpt>
      <trkpt lat="43.98112" lon="6.50727">
        <ele>918</ele>
      </trkpt>
      <trkpt lat="43.981" lon="6.50728">
        <ele>917</ele>
      </trkpt>
      <trkpt lat="43.98089" lon="6.50731">
        <ele>917</ele>
      </trkpt>
      <trkpt lat="43.98078" lon="6.50737">
        <ele>916</ele>
      </trkpt>
      <trkpt lat="43.98069" lon="6.50744">
        <ele>916</ele>
      </trkpt>
      <trkpt lat="43.9806" lon="6.50747">
        <ele>915</ele>
      </trkpt>
      <trkpt lat="43.98049" lon="6.50749">
        <ele>915</ele>
      </trkpt>
      <trkpt lat="43.98038" lon="6.5075">
        <ele>915</ele>
      </trkpt>
      <trkpt lat="43.98027" lon="6.50754">
        <ele>915</ele>
      </trkpt>
      <trkpt lat="43.98016" lon="6.50757">
        <ele>915</ele>
      </trkpt>
      <trkpt lat="43.98007" lon="6.50761">
        <ele>915</ele>
      </trkpt>
      <trkpt lat="43.97997" lon="6.50763">
        <ele>916</ele>
      </trkpt>
      <trkpt lat="43.97986" lon="6.50765">
        <ele>916</ele>
      </trkpt>
      <trkpt lat="43.97977" lon="6.5077">
        <ele>915</ele>
      </trkpt>
      <trkpt lat="43.97965" lon="6.50776">
        <ele>915</ele>
      </trkpt>
      <trkpt lat="43.97952" lon="6.50778">
        <ele>915</ele>
      </trkpt>
      <trkpt lat="43.97939" lon="6.5078">
        <ele>915</ele>
      </trkpt>
      <trkpt lat="43.97925" lon="6.50785">
        <ele>915</ele>
      </trkpt>
      <trkpt lat="43.9791" lon="6.50793">
        <ele>914</ele>
      </trkpt>
      <trkpt lat="43.97898" lon="6.50799">
        <ele>914</ele>
      </trkpt>
      <trkpt lat="43.97887" lon="6.50802">
        <ele>914</ele>
      </trkpt>
      <trkpt lat="43.97879" lon="6.50807">
        <ele>914</ele>
      </trkpt>
      <trkpt lat="43.97868" lon="6.50818">
        <ele>913</ele>
      </trkpt>
      <trkpt lat="43.97858" lon="6.50828">
        <ele>912</ele>
      </trkpt>
      <trkpt lat="43.97847" lon="6.50837">
        <ele>912</ele>
      </trkpt>
      <trkpt lat="43.97834" lon="6.50841">
        <ele>912</ele>
      </trkpt>
      <trkpt lat="43.9782" lon="6.50847">
        <ele>912</ele>
      </trkpt>
      <trkpt lat="43.9781" lon="6.50847">
        <ele>913</ele>
      </trkpt>
      <trkpt lat="43.978" lon="6.50847">
        <ele>913</ele>
      </trkpt>
      <trkpt lat="43.97786" lon="6.50847">
        <ele>914</ele>
      </trkpt>
      <trkpt lat="43.97778" lon="6.50847">
        <ele>914</ele>
      </trkpt>
      <trkpt lat="43.97767" lon="6.50852">
        <ele>914</ele>
      </trkpt>
      <trkpt lat="43.97756" lon="6.50855">
        <ele>914</ele>
      </trkpt>
      <trkpt lat="43.97738" lon="6.50863">
        <ele>913</ele>
      </trkpt>
      <trkpt lat="43.97726" lon="6.50869">
        <ele>912</ele>
      </trkpt>
      <trkpt lat="43.97716" lon="6.50872">
        <ele>911</ele>
      </trkpt>
      <trkpt lat="43.97706" lon="6.50876">
        <ele>910</ele>
      </trkpt>
      <trkpt lat="43.97699" lon="6.50877">
        <ele>910</ele>
      </trkpt>
      <trkpt lat="43.97692" lon="6.50879">
        <ele>909</ele>
      </trkpt>
      <trkpt lat="43.97687" lon="6.50882">
        <ele>909</ele>
      </trkpt>
      <trkpt lat="43.9768" lon="6.50883">
        <ele>908</ele>
      </trkpt>
      <trkpt lat="43.97674" lon="6.50886">
        <ele>908</ele>
      </trkpt>
      <trkpt lat="43.97668" lon="6.50886">
        <ele>908</ele>
      </trkpt>
      <trkpt lat="43.97661" lon="6.50889">
        <ele>908</ele>
      </trkpt>
      <trkpt lat="43.97654" lon="6.50892">
        <ele>908</ele>
      </trkpt>
      <trkpt lat="43.97649" lon="6.50896">
        <ele>908</ele>
      </trkpt>
      <trkpt lat="43.9764" lon="6.50903">
        <ele>908</ele>
      </trkpt>
      <trkpt lat="43.97631" lon="6.50909">
        <ele>908</ele>
      </trkpt>
      <trkpt lat="43.97623" lon="6.50914">
        <ele>908</ele>
      </trkpt>
      <trkpt lat="43.97615" lon="6.50918">
        <ele>908</ele>
      </trkpt>
      <trkpt lat="43.97607" lon="6.50923">
        <ele>908</ele>
      </trkpt>
      <trkpt lat="43.97599" lon="6.50925">
        <ele>908</ele>
      </trkpt>
      <trkpt lat="43.9759" lon="6.50926">
        <ele>908</ele>
      </trkpt>
      <trkpt lat="43.97583" lon="6.50924">
        <ele>908</ele>
      </trkpt>
      <trkpt lat="43.97575" lon="6.50921">
        <ele>909</ele>
      </trkpt>
      <trkpt lat="43.97567" lon="6.50917">
        <ele>909</ele>
      </trkpt>
      <trkpt lat="43.9756" lon="6.50914">
        <ele>910</ele>
      </trkpt>
      <trkpt lat="43.97553" lon="6.50911">
        <ele>910</ele>
      </trkpt>
      <trkpt lat="43.97539" lon="6.509">
        <ele>911</ele>
      </trkpt>
      <trkpt lat="43.97531" lon="6.50893">
        <ele>912</ele>
      </trkpt>
      <trkpt lat="43.97523" lon="6.50889">
        <ele>912</ele>
      </trkpt>
      <trkpt lat="43.97514" lon="6.50884">
        <ele>912</ele>
      </trkpt>
      <trkpt lat="43.97505" lon="6.50883">
        <ele>912</ele>
      </trkpt>
      <trkpt lat="43.97496" lon="6.5088">
        <ele>912</ele>
      </trkpt>
      <trkpt lat="43.97488" lon="6.50879">
        <ele>911</ele>
      </trkpt>
      <trkpt lat="43.97479" lon="6.50879">
        <ele>911</ele>
      </trkpt>
      <trkpt lat="43.97471" lon="6.50876">
        <ele>911</ele>
      </trkpt>
      <trkpt lat="43.97464" lon="6.50872">
        <ele>911</ele>
      </trkpt>
      <trkpt lat="43.97456" lon="6.50869">
        <ele>911</ele>
      </trkpt>
      <trkpt lat="43.97449" lon="6.50864">
        <ele>912</ele>
      </trkpt>
      <trkpt lat="43.97443" lon="6.5086">
        <ele>912</ele>
      </trkpt>
      <trkpt lat="43.97437" lon="6.50859">
        <ele>912</ele>
      </trkpt>
      <trkpt lat="43.97429" lon="6.50856">
        <ele>912</ele>
      </trkpt>
      <trkpt lat="43.97422" lon="6.50856">
        <ele>911</ele>
      </trkpt>
      <trkpt lat="43.97414" lon="6.50855">
        <ele>910</ele>
      </trkpt>
      <trkpt lat="43.97407" lon="6.50853">
        <ele>910</ele>
      </trkpt>
      <trkpt lat="43.97398" lon="6.50853">
        <ele>910</ele>
      </trkpt>
      <trkpt lat="43.97388" lon="6.50855">
        <ele>909</ele>
      </trkpt>
      <trkpt lat="43.9738" lon="6.50857">
        <ele>909</ele>
      </trkpt>
      <trkpt lat="43.97373" lon="6.50862">
        <ele>908</ele>
      </trkpt>
      <trkpt lat="43.97366" lon="6.50866">
        <ele>908</ele>
      </trkpt>
      <trkpt lat="43.97358" lon="6.50872">
        <ele>908</ele>
      </trkpt>
      <trkpt lat="43.97351" lon="6.5088">
        <ele>908</ele>
      </trkpt>
      <trkpt lat="43.97347" lon="6.50889">
        <ele>907</ele>
      </trkpt>
      <trkpt lat="43.97344" lon="6.50899">
        <ele>907</ele>
      </trkpt>
      <trkpt lat="43.97342" lon="6.50908">
        <ele>907</ele>
      </trkpt>
      <trkpt lat="43.9734" lon="6.50919">
        <ele>907</ele>
      </trkpt>
      <trkpt lat="43.97336" lon="6.50931">
        <ele>906</ele>
      </trkpt>
      <trkpt lat="43.97329" lon="6.50939">
        <ele>906</ele>
      </trkpt>
      <trkpt lat="43.97322" lon="6.50946">
        <ele>906</ele>
      </trkpt>
      <trkpt lat="43.97317" lon="6.5095">
        <ele>906</ele>
      </trkpt>
      <trkpt lat="43.97313" lon="6.50953">
        <ele>906</ele>
      </trkpt>
      <trkpt lat="43.97314" lon="6.50958">
        <ele>905</ele>
      </trkpt>
      <trkpt lat="43.97311" lon="6.50953">
        <ele>906</ele>
      </trkpt>
      <trkpt lat="43.97309" lon="6.50948">
        <ele>906</ele>
      </trkpt>
      <trkpt lat="43.97307" lon="6.50961">
        <ele>905</ele>
      </trkpt>
      <trkpt lat="43.97296" lon="6.50954">
        <ele>905</ele>
      </trkpt>
      <trkpt lat="43.97291" lon="6.5094">
        <ele>906</ele>
      </trkpt>
      <trkpt lat="43.9728" lon="6.50929">
        <ele>907</ele>
      </trkpt>
      <trkpt lat="43.97266" lon="6.50927">
        <ele>907</ele>
      </trkpt>
      <trkpt lat="43.97253" lon="6.50932">
        <ele>906</ele>
      </trkpt>
      <trkpt lat="43.97242" lon="6.50942">
        <ele>904</ele>
      </trkpt>
      <trkpt lat="43.97233" lon="6.50948">
        <ele>904</ele>
      </trkpt>
      <trkpt lat="43.97222" lon="6.50958">
        <ele>902</ele>
      </trkpt>
      <trkpt lat="43.97211" lon="6.50967">
        <ele>902</ele>
      </trkpt>
      <trkpt lat="43.972" lon="6.50978">
        <ele>901</ele>
      </trkpt>
      <trkpt lat="43.97189" lon="6.50991">
        <ele>901</ele>
      </trkpt>
      <trkpt lat="43.97177" lon="6.51007">
        <ele>900</ele>
      </trkpt>
      <trkpt lat="43.97168" lon="6.51024">
        <ele>899</ele>
      </trkpt>
      <trkpt lat="43.97157" lon="6.51041">
        <ele>899</ele>
      </trkpt>
      <trkpt lat="43.9715" lon="6.51055">
        <ele>898</ele>
      </trkpt>
      <trkpt lat="43.9713" lon="6.51068">
        <ele>898</ele>
      </trkpt>
      <trkpt lat="43.97102" lon="6.5108">
        <ele>897</ele>
      </trkpt>
      <trkpt lat="43.97077" lon="6.51094">
        <ele>897</ele>
      </trkpt>
      <trkpt lat="43.97061" lon="6.51098">
        <ele>897</ele>
      </trkpt>
      <trkpt lat="43.97051" lon="6.51094">
        <ele>896</ele>
      </trkpt>
      <trkpt lat="43.97049" lon="6.51083">
        <ele>897</ele>
      </trkpt>
      <trkpt lat="43.97037" lon="6.51092">
        <ele>896</ele>
      </trkpt>
      <trkpt lat="43.97024" lon="6.51094">
        <ele>896</ele>
      </trkpt>
      <trkpt lat="43.97016" lon="6.51094">
        <ele>896</ele>
      </trkpt>
      <trkpt lat="43.97006" lon="6.51096">
        <ele>896</ele>
      </trkpt>
      <trkpt lat="43.96994" lon="6.511">
        <ele>896</ele>
      </trkpt>
      <trkpt lat="43.96982" lon="6.511">
        <ele>896</ele>
      </trkpt>
      <trkpt lat="43.9697" lon="6.51098">
        <ele>896</ele>
      </trkpt>
      <trkpt lat="43.96959" lon="6.511">
        <ele>895</ele>
      </trkpt>
      <trkpt lat="43.96947" lon="6.51099">
        <ele>895</ele>
      </trkpt>
      <trkpt lat="43.96935" lon="6.51095">
        <ele>895</ele>
      </trkpt>
      <trkpt lat="43.96925" lon="6.51081">
        <ele>895</ele>
      </trkpt>
      <trkpt lat="43.96917" lon="6.51064">
        <ele>895</ele>
      </trkpt>
      <trkpt lat="43.96907" lon="6.51049">
        <ele>895</ele>
      </trkpt>
      <trkpt lat="43.96897" lon="6.51038">
        <ele>895</ele>
      </trkpt>
      <trkpt lat="43.9689" lon="6.51027">
        <ele>895</ele>
      </trkpt>
      <trkpt lat="43.96883" lon="6.51012">
        <ele>895</ele>
      </trkpt>
      <trkpt lat="43.9687" lon="6.51004">
        <ele>895</ele>
      </trkpt>
      <trkpt lat="43.96864" lon="6.5099">
        <ele>895</ele>
      </trkpt>
      <trkpt lat="43.96853" lon="6.50982">
        <ele>894</ele>
      </trkpt>
      <trkpt lat="43.96844" lon="6.50972">
        <ele>895</ele>
      </trkpt>
      <trkpt lat="43.96836" lon="6.50963">
        <ele>895</ele>
      </trkpt>
      <trkpt lat="43.96826" lon="6.50953">
        <ele>895</ele>
      </trkpt>
      <trkpt lat="43.96801" lon="6.50952">
        <ele>895</ele>
      </trkpt>
      <trkpt lat="43.96798" lon="6.50943">
        <ele>895</ele>
      </trkpt>
      <trkpt lat="43.96793" lon="6.50932">
        <ele>895</ele>
      </trkpt>
      <trkpt lat="43.96788" lon="6.50925">
        <ele>895</ele>
      </trkpt>
      <trkpt lat="43.96782" lon="6.50928">
        <ele>895</ele>
      </trkpt>
      <trkpt lat="43.96766" lon="6.50919">
        <ele>894</ele>
      </trkpt>
      <trkpt lat="43.9675" lon="6.50908">
        <ele>894</ele>
      </trkpt>
      <trkpt lat="43.96738" lon="6.50892">
        <ele>894</ele>
      </trkpt>
      <trkpt lat="43.96723" lon="6.50885">
        <ele>894</ele>
      </trkpt>
      <trkpt lat="43.96706" lon="6.50875">
        <ele>894</ele>
      </trkpt>
      <trkpt lat="43.96693" lon="6.50868">
        <ele>893</ele>
      </trkpt>
      <trkpt lat="43.96681" lon="6.50856">
        <ele>893</ele>
      </trkpt>
      <trkpt lat="43.96668" lon="6.50849">
        <ele>893</ele>
      </trkpt>
      <trkpt lat="43.96656" lon="6.50841">
        <ele>893</ele>
      </trkpt>
      <trkpt lat="43.96644" lon="6.50833">
        <ele>893</ele>
      </trkpt>
      <trkpt lat="43.96631" lon="6.50823">
        <ele>893</ele>
      </trkpt>
      <trkpt lat="43.96615" lon="6.50808">
        <ele>893</ele>
      </trkpt>
      <trkpt lat="43.96587" lon="6.50787">
        <ele>892</ele>
      </trkpt>
      <trkpt lat="43.96559" lon="6.50762">
        <ele>892</ele>
      </trkpt>
      <trkpt lat="43.96535" lon="6.50741">
        <ele>892</ele>
      </trkpt>
      <trkpt lat="43.96511" lon="6.50723">
        <ele>892</ele>
      </trkpt>
      <trkpt lat="43.96493" lon="6.50709">
        <ele>892</ele>
      </trkpt>
      <trkpt lat="43.96471" lon="6.5069">
        <ele>892</ele>
      </trkpt>
      <trkpt lat="43.9646" lon="6.50672">
        <ele>892</ele>
      </trkpt>
      <trkpt lat="43.96451" lon="6.50645">
        <ele>893</ele>
      </trkpt>
      <trkpt lat="43.96447" lon="6.50626">
        <ele>894</ele>
      </trkpt>
      <trkpt lat="43.96449" lon="6.50599">
        <ele>895</ele>
      </trkpt>
      <trkpt lat="43.96451" lon="6.50578">
        <ele>896</ele>
      </trkpt>
      <trkpt lat="43.96453" lon="6.50563">
        <ele>897</ele>
      </trkpt>
      <trkpt lat="43.96452" lon="6.5054">
        <ele>898</ele>
      </trkpt>
      <trkpt lat="43.96448" lon="6.50529">
        <ele>899</ele>
      </trkpt>
      <trkpt lat="43.96439" lon="6.50522">
        <ele>899</ele>
      </trkpt>
      <trkpt lat="43.96418" lon="6.50515">
        <ele>899</ele>
      </trkpt>
      <trkpt lat="43.964" lon="6.50513">
        <ele>899</ele>
      </trkpt>
      <trkpt lat="43.96378" lon="6.50507">
        <ele>899</ele>
      </trkpt>
      <trkpt lat="43.96355" lon="6.50495">
        <ele>899</ele>
      </trkpt>
      <trkpt lat="43.96324" lon="6.50476">
        <ele>899</ele>
      </trkpt>
      <trkpt lat="43.96301" lon="6.50459">
        <ele>899</ele>
      </trkpt>
      <trkpt lat="43.96284" lon="6.50439">
        <ele>900</ele>
      </trkpt>
      <trkpt lat="43.96269" lon="6.50417">
        <ele>900</ele>
      </trkpt>
      <trkpt lat="43.96254" lon="6.50395">
        <ele>900</ele>
      </trkpt>
      <trkpt lat="43.96245" lon="6.50373">
        <ele>901</ele>
      </trkpt>
      <trkpt lat="43.96238" lon="6.50357">
        <ele>902</ele>
      </trkpt>
      <trkpt lat="43.96229" lon="6.50339">
        <ele>902</ele>
      </trkpt>
      <trkpt lat="43.9622" lon="6.50319">
        <ele>903</ele>
      </trkpt>
      <trkpt lat="43.96217" lon="6.50301">
        <ele>905</ele>
      </trkpt>
      <trkpt lat="43.96216" lon="6.50299">
        <ele>905</ele>
      </trkpt>
      <trkpt lat="43.96216" lon="6.50287">
        <ele>906</ele>
      </trkpt>
      <trkpt lat="43.96216" lon="6.50269">
        <ele>907</ele>
      </trkpt>
      <trkpt lat="43.96215" lon="6.50252">
        <ele>908</ele>
      </trkpt>
      <trkpt lat="43.96208" lon="6.50237">
        <ele>909</ele>
      </trkpt>
      <trkpt lat="43.96196" lon="6.50225">
        <ele>910</ele>
      </trkpt>
      <trkpt lat="43.96183" lon="6.5021">
        <ele>911</ele>
      </trkpt>
      <trkpt lat="43.9617" lon="6.50198">
        <ele>911</ele>
      </trkpt>
      <trkpt lat="43.96155" lon="6.50191">
        <ele>911</ele>
      </trkpt>
      <trkpt lat="43.96144" lon="6.50187">
        <ele>911</ele>
      </trkpt>
      <trkpt lat="43.96136" lon="6.50186">
        <ele>911</ele>
      </trkpt>
      <trkpt lat="43.96131" lon="6.50185">
        <ele>911</ele>
      </trkpt>
      <trkpt lat="43.96109" lon="6.50176">
        <ele>911</ele>
      </trkpt>
      <trkpt lat="43.96096" lon="6.50182">
        <ele>910</ele>
      </trkpt>
      <trkpt lat="43.96078" lon="6.50185">
        <ele>910</ele>
      </trkpt>
      <trkpt lat="43.96049" lon="6.50181">
        <ele>910</ele>
      </trkpt>
      <trkpt lat="43.9603" lon="6.5018">
        <ele>910</ele>
      </trkpt>
      <trkpt lat="43.96016" lon="6.50173">
        <ele>911</ele>
      </trkpt>
      <trkpt lat="43.96007" lon="6.50161">
        <ele>912</ele>
      </trkpt>
      <trkpt lat="43.95998" lon="6.5015">
        <ele>913</ele>
      </trkpt>
      <trkpt lat="43.95993" lon="6.50141">
        <ele>914</ele>
      </trkpt>
      <trkpt lat="43.95991" lon="6.50127">
        <ele>914</ele>
      </trkpt>
      <trkpt lat="43.9599" lon="6.50114">
        <ele>915</ele>
      </trkpt>
      <trkpt lat="43.95989" lon="6.50109">
        <ele>915</ele>
      </trkpt>
      <trkpt lat="43.95987" lon="6.50107">
        <ele>915</ele>
      </trkpt>
      <trkpt lat="43.95981" lon="6.5011">
        <ele>916</ele>
      </trkpt>
      <trkpt lat="43.95979" lon="6.50113">
        <ele>916</ele>
      </trkpt>
      <trkpt lat="43.95978" lon="6.50116">
        <ele>916</ele>
      </trkpt>
      <trkpt lat="43.95977" lon="6.50129">
        <ele>915</ele>
      </trkpt>
      <trkpt lat="43.95972" lon="6.50139">
        <ele>915</ele>
      </trkpt>
      <trkpt lat="43.95969" lon="6.5014">
        <ele>915</ele>
      </trkpt>
      <trkpt lat="43.95958" lon="6.50141">
        <ele>915</ele>
      </trkpt>
      <trkpt lat="43.95948" lon="6.5014">
        <ele>916</ele>
      </trkpt>
      <trkpt lat="43.95936" lon="6.50137">
        <ele>917</ele>
      </trkpt>
      <trkpt lat="43.95925" lon="6.50135">
        <ele>919</ele>
      </trkpt>
      <trkpt lat="43.95915" lon="6.50133">
        <ele>920</ele>
      </trkpt>
      <trkpt lat="43.95904" lon="6.50129">
        <ele>922</ele>
      </trkpt>
      <trkpt lat="43.95897" lon="6.50131">
        <ele>923</ele>
      </trkpt>
      <trkpt lat="43.95895" lon="6.50132">
        <ele>923</ele>
      </trkpt>
      <trkpt lat="43.95887" lon="6.50146">
        <ele>923</ele>
      </trkpt>
      <trkpt lat="43.95878" lon="6.50158">
        <ele>923</ele>
      </trkpt>
      <trkpt lat="43.95866" lon="6.50171">
        <ele>924</ele>
      </trkpt>
      <trkpt lat="43.95857" lon="6.50181">
        <ele>924</ele>
      </trkpt>
      <trkpt lat="43.95849" lon="6.50195">
        <ele>925</ele>
      </trkpt>
      <trkpt lat="43.95838" lon="6.50208">
        <ele>925</ele>
      </trkpt>
      <trkpt lat="43.95836" lon="6.50209">
        <ele>925</ele>
      </trkpt>
      <trkpt lat="43.95835" lon="6.50209">
        <ele>925</ele>
      </trkpt>
      <trkpt lat="43.95833" lon="6.50204">
        <ele>926</ele>
      </trkpt>
      <trkpt lat="43.95824" lon="6.50191">
        <ele>927</ele>
      </trkpt>
      <trkpt lat="43.95818" lon="6.50183">
        <ele>929</ele>
      </trkpt>
      <trkpt lat="43.95813" lon="6.50176">
        <ele>930</ele>
      </trkpt>
      <trkpt lat="43.95807" lon="6.50167">
        <ele>931</ele>
      </trkpt>
      <trkpt lat="43.95802" lon="6.50161">
        <ele>931</ele>
      </trkpt>
      <trkpt lat="43.95794" lon="6.50151">
        <ele>933</ele>
      </trkpt>
      <trkpt lat="43.95788" lon="6.50142">
        <ele>934</ele>
      </trkpt>
      <trkpt lat="43.95781" lon="6.5013">
        <ele>935</ele>
      </trkpt>
      <trkpt lat="43.95778" lon="6.50118">
        <ele>936</ele>
      </trkpt>
      <trkpt lat="43.95778" lon="6.50112">
        <ele>937</ele>
      </trkpt>
      <trkpt lat="43.95785" lon="6.50093">
        <ele>937</ele>
      </trkpt>
      <trkpt lat="43.95788" lon="6.50078">
        <ele>938</ele>
      </trkpt>
      <trkpt lat="43.95792" lon="6.5006">
        <ele>939</ele>
      </trkpt>
      <trkpt lat="43.95794" lon="6.50045">
        <ele>940</ele>
      </trkpt>
      <trkpt lat="43.95797" lon="6.50029">
        <ele>941</ele>
      </trkpt>
      <trkpt lat="43.95803" lon="6.50018">
        <ele>942</ele>
      </trkpt>
      <trkpt lat="43.95811" lon="6.50008">
        <ele>942</ele>
      </trkpt>
      <trkpt lat="43.95821" lon="6.49997">
        <ele>942</ele>
      </trkpt>
      <trkpt lat="43.9583" lon="6.49988">
        <ele>943</ele>
      </trkpt>
      <trkpt lat="43.95842" lon="6.49979">
        <ele>943</ele>
      </trkpt>
      <trkpt lat="43.95853" lon="6.49971">
        <ele>943</ele>
      </trkpt>
      <trkpt lat="43.95864" lon="6.49957">
        <ele>943</ele>
      </trkpt>
      <trkpt lat="43.95871" lon="6.49947">
        <ele>943</ele>
      </trkpt>
      <trkpt lat="43.95873" lon="6.49935">
        <ele>944</ele>
      </trkpt>
      <trkpt lat="43.9587" lon="6.49923">
        <ele>946</ele>
      </trkpt>
      <trkpt lat="43.95866" lon="6.49911">
        <ele>948</ele>
      </trkpt>
      <trkpt lat="43.95866" lon="6.499">
        <ele>949</ele>
      </trkpt>
      <trkpt lat="43.95868" lon="6.49894">
        <ele>949</ele>
      </trkpt>
      <trkpt lat="43.95872" lon="6.49887">
        <ele>949</ele>
      </trkpt>
      <trkpt lat="43.95877" lon="6.49875">
        <ele>949</ele>
      </trkpt>
      <trkpt lat="43.95879" lon="6.4987">
        <ele>950</ele>
      </trkpt>
      <trkpt lat="43.95884" lon="6.49862">
        <ele>951</ele>
      </trkpt>
      <trkpt lat="43.95888" lon="6.49854">
        <ele>951</ele>
      </trkpt>
      <trkpt lat="43.95893" lon="6.49843">
        <ele>953</ele>
      </trkpt>
      <trkpt lat="43.95898" lon="6.49837">
        <ele>954</ele>
      </trkpt>
      <trkpt lat="43.95899" lon="6.49833">
        <ele>954</ele>
      </trkpt>
      <trkpt lat="43.95905" lon="6.49827">
        <ele>955</ele>
      </trkpt>
      <trkpt lat="43.95913" lon="6.49822">
        <ele>955</ele>
      </trkpt>
      <trkpt lat="43.95914" lon="6.49821">
        <ele>955</ele>
      </trkpt>
      <trkpt lat="43.95918" lon="6.49816">
        <ele>956</ele>
      </trkpt>
      <trkpt lat="43.95921" lon="6.49811">
        <ele>956</ele>
      </trkpt>
      <trkpt lat="43.95926" lon="6.49798">
        <ele>958</ele>
      </trkpt>
      <trkpt lat="43.95928" lon="6.49792">
        <ele>959</ele>
      </trkpt>
      <trkpt lat="43.95934" lon="6.49776">
        <ele>962</ele>
      </trkpt>
      <trkpt lat="43.95936" lon="6.4977">
        <ele>963</ele>
      </trkpt>
      <trkpt lat="43.95939" lon="6.49763">
        <ele>963</ele>
      </trkpt>
      <trkpt lat="43.95944" lon="6.49752">
        <ele>964</ele>
      </trkpt>
      <trkpt lat="43.95946" lon="6.49745">
        <ele>964</ele>
      </trkpt>
      <trkpt lat="43.95942" lon="6.49746">
        <ele>965</ele>
      </trkpt>
      <trkpt lat="43.95933" lon="6.49756">
        <ele>966</ele>
      </trkpt>
      <trkpt lat="43.9593" lon="6.4976">
        <ele>966</ele>
      </trkpt>
      <trkpt lat="43.95921" lon="6.49766">
        <ele>967</ele>
      </trkpt>
      <trkpt lat="43.95904" lon="6.49783">
        <ele>966</ele>
      </trkpt>
      <trkpt lat="43.95886" lon="6.49801">
        <ele>964</ele>
      </trkpt>
      <trkpt lat="43.95882" lon="6.49805">
        <ele>963</ele>
      </trkpt>
      <trkpt lat="43.95869" lon="6.49816">
        <ele>962</ele>
      </trkpt>
      <trkpt lat="43.95847" lon="6.49837">
        <ele>963</ele>
      </trkpt>
      <trkpt lat="43.9584" lon="6.49843">
        <ele>963</ele>
      </trkpt>
      <trkpt lat="43.95818" lon="6.49864">
        <ele>965</ele>
      </trkpt>
      <trkpt lat="43.958" lon="6.49882">
        <ele>965</ele>
      </trkpt>
      <trkpt lat="43.95784" lon="6.49897">
        <ele>964</ele>
      </trkpt>
      <trkpt lat="43.95764" lon="6.49905">
        <ele>964</ele>
      </trkpt>
      <trkpt lat="43.9574" lon="6.49918">
        <ele>964</ele>
      </trkpt>
      <trkpt lat="43.95728" lon="6.49943">
        <ele>962</ele>
      </trkpt>
      <trkpt lat="43.95721" lon="6.49967">
        <ele>960</ele>
      </trkpt>
      <trkpt lat="43.95707" lon="6.49989">
        <ele>960</ele>
      </trkpt>
      <trkpt lat="43.95688" lon="6.50014">
        <ele>960</ele>
      </trkpt>
      <trkpt lat="43.95673" lon="6.5003">
        <ele>961</ele>
      </trkpt>
      <trkpt lat="43.95654" lon="6.50047">
        <ele>962</ele>
      </trkpt>
      <trkpt lat="43.95635" lon="6.50065">
        <ele>962</ele>
      </trkpt>
      <trkpt lat="43.95617" lon="6.50084">
        <ele>962</ele>
      </trkpt>
      <trkpt lat="43.95604" lon="6.50101">
        <ele>962</ele>
      </trkpt>
      <trkpt lat="43.95596" lon="6.50112">
        <ele>962</ele>
      </trkpt>
      <trkpt lat="43.95598" lon="6.50131">
        <ele>962</ele>
      </trkpt>
      <trkpt lat="43.956" lon="6.50154">
        <ele>963</ele>
      </trkpt>
      <trkpt lat="43.95593" lon="6.50167">
        <ele>964</ele>
      </trkpt>
      <trkpt lat="43.95582" lon="6.50185">
        <ele>963</ele>
      </trkpt>
      <trkpt lat="43.95576" lon="6.50193">
        <ele>963</ele>
      </trkpt>
      <trkpt lat="43.9557" lon="6.50201">
        <ele>963</ele>
      </trkpt>
      <trkpt lat="43.95564" lon="6.50208">
        <ele>963</ele>
      </trkpt>
      <trkpt lat="43.95555" lon="6.50214">
        <ele>964</ele>
      </trkpt>
      <trkpt lat="43.95547" lon="6.50221">
        <ele>964</ele>
      </trkpt>
      <trkpt lat="43.95542" lon="6.50228">
        <ele>965</ele>
      </trkpt>
      <trkpt lat="43.9554" lon="6.5023">
        <ele>965</ele>
      </trkpt>
      <trkpt lat="43.95536" lon="6.50235">
        <ele>966</ele>
      </trkpt>
      <trkpt lat="43.95537" lon="6.5024">
        <ele>966</ele>
      </trkpt>
      <trkpt lat="43.95543" lon="6.50258">
        <ele>965</ele>
      </trkpt>
      <trkpt lat="43.95546" lon="6.50268">
        <ele>965</ele>
      </trkpt>
      <trkpt lat="43.95555" lon="6.50297">
        <ele>963</ele>
      </trkpt>
      <trkpt lat="43.95568" lon="6.50318">
        <ele>959</ele>
      </trkpt>
      <trkpt lat="43.95585" lon="6.50347">
        <ele>953</ele>
      </trkpt>
      <trkpt lat="43.95588" lon="6.50352">
        <ele>952</ele>
      </trkpt>
      <trkpt lat="43.956" lon="6.50376">
        <ele>945</ele>
      </trkpt>
      <trkpt lat="43.95598" lon="6.50389">
        <ele>945</ele>
      </trkpt>
      <trkpt lat="43.95589" lon="6.50426">
        <ele>943</ele>
      </trkpt>
      <trkpt lat="43.95588" lon="6.50431">
        <ele>943</ele>
      </trkpt>
      <trkpt lat="43.95586" lon="6.50432">
        <ele>943</ele>
      </trkpt>
      <trkpt lat="43.95585" lon="6.50435">
        <ele>943</ele>
      </trkpt>
      <trkpt lat="43.95583" lon="6.50437">
        <ele>944</ele>
      </trkpt>
      <trkpt lat="43.95576" lon="6.50449">
        <ele>945</ele>
      </trkpt>
      <trkpt lat="43.95575" lon="6.50453">
        <ele>945</ele>
      </trkpt>
      <trkpt lat="43.95572" lon="6.50464">
        <ele>944</ele>
      </trkpt>
      <trkpt lat="43.95572" lon="6.50466">
        <ele>944</ele>
      </trkpt>
      <trkpt lat="43.95574" lon="6.50468">
        <ele>943</ele>
      </trkpt>
      <trkpt lat="43.95571" lon="6.50474">
        <ele>944</ele>
      </trkpt>
      <trkpt lat="43.95567" lon="6.50478">
        <ele>944</ele>
      </trkpt>
      <trkpt lat="43.95565" lon="6.50487">
        <ele>944</ele>
      </trkpt>
      <trkpt lat="43.95563" lon="6.50501">
        <ele>944</ele>
      </trkpt>
      <trkpt lat="43.9556" lon="6.50522">
        <ele>944</ele>
      </trkpt>
      <trkpt lat="43.95556" lon="6.50539">
        <ele>945</ele>
      </trkpt>
      <trkpt lat="43.95554" lon="6.50548">
        <ele>945</ele>
      </trkpt>
      <trkpt lat="43.95561" lon="6.50568">
        <ele>942</ele>
      </trkpt>
      <trkpt lat="43.9557" lon="6.50586">
        <ele>938</ele>
      </trkpt>
      <trkpt lat="43.9557" lon="6.50593">
        <ele>938</ele>
      </trkpt>
      <trkpt lat="43.95571" lon="6.5061">
        <ele>936</ele>
      </trkpt>
      <trkpt lat="43.95572" lon="6.50619">
        <ele>935</ele>
      </trkpt>
      <trkpt lat="43.95571" lon="6.50637">
        <ele>932</ele>
      </trkpt>
      <trkpt lat="43.95563" lon="6.50644">
        <ele>933</ele>
      </trkpt>
      <trkpt lat="43.95554" lon="6.50651">
        <ele>934</ele>
      </trkpt>
      <trkpt lat="43.95545" lon="6.50658">
        <ele>936</ele>
      </trkpt>
      <trkpt lat="43.95544" lon="6.50659">
        <ele>936</ele>
      </trkpt>
      <trkpt lat="43.9554" lon="6.50665">
        <ele>936</ele>
      </trkpt>
      <trkpt lat="43.95535" lon="6.50681">
        <ele>933</ele>
      </trkpt>
      <trkpt lat="43.9553" lon="6.50688">
        <ele>933</ele>
      </trkpt>
      <trkpt lat="43.95524" lon="6.50699">
        <ele>932</ele>
      </trkpt>
      <trkpt lat="43.95527" lon="6.50703">
        <ele>930</ele>
      </trkpt>
      <trkpt lat="43.95526" lon="6.50704">
        <ele>930</ele>
      </trkpt>
      <trkpt lat="43.95522" lon="6.5071">
        <ele>930</ele>
      </trkpt>
      <trkpt lat="43.95517" lon="6.50714">
        <ele>931</ele>
      </trkpt>
      <trkpt lat="43.95509" lon="6.50721">
        <ele>932</ele>
      </trkpt>
      <trkpt lat="43.95501" lon="6.5073">
        <ele>931</ele>
      </trkpt>
      <trkpt lat="43.95491" lon="6.50737">
        <ele>931</ele>
      </trkpt>
      <trkpt lat="43.95484" lon="6.50742">
        <ele>931</ele>
      </trkpt>
      <trkpt lat="43.95479" lon="6.50748">
        <ele>930</ele>
      </trkpt>
      <trkpt lat="43.95478" lon="6.5075">
        <ele>929</ele>
      </trkpt>
      <trkpt lat="43.95478" lon="6.50752">
        <ele>929</ele>
      </trkpt>
      <trkpt lat="43.9547" lon="6.50759">
        <ele>929</ele>
      </trkpt>
      <trkpt lat="43.95459" lon="6.50772">
        <ele>927</ele>
      </trkpt>
      <trkpt lat="43.9545" lon="6.5078">
        <ele>925</ele>
      </trkpt>
      <trkpt lat="43.95442" lon="6.50784">
        <ele>924</ele>
      </trkpt>
      <trkpt lat="43.9543" lon="6.50775">
        <ele>928</ele>
      </trkpt>
      <trkpt lat="43.95414" lon="6.50764">
        <ele>932</ele>
      </trkpt>
      <trkpt lat="43.95405" lon="6.50762">
        <ele>932</ele>
      </trkpt>
      <trkpt lat="43.95397" lon="6.50759">
        <ele>933</ele>
      </trkpt>
      <trkpt lat="43.95374" lon="6.50756">
        <ele>934</ele>
      </trkpt>
      <trkpt lat="43.9537" lon="6.50763">
        <ele>933</ele>
      </trkpt>
      <trkpt lat="43.95376" lon="6.50775">
        <ele>929</ele>
      </trkpt>
      <trkpt lat="43.95379" lon="6.50788">
        <ele>927</ele>
      </trkpt>
      <trkpt lat="43.9538" lon="6.50809">
        <ele>923</ele>
      </trkpt>
      <trkpt lat="43.95379" lon="6.50815">
        <ele>923</ele>
      </trkpt>
      <trkpt lat="43.9537" lon="6.50822">
        <ele>924</ele>
      </trkpt>
      <trkpt lat="43.95365" lon="6.50816">
        <ele>926</ele>
      </trkpt>
      <trkpt lat="43.95366" lon="6.50811">
        <ele>926</ele>
      </trkpt>
      <trkpt lat="43.95367" lon="6.50794">
        <ele>928</ele>
      </trkpt>
      <trkpt lat="43.95367" lon="6.50791">
        <ele>928</ele>
      </trkpt>
      <trkpt lat="43.95357" lon="6.50789">
        <ele>931</ele>
      </trkpt>
      <trkpt lat="43.95349" lon="6.50796">
        <ele>932</ele>
      </trkpt>
      <trkpt lat="43.9534" lon="6.50811">
        <ele>932</ele>
      </trkpt>
      <trkpt lat="43.95335" lon="6.50821">
        <ele>932</ele>
      </trkpt>
      <trkpt lat="43.95326" lon="6.50837">
        <ele>931</ele>
      </trkpt>
      <trkpt lat="43.95322" lon="6.50849">
        <ele>928</ele>
      </trkpt>
      <trkpt lat="43.95314" lon="6.50861">
        <ele>927</ele>
      </trkpt>
      <trkpt lat="43.95304" lon="6.50864">
        <ele>927</ele>
      </trkpt>
      <trkpt lat="43.95297" lon="6.50851">
        <ele>932</ele>
      </trkpt>
      <trkpt lat="43.95302" lon="6.50837">
        <ele>935</ele>
      </trkpt>
      <trkpt lat="43.95313" lon="6.50823">
        <ele>935</ele>
      </trkpt>
      <trkpt lat="43.95314" lon="6.50821">
        <ele>935</ele>
      </trkpt>
      <trkpt lat="43.95317" lon="6.50815">
        <ele>935</ele>
      </trkpt>
      <trkpt lat="43.95316" lon="6.50801">
        <ele>937</ele>
      </trkpt>
      <trkpt lat="43.95313" lon="6.50795">
        <ele>939</ele>
      </trkpt>
      <trkpt lat="43.95307" lon="6.50788">
        <ele>940</ele>
      </trkpt>
      <trkpt lat="43.95298" lon="6.50784">
        <ele>942</ele>
      </trkpt>
      <trkpt lat="43.95296" lon="6.50784">
        <ele>943</ele>
      </trkpt>
      <trkpt lat="43.9529" lon="6.50786">
        <ele>944</ele>
      </trkpt>
      <trkpt lat="43.95273" lon="6.50793">
        <ele>946</ele>
      </trkpt>
      <trkpt lat="43.95263" lon="6.50806">
        <ele>948</ele>
      </trkpt>
      <trkpt lat="43.95258" lon="6.50824">
        <ele>947</ele>
      </trkpt>
      <trkpt lat="43.95257" lon="6.50831">
        <ele>947</ele>
      </trkpt>
      <trkpt lat="43.95255" lon="6.50844">
        <ele>944</ele>
      </trkpt>
      <trkpt lat="43.95247" lon="6.50853">
        <ele>943</ele>
      </trkpt>
      <trkpt lat="43.95239" lon="6.50846">
        <ele>947</ele>
      </trkpt>
      <trkpt lat="43.95238" lon="6.50836">
        <ele>950</ele>
      </trkpt>
      <trkpt lat="43.95242" lon="6.50812">
        <ele>953</ele>
      </trkpt>
      <trkpt lat="43.95244" lon="6.50787">
        <ele>954</ele>
      </trkpt>
      <trkpt lat="43.95248" lon="6.50769">
        <ele>954</ele>
      </trkpt>
      <trkpt lat="43.95251" lon="6.50754">
        <ele>955</ele>
      </trkpt>
      <trkpt lat="43.95257" lon="6.50735">
        <ele>956</ele>
      </trkpt>
      <trkpt lat="43.95261" lon="6.50721">
        <ele>957</ele>
      </trkpt>
      <trkpt lat="43.95269" lon="6.50697">
        <ele>958</ele>
      </trkpt>
      <trkpt lat="43.95266" lon="6.50691">
        <ele>960</ele>
      </trkpt>
      <trkpt lat="43.95256" lon="6.50694">
        <ele>962</ele>
      </trkpt>
      <trkpt lat="43.95254" lon="6.50698">
        <ele>961</ele>
      </trkpt>
      <trkpt lat="43.95244" lon="6.50719">
        <ele>960</ele>
      </trkpt>
      <trkpt lat="43.95237" lon="6.50736">
        <ele>961</ele>
      </trkpt>
      <trkpt lat="43.95224" lon="6.50754">
        <ele>962</ele>
      </trkpt>
      <trkpt lat="43.95214" lon="6.50764">
        <ele>964</ele>
      </trkpt>
      <trkpt lat="43.95199" lon="6.50777">
        <ele>967</ele>
      </trkpt>
      <trkpt lat="43.95187" lon="6.50789">
        <ele>968</ele>
      </trkpt>
      <trkpt lat="43.95175" lon="6.50806">
        <ele>968</ele>
      </trkpt>
      <trkpt lat="43.95162" lon="6.50824">
        <ele>968</ele>
      </trkpt>
      <trkpt lat="43.95152" lon="6.50832">
        <ele>967</ele>
      </trkpt>
      <trkpt lat="43.95137" lon="6.50838">
        <ele>966</ele>
      </trkpt>
      <trkpt lat="43.9512" lon="6.50834">
        <ele>967</ele>
      </trkpt>
      <trkpt lat="43.95102" lon="6.50822">
        <ele>970</ele>
      </trkpt>
      <trkpt lat="43.95098" lon="6.50819">
        <ele>971</ele>
      </trkpt>
      <trkpt lat="43.95094" lon="6.50818">
        <ele>971</ele>
      </trkpt>
      <trkpt lat="43.9509" lon="6.50812">
        <ele>972</ele>
      </trkpt>
      <trkpt lat="43.95079" lon="6.50806">
        <ele>974</ele>
      </trkpt>
      <trkpt lat="43.95066" lon="6.50803">
        <ele>974</ele>
      </trkpt>
      <trkpt lat="43.95051" lon="6.50803">
        <ele>975</ele>
      </trkpt>
      <trkpt lat="43.95039" lon="6.50791">
        <ele>978</ele>
      </trkpt>
      <trkpt lat="43.95026" lon="6.50782">
        <ele>981</ele>
      </trkpt>
      <trkpt lat="43.95011" lon="6.50781">
        <ele>982</ele>
      </trkpt>
      <trkpt lat="43.94998" lon="6.50781">
        <ele>984</ele>
      </trkpt>
      <trkpt lat="43.94994" lon="6.50777">
        <ele>985</ele>
      </trkpt>
      <trkpt lat="43.94996" lon="6.50764">
        <ele>988</ele>
      </trkpt>
      <trkpt lat="43.94997" lon="6.50763">
        <ele>988</ele>
      </trkpt>
      <trkpt lat="43.95013" lon="6.50762">
        <ele>987</ele>
      </trkpt>
      <trkpt lat="43.95029" lon="6.50761">
        <ele>986</ele>
      </trkpt>
      <trkpt lat="43.95044" lon="6.50755">
        <ele>987</ele>
      </trkpt>
      <trkpt lat="43.95059" lon="6.50752">
        <ele>987</ele>
      </trkpt>
      <trkpt lat="43.95073" lon="6.5075">
        <ele>987</ele>
      </trkpt>
      <trkpt lat="43.95086" lon="6.50744">
        <ele>987</ele>
      </trkpt>
      <trkpt lat="43.95096" lon="6.50732">
        <ele>989</ele>
      </trkpt>
      <trkpt lat="43.95108" lon="6.50712">
        <ele>991</ele>
      </trkpt>
      <trkpt lat="43.95119" lon="6.50696">
        <ele>992</ele>
      </trkpt>
      <trkpt lat="43.95133" lon="6.50684">
        <ele>993</ele>
      </trkpt>
      <trkpt lat="43.95153" lon="6.50671">
        <ele>992</ele>
      </trkpt>
      <trkpt lat="43.9517" lon="6.5066">
        <ele>991</ele>
      </trkpt>
      <trkpt lat="43.95178" lon="6.5065">
        <ele>991</ele>
      </trkpt>
      <trkpt lat="43.95173" lon="6.50636">
        <ele>995</ele>
      </trkpt>
      <trkpt lat="43.9516" lon="6.50643">
        <ele>996</ele>
      </trkpt>
      <trkpt lat="43.95142" lon="6.50665">
        <ele>995</ele>
      </trkpt>
      <trkpt lat="43.95121" lon="6.50672">
        <ele>997</ele>
      </trkpt>
      <trkpt lat="43.95105" lon="6.50675">
        <ele>999</ele>
      </trkpt>
      <trkpt lat="43.95088" lon="6.50682">
        <ele>1001</ele>
      </trkpt>
      <trkpt lat="43.95071" lon="6.50689">
        <ele>1002</ele>
      </trkpt>
      <trkpt lat="43.95051" lon="6.50695">
        <ele>1003</ele>
      </trkpt>
      <trkpt lat="43.95036" lon="6.507">
        <ele>1004</ele>
      </trkpt>
      <trkpt lat="43.95018" lon="6.50698">
        <ele>1007</ele>
      </trkpt>
      <trkpt lat="43.95001" lon="6.50694">
        <ele>1010</ele>
      </trkpt>
      <trkpt lat="43.94988" lon="6.50701">
        <ele>1009</ele>
      </trkpt>
      <trkpt lat="43.9497" lon="6.5071">
        <ele>1007</ele>
      </trkpt>
      <trkpt lat="43.9495" lon="6.50722">
        <ele>1007</ele>
      </trkpt>
      <trkpt lat="43.94931" lon="6.5073">
        <ele>1008</ele>
      </trkpt>
      <trkpt lat="43.94914" lon="6.50738">
        <ele>1010</ele>
      </trkpt>
      <trkpt lat="43.94903" lon="6.50746">
        <ele>1011</ele>
      </trkpt>
      <trkpt lat="43.94897" lon="6.50747">
        <ele>1012</ele>
      </trkpt>
      <trkpt lat="43.94892" lon="6.50735">
        <ele>1017</ele>
      </trkpt>
      <trkpt lat="43.94895" lon="6.50723">
        <ele>1019</ele>
      </trkpt>
      <trkpt lat="43.9491" lon="6.50712">
        <ele>1018</ele>
      </trkpt>
      <trkpt lat="43.94932" lon="6.50699">
        <ele>1017</ele>
      </trkpt>
      <trkpt lat="43.94943" lon="6.50685">
        <ele>1019</ele>
      </trkpt>
      <trkpt lat="43.94956" lon="6.50673">
        <ele>1022</ele>
      </trkpt>
      <trkpt lat="43.94967" lon="6.50667">
        <ele>1022</ele>
      </trkpt>
      <trkpt lat="43.94975" lon="6.50654">
        <ele>1025</ele>
      </trkpt>
      <trkpt lat="43.9497" lon="6.50643">
        <ele>1030</ele>
      </trkpt>
      <trkpt lat="43.9496" lon="6.50642">
        <ele>1031</ele>
      </trkpt>
      <trkpt lat="43.94946" lon="6.50656">
        <ele>1028</ele>
      </trkpt>
      <trkpt lat="43.94932" lon="6.5066">
        <ele>1028</ele>
      </trkpt>
      <trkpt lat="43.94914" lon="6.50659">
        <ele>1032</ele>
      </trkpt>
      <trkpt lat="43.94896" lon="6.50664">
        <ele>1034</ele>
      </trkpt>
      <trkpt lat="43.94881" lon="6.50676">
        <ele>1035</ele>
      </trkpt>
      <trkpt lat="43.94859" lon="6.50688">
        <ele>1039</ele>
      </trkpt>
      <trkpt lat="43.94838" lon="6.50698">
        <ele>1044</ele>
      </trkpt>
      <trkpt lat="43.94823" lon="6.50712">
        <ele>1046</ele>
      </trkpt>
      <trkpt lat="43.94809" lon="6.50724">
        <ele>1048</ele>
      </trkpt>
      <trkpt lat="43.94796" lon="6.50736">
        <ele>1049</ele>
      </trkpt>
      <trkpt lat="43.94787" lon="6.50743">
        <ele>1048</ele>
      </trkpt>
      <trkpt lat="43.94775" lon="6.50757">
        <ele>1045</ele>
      </trkpt>
      <trkpt lat="43.94766" lon="6.50762">
        <ele>1044</ele>
      </trkpt>
      <trkpt lat="43.94745" lon="6.50759">
        <ele>1047</ele>
      </trkpt>
      <trkpt lat="43.94727" lon="6.5075">
        <ele>1049</ele>
      </trkpt>
      <trkpt lat="43.94714" lon="6.5074">
        <ele>1052</ele>
      </trkpt>
      <trkpt lat="43.94707" lon="6.50736">
        <ele>1053</ele>
      </trkpt>
      <trkpt lat="43.94694" lon="6.50728">
        <ele>1055</ele>
      </trkpt>
      <trkpt lat="43.94683" lon="6.50723">
        <ele>1055</ele>
      </trkpt>
      <trkpt lat="43.94672" lon="6.50719">
        <ele>1055</ele>
      </trkpt>
      <trkpt lat="43.9466" lon="6.50714">
        <ele>1056</ele>
      </trkpt>
      <trkpt lat="43.94659" lon="6.50713">
        <ele>1056</ele>
      </trkpt>
      <trkpt lat="43.94652" lon="6.50711">
        <ele>1056</ele>
      </trkpt>
      <trkpt lat="43.94638" lon="6.50707">
        <ele>1055</ele>
      </trkpt>
      <trkpt lat="43.94623" lon="6.50705">
        <ele>1054</ele>
      </trkpt>
      <trkpt lat="43.94605" lon="6.50701">
        <ele>1053</ele>
      </trkpt>
      <trkpt lat="43.94581" lon="6.50698">
        <ele>1052</ele>
      </trkpt>
      <trkpt lat="43.94561" lon="6.5069">
        <ele>1053</ele>
      </trkpt>
      <trkpt lat="43.94546" lon="6.50677">
        <ele>1056</ele>
      </trkpt>
      <trkpt lat="43.94519" lon="6.50657">
        <ele>1059</ele>
      </trkpt>
      <trkpt lat="43.94498" lon="6.50643">
        <ele>1059</ele>
      </trkpt>
      <trkpt lat="43.94482" lon="6.50628">
        <ele>1061</ele>
      </trkpt>
      <trkpt lat="43.94466" lon="6.50612">
        <ele>1062</ele>
      </trkpt>
      <trkpt lat="43.94449" lon="6.50598">
        <ele>1062</ele>
      </trkpt>
      <trkpt lat="43.9443" lon="6.50583">
        <ele>1062</ele>
      </trkpt>
      <trkpt lat="43.94409" lon="6.50558">
        <ele>1066</ele>
      </trkpt>
      <trkpt lat="43.94394" lon="6.50536">
        <ele>1070</ele>
      </trkpt>
      <trkpt lat="43.94374" lon="6.5052">
        <ele>1071</ele>
      </trkpt>
      <trkpt lat="43.94356" lon="6.5051">
        <ele>1071</ele>
      </trkpt>
      <trkpt lat="43.94339" lon="6.505">
        <ele>1072</ele>
      </trkpt>
      <trkpt lat="43.94324" lon="6.50491">
        <ele>1073</ele>
      </trkpt>
      <trkpt lat="43.94303" lon="6.50478">
        <ele>1075</ele>
      </trkpt>
      <trkpt lat="43.94284" lon="6.50471">
        <ele>1076</ele>
      </trkpt>
      <trkpt lat="43.94269" lon="6.50469">
        <ele>1076</ele>
      </trkpt>
      <trkpt lat="43.94248" lon="6.50469">
        <ele>1076</ele>
      </trkpt>
      <trkpt lat="43.94229" lon="6.50469">
        <ele>1076</ele>
      </trkpt>
      <trkpt lat="43.94211" lon="6.50468">
        <ele>1076</ele>
      </trkpt>
      <trkpt lat="43.94185" lon="6.50457">
        <ele>1078</ele>
      </trkpt>
      <trkpt lat="43.9416" lon="6.50446">
        <ele>1081</ele>
      </trkpt>
      <trkpt lat="43.94137" lon="6.50438">
        <ele>1082</ele>
      </trkpt>
      <trkpt lat="43.94117" lon="6.50428">
        <ele>1084</ele>
      </trkpt>
      <trkpt lat="43.94102" lon="6.50415">
        <ele>1088</ele>
      </trkpt>
      <trkpt lat="43.94089" lon="6.50402">
        <ele>1090</ele>
      </trkpt>
      <trkpt lat="43.94071" lon="6.50387">
        <ele>1091</ele>
      </trkpt>
      <trkpt lat="43.94056" lon="6.50381">
        <ele>1090</ele>
      </trkpt>
      <trkpt lat="43.94033" lon="6.50369">
        <ele>1089</ele>
      </trkpt>
      <trkpt lat="43.94019" lon="6.50359">
        <ele>1089</ele>
      </trkpt>
      <trkpt lat="43.93991" lon="6.5035">
        <ele>1088</ele>
      </trkpt>
      <trkpt lat="43.93975" lon="6.50348">
        <ele>1089</ele>
      </trkpt>
      <trkpt lat="43.93959" lon="6.50338">
        <ele>1091</ele>
      </trkpt>
      <trkpt lat="43.93943" lon="6.50324">
        <ele>1096</ele>
      </trkpt>
      <trkpt lat="43.93941" lon="6.50318">
        <ele>1097</ele>
      </trkpt>
      <trkpt lat="43.93948" lon="6.50302">
        <ele>1099</ele>
      </trkpt>
      <trkpt lat="43.93954" lon="6.50304">
        <ele>1098</ele>
      </trkpt>
      <trkpt lat="43.9397" lon="6.50318">
        <ele>1095</ele>
      </trkpt>
      <trkpt lat="43.93984" lon="6.50318">
        <ele>1094</ele>
      </trkpt>
      <trkpt lat="43.93998" lon="6.50313">
        <ele>1095</ele>
      </trkpt>
      <trkpt lat="43.94017" lon="6.50299">
        <ele>1099</ele>
      </trkpt>
      <trkpt lat="43.94031" lon="6.50278">
        <ele>1103</ele>
      </trkpt>
      <trkpt lat="43.94044" lon="6.50255">
        <ele>1105</ele>
      </trkpt>
      <trkpt lat="43.9405" lon="6.50232">
        <ele>1107</ele>
      </trkpt>
      <trkpt lat="43.94043" lon="6.50217">
        <ele>1109</ele>
      </trkpt>
      <trkpt lat="43.94029" lon="6.50217">
        <ele>1112</ele>
      </trkpt>
      <trkpt lat="43.94011" lon="6.50229">
        <ele>1113</ele>
      </trkpt>
      <trkpt lat="43.93996" lon="6.50238">
        <ele>1113</ele>
      </trkpt>
      <trkpt lat="43.93982" lon="6.50241">
        <ele>1112</ele>
      </trkpt>
      <trkpt lat="43.93977" lon="6.50239">
        <ele>1113</ele>
      </trkpt>
      <trkpt lat="43.93977" lon="6.50225">
        <ele>1116</ele>
      </trkpt>
      <trkpt lat="43.93982" lon="6.50218">
        <ele>1117</ele>
      </trkpt>
      <trkpt lat="43.93998" lon="6.50208">
        <ele>1118</ele>
      </trkpt>
      <trkpt lat="43.94005" lon="6.50193">
        <ele>1120</ele>
      </trkpt>
      <trkpt lat="43.94015" lon="6.50175">
        <ele>1121</ele>
      </trkpt>
      <trkpt lat="43.94028" lon="6.50154">
        <ele>1120</ele>
      </trkpt>
      <trkpt lat="43.94033" lon="6.50139">
        <ele>1121</ele>
      </trkpt>
      <trkpt lat="43.94025" lon="6.50129">
        <ele>1124</ele>
      </trkpt>
      <trkpt lat="43.94016" lon="6.5014">
        <ele>1125</ele>
      </trkpt>
      <trkpt lat="43.94011" lon="6.50152">
        <ele>1125</ele>
      </trkpt>
      <trkpt lat="43.93995" lon="6.50167">
        <ele>1126</ele>
      </trkpt>
      <trkpt lat="43.93981" lon="6.50169">
        <ele>1127</ele>
      </trkpt>
      <trkpt lat="43.93967" lon="6.50164">
        <ele>1130</ele>
      </trkpt>
      <trkpt lat="43.93952" lon="6.50166">
        <ele>1130</ele>
      </trkpt>
      <trkpt lat="43.93941" lon="6.50164">
        <ele>1130</ele>
      </trkpt>
      <trkpt lat="43.9394" lon="6.50151">
        <ele>1133</ele>
      </trkpt>
      <trkpt lat="43.93949" lon="6.50146">
        <ele>1134</ele>
      </trkpt>
      <trkpt lat="43.93974" lon="6.50147">
        <ele>1132</ele>
      </trkpt>
      <trkpt lat="43.93991" lon="6.50133">
        <ele>1132</ele>
      </trkpt>
      <trkpt lat="43.94001" lon="6.50111">
        <ele>1133</ele>
      </trkpt>
      <trkpt lat="43.94009" lon="6.50091">
        <ele>1134</ele>
      </trkpt>
      <trkpt lat="43.94016" lon="6.5007">
        <ele>1135</ele>
      </trkpt>
      <trkpt lat="43.94022" lon="6.50046">
        <ele>1136</ele>
      </trkpt>
      <trkpt lat="43.94022" lon="6.50024">
        <ele>1139</ele>
      </trkpt>
      <trkpt lat="43.94026" lon="6.49995">
        <ele>1142</ele>
      </trkpt>
      <trkpt lat="43.94029" lon="6.49979">
        <ele>1143</ele>
      </trkpt>
      <trkpt lat="43.94035" lon="6.49963">
        <ele>1143</ele>
      </trkpt>
      <trkpt lat="43.94042" lon="6.49943">
        <ele>1143</ele>
      </trkpt>
      <trkpt lat="43.94046" lon="6.4992">
        <ele>1143</ele>
      </trkpt>
      <trkpt lat="43.94037" lon="6.49911">
        <ele>1148</ele>
      </trkpt>
      <trkpt lat="43.94027" lon="6.4992">
        <ele>1150</ele>
      </trkpt>
      <trkpt lat="43.94024" lon="6.4993">
        <ele>1150</ele>
      </trkpt>
      <trkpt lat="43.9401" lon="6.49957">
        <ele>1151</ele>
      </trkpt>
      <trkpt lat="43.93994" lon="6.49971">
        <ele>1154</ele>
      </trkpt>
      <trkpt lat="43.93977" lon="6.49974">
        <ele>1158</ele>
      </trkpt>
      <trkpt lat="43.93959" lon="6.49972">
        <ele>1162</ele>
      </trkpt>
      <trkpt lat="43.93943" lon="6.49967">
        <ele>1165</ele>
      </trkpt>
      <trkpt lat="43.93923" lon="6.49951">
        <ele>1169</ele>
      </trkpt>
      <trkpt lat="43.93902" lon="6.49933">
        <ele>1171</ele>
      </trkpt>
      <trkpt lat="43.93884" lon="6.49918">
        <ele>1173</ele>
      </trkpt>
      <trkpt lat="43.93874" lon="6.49901">
        <ele>1174</ele>
      </trkpt>
      <trkpt lat="43.93869" lon="6.49877">
        <ele>1174</ele>
      </trkpt>
      <trkpt lat="43.93873" lon="6.49855">
        <ele>1174</ele>
      </trkpt>
      <trkpt lat="43.93882" lon="6.49834">
        <ele>1174</ele>
      </trkpt>
      <trkpt lat="43.93889" lon="6.49809">
        <ele>1174</ele>
      </trkpt>
      <trkpt lat="43.93888" lon="6.49785">
        <ele>1174</ele>
      </trkpt>
      <trkpt lat="43.93878" lon="6.49773">
        <ele>1175</ele>
      </trkpt>
      <trkpt lat="43.93861" lon="6.49767">
        <ele>1178</ele>
      </trkpt>
      <trkpt lat="43.93841" lon="6.49773">
        <ele>1182</ele>
      </trkpt>
      <trkpt lat="43.93824" lon="6.49781">
        <ele>1185</ele>
      </trkpt>
      <trkpt lat="43.93808" lon="6.49786">
        <ele>1187</ele>
      </trkpt>
      <trkpt lat="43.93787" lon="6.49784">
        <ele>1191</ele>
      </trkpt>
      <trkpt lat="43.93764" lon="6.49775">
        <ele>1193</ele>
      </trkpt>
      <trkpt lat="43.93755" lon="6.4978">
        <ele>1196</ele>
      </trkpt>
      <trkpt lat="43.93756" lon="6.49797">
        <ele>1196</ele>
      </trkpt>
      <trkpt lat="43.93769" lon="6.49801">
        <ele>1193</ele>
      </trkpt>
      <trkpt lat="43.93772" lon="6.49801">
        <ele>1193</ele>
      </trkpt>
      <trkpt lat="43.93793" lon="6.49808">
        <ele>1189</ele>
      </trkpt>
      <trkpt lat="43.93798" lon="6.49822">
        <ele>1186</ele>
      </trkpt>
      <trkpt lat="43.93793" lon="6.49846">
        <ele>1185</ele>
      </trkpt>
      <trkpt lat="43.9378" lon="6.49862">
        <ele>1187</ele>
      </trkpt>
      <trkpt lat="43.93759" lon="6.49876">
        <ele>1190</ele>
      </trkpt>
      <trkpt lat="43.93737" lon="6.49888">
        <ele>1193</ele>
      </trkpt>
      <trkpt lat="43.93725" lon="6.49893">
        <ele>1194</ele>
      </trkpt>
      <trkpt lat="43.93708" lon="6.49906">
        <ele>1196</ele>
      </trkpt>
      <trkpt lat="43.93694" lon="6.49919">
        <ele>1196</ele>
      </trkpt>
      <trkpt lat="43.93675" lon="6.49932">
        <ele>1197</ele>
      </trkpt>
      <trkpt lat="43.93658" lon="6.4994">
        <ele>1198</ele>
      </trkpt>
      <trkpt lat="43.93643" lon="6.49946">
        <ele>1200</ele>
      </trkpt>
      <trkpt lat="43.9363" lon="6.49959">
        <ele>1201</ele>
      </trkpt>
      <trkpt lat="43.93614" lon="6.49977">
        <ele>1201</ele>
      </trkpt>
      <trkpt lat="43.93601" lon="6.49991">
        <ele>1202</ele>
      </trkpt>
      <trkpt lat="43.93599" lon="6.49991">
        <ele>1202</ele>
      </trkpt>
      <trkpt lat="43.9359" lon="6.4998">
        <ele>1206</ele>
      </trkpt>
      <trkpt lat="43.93595" lon="6.49966">
        <ele>1207</ele>
      </trkpt>
      <trkpt lat="43.93599" lon="6.49962">
        <ele>1207</ele>
      </trkpt>
      <trkpt lat="43.93614" lon="6.49946">
        <ele>1206</ele>
      </trkpt>
      <trkpt lat="43.9363" lon="6.49917">
        <ele>1208</ele>
      </trkpt>
      <trkpt lat="43.93636" lon="6.49906">
        <ele>1208</ele>
      </trkpt>
      <trkpt lat="43.9365" lon="6.49882">
        <ele>1208</ele>
      </trkpt>
      <trkpt lat="43.93659" lon="6.49871">
        <ele>1208</ele>
      </trkpt>
      <trkpt lat="43.93663" lon="6.4986">
        <ele>1208</ele>
      </trkpt>
      <trkpt lat="43.9366" lon="6.49842">
        <ele>1210</ele>
      </trkpt>
      <trkpt lat="43.93657" lon="6.49839">
        <ele>1211</ele>
      </trkpt>
      <trkpt lat="43.93647" lon="6.49843">
        <ele>1213</ele>
      </trkpt>
      <trkpt lat="43.93646" lon="6.49848">
        <ele>1212</ele>
      </trkpt>
      <trkpt lat="43.9364" lon="6.49868">
        <ele>1212</ele>
      </trkpt>
      <trkpt lat="43.93629" lon="6.49879">
        <ele>1213</ele>
      </trkpt>
      <trkpt lat="43.93613" lon="6.49888">
        <ele>1215</ele>
      </trkpt>
      <trkpt lat="43.936" lon="6.49894">
        <ele>1218</ele>
      </trkpt>
      <trkpt lat="43.93588" lon="6.49901">
        <ele>1220</ele>
      </trkpt>
      <trkpt lat="43.93573" lon="6.49914">
        <ele>1221</ele>
      </trkpt>
      <trkpt lat="43.93561" lon="6.49927">
        <ele>1221</ele>
      </trkpt>
      <trkpt lat="43.9355" lon="6.49937">
        <ele>1222</ele>
      </trkpt>
      <trkpt lat="43.93542" lon="6.49947">
        <ele>1222</ele>
      </trkpt>
      <trkpt lat="43.9353" lon="6.49964">
        <ele>1222</ele>
      </trkpt>
      <trkpt lat="43.93516" lon="6.49974">
        <ele>1224</ele>
      </trkpt>
      <trkpt lat="43.93499" lon="6.49984">
        <ele>1227</ele>
      </trkpt>
      <trkpt lat="43.93483" lon="6.49997">
        <ele>1229</ele>
      </trkpt>
      <trkpt lat="43.93465" lon="6.5001">
        <ele>1232</ele>
      </trkpt>
      <trkpt lat="43.93453" lon="6.50018">
        <ele>1235</ele>
      </trkpt>
      <trkpt lat="43.93443" lon="6.50031">
        <ele>1238</ele>
      </trkpt>
      <trkpt lat="43.93437" lon="6.50041">
        <ele>1240</ele>
      </trkpt>
      <trkpt lat="43.93433" lon="6.50052">
        <ele>1242</ele>
      </trkpt>
      <trkpt lat="43.93421" lon="6.5005">
        <ele>1244</ele>
      </trkpt>
      <trkpt lat="43.93419" lon="6.50039">
        <ele>1244</ele>
      </trkpt>
      <trkpt lat="43.93426" lon="6.50019">
        <ele>1241</ele>
      </trkpt>
      <trkpt lat="43.93433" lon="6.50001">
        <ele>1240</ele>
      </trkpt>
      <trkpt lat="43.93437" lon="6.49987">
        <ele>1240</ele>
      </trkpt>
      <trkpt lat="43.93446" lon="6.49967">
        <ele>1240</ele>
      </trkpt>
      <trkpt lat="43.93457" lon="6.49956">
        <ele>1239</ele>
      </trkpt>
      <trkpt lat="43.93463" lon="6.49946">
        <ele>1239</ele>
      </trkpt>
      <trkpt lat="43.93463" lon="6.49927">
        <ele>1240</ele>
      </trkpt>
      <trkpt lat="43.93457" lon="6.4991">
        <ele>1243</ele>
      </trkpt>
      <trkpt lat="43.93447" lon="6.49898">
        <ele>1245</ele>
      </trkpt>
      <trkpt lat="43.93438" lon="6.49895">
        <ele>1247</ele>
      </trkpt>
      <trkpt lat="43.93423" lon="6.49898">
        <ele>1249</ele>
      </trkpt>
      <trkpt lat="43.9341" lon="6.49911">
        <ele>1251</ele>
      </trkpt>
      <trkpt lat="43.934" lon="6.49927">
        <ele>1252</ele>
      </trkpt>
      <trkpt lat="43.93389" lon="6.49948">
        <ele>1254</ele>
      </trkpt>
      <trkpt lat="43.93384" lon="6.49967">
        <ele>1255</ele>
      </trkpt>
      <trkpt lat="43.9338" lon="6.49989">
        <ele>1255</ele>
      </trkpt>
      <trkpt lat="43.93374" lon="6.50011">
        <ele>1256</ele>
      </trkpt>
      <trkpt lat="43.93368" lon="6.5003">
        <ele>1258</ele>
      </trkpt>
      <trkpt lat="43.93361" lon="6.50054">
        <ele>1261</ele>
      </trkpt>
      <trkpt lat="43.93351" lon="6.50082">
        <ele>1265</ele>
      </trkpt>
      <trkpt lat="43.93345" lon="6.50105">
        <ele>1269</ele>
      </trkpt>
      <trkpt lat="43.93346" lon="6.50123">
        <ele>1270</ele>
      </trkpt>
      <trkpt lat="43.9335" lon="6.50138">
        <ele>1271</ele>
      </trkpt>
      <trkpt lat="43.93359" lon="6.50158">
        <ele>1273</ele>
      </trkpt>
      <trkpt lat="43.93372" lon="6.50168">
        <ele>1272</ele>
      </trkpt>
      <trkpt lat="43.93376" lon="6.50178">
        <ele>1272</ele>
      </trkpt>
      <trkpt lat="43.93367" lon="6.50191">
        <ele>1277</ele>
      </trkpt>
      <trkpt lat="43.93361" lon="6.50188">
        <ele>1277</ele>
      </trkpt>
      <trkpt lat="43.93343" lon="6.50173">
        <ele>1278</ele>
      </trkpt>
      <trkpt lat="43.9333" lon="6.50166">
        <ele>1280</ele>
      </trkpt>
      <trkpt lat="43.93315" lon="6.50169">
        <ele>1283</ele>
      </trkpt>
      <trkpt lat="43.93299" lon="6.50175">
        <ele>1286</ele>
      </trkpt>
      <trkpt lat="43.93284" lon="6.50167">
        <ele>1288</ele>
      </trkpt>
      <trkpt lat="43.93275" lon="6.50149">
        <ele>1288</ele>
      </trkpt>
      <trkpt lat="43.93271" lon="6.50125">
        <ele>1287</ele>
      </trkpt>
      <trkpt lat="43.93275" lon="6.50102">
        <ele>1286</ele>
      </trkpt>
      <trkpt lat="43.9328" lon="6.50079">
        <ele>1284</ele>
      </trkpt>
      <trkpt lat="43.93285" lon="6.50057">
        <ele>1283</ele>
      </trkpt>
      <trkpt lat="43.93282" lon="6.50038">
        <ele>1284</ele>
      </trkpt>
      <trkpt lat="43.93272" lon="6.50014">
        <ele>1287</ele>
      </trkpt>
      <trkpt lat="43.9326" lon="6.50003">
        <ele>1291</ele>
      </trkpt>
      <trkpt lat="43.93247" lon="6.49988">
        <ele>1293</ele>
      </trkpt>
      <trkpt lat="43.93236" lon="6.49966">
        <ele>1293</ele>
      </trkpt>
      <trkpt lat="43.93228" lon="6.49951">
        <ele>1293</ele>
      </trkpt>
      <trkpt lat="43.93216" lon="6.49931">
        <ele>1293</ele>
      </trkpt>
      <trkpt lat="43.93206" lon="6.49938">
        <ele>1295</ele>
      </trkpt>
      <trkpt lat="43.93208" lon="6.49953">
        <ele>1296</ele>
      </trkpt>
      <trkpt lat="43.9321" lon="6.49956">
        <ele>1296</ele>
      </trkpt>
      <trkpt lat="43.93221" lon="6.49979">
        <ele>1296</ele>
      </trkpt>
      <trkpt lat="43.9322" lon="6.50007">
        <ele>1297</ele>
      </trkpt>
      <trkpt lat="43.93213" lon="6.50028">
        <ele>1299</ele>
      </trkpt>
      <trkpt lat="43.93209" lon="6.50051">
        <ele>1301</ele>
      </trkpt>
      <trkpt lat="43.93203" lon="6.50077">
        <ele>1303</ele>
      </trkpt>
      <trkpt lat="43.93198" lon="6.50098">
        <ele>1305</ele>
      </trkpt>
      <trkpt lat="43.93193" lon="6.50124">
        <ele>1307</ele>
      </trkpt>
      <trkpt lat="43.93196" lon="6.50145">
        <ele>1307</ele>
      </trkpt>
      <trkpt lat="43.93198" lon="6.50162">
        <ele>1307</ele>
      </trkpt>
      <trkpt lat="43.93197" lon="6.50167">
        <ele>1308</ele>
      </trkpt>
      <trkpt lat="43.93191" lon="6.50171">
        <ele>1309</ele>
      </trkpt>
      <trkpt lat="43.93183" lon="6.5016">
        <ele>1310</ele>
      </trkpt>
      <trkpt lat="43.9318" lon="6.50139">
        <ele>1310</ele>
      </trkpt>
      <trkpt lat="43.93176" lon="6.50121">
        <ele>1309</ele>
      </trkpt>
      <trkpt lat="43.93166" lon="6.50114">
        <ele>1310</ele>
      </trkpt>
      <trkpt lat="43.93157" lon="6.50122">
        <ele>1312</ele>
      </trkpt>
      <trkpt lat="43.9315" lon="6.50136">
        <ele>1314</ele>
      </trkpt>
      <trkpt lat="43.9314" lon="6.50153">
        <ele>1315</ele>
      </trkpt>
      <trkpt lat="43.93132" lon="6.50166">
        <ele>1317</ele>
      </trkpt>
      <trkpt lat="43.93126" lon="6.50179">
        <ele>1319</ele>
      </trkpt>
      <trkpt lat="43.93121" lon="6.50187">
        <ele>1320</ele>
      </trkpt>
      <trkpt lat="43.93116" lon="6.50194">
        <ele>1321</ele>
      </trkpt>
      <trkpt lat="43.93102" lon="6.50215">
        <ele>1324</ele>
      </trkpt>
      <trkpt lat="43.9309" lon="6.50241">
        <ele>1322</ele>
      </trkpt>
      <trkpt lat="43.93082" lon="6.50266">
        <ele>1321</ele>
      </trkpt>
      <trkpt lat="43.93077" lon="6.50285">
        <ele>1322</ele>
      </trkpt>
      <trkpt lat="43.93076" lon="6.50303">
        <ele>1324</ele>
      </trkpt>
      <trkpt lat="43.93075" lon="6.50328">
        <ele>1328</ele>
      </trkpt>
      <trkpt lat="43.93068" lon="6.50354">
        <ele>1330</ele>
      </trkpt>
      <trkpt lat="43.93057" lon="6.50377">
        <ele>1333</ele>
      </trkpt>
      <trkpt lat="43.93039" lon="6.504">
        <ele>1332</ele>
      </trkpt>
      <trkpt lat="43.93017" lon="6.5043">
        <ele>1331</ele>
      </trkpt>
      <trkpt lat="43.93008" lon="6.50442">
        <ele>1331</ele>
      </trkpt>
      <trkpt lat="43.92968" lon="6.5048">
        <ele>1325</ele>
      </trkpt>
      <trkpt lat="43.92927" lon="6.50515">
        <ele>1323</ele>
      </trkpt>
      <trkpt lat="43.92922" lon="6.50519">
        <ele>1323</ele>
      </trkpt>
      <trkpt lat="43.92887" lon="6.50533">
        <ele>1319</ele>
      </trkpt>
      <trkpt lat="43.92883" lon="6.50535">
        <ele>1319</ele>
      </trkpt>
      <trkpt lat="43.92869" lon="6.50544">
        <ele>1318</ele>
      </trkpt>
      <trkpt lat="43.92833" lon="6.50563">
        <ele>1314</ele>
      </trkpt>
      <trkpt lat="43.92815" lon="6.5058">
        <ele>1312</ele>
      </trkpt>
      <trkpt lat="43.92791" lon="6.50601">
        <ele>1310</ele>
      </trkpt>
      <trkpt lat="43.92764" lon="6.50639">
        <ele>1310</ele>
      </trkpt>
      <trkpt lat="43.92738" lon="6.50661">
        <ele>1306</ele>
      </trkpt>
      <trkpt lat="43.9269" lon="6.50685">
        <ele>1299</ele>
      </trkpt>
      <trkpt lat="43.92682" lon="6.5069">
        <ele>1297</ele>
      </trkpt>
      <trkpt lat="43.92663" lon="6.50713">
        <ele>1294</ele>
      </trkpt>
      <trkpt lat="43.92659" lon="6.50734">
        <ele>1293</ele>
      </trkpt>
      <trkpt lat="43.92656" lon="6.50767">
        <ele>1292</ele>
      </trkpt>
      <trkpt lat="43.92647" lon="6.50806">
        <ele>1293</ele>
      </trkpt>
      <trkpt lat="43.92626" lon="6.50838">
        <ele>1294</ele>
      </trkpt>
      <trkpt lat="43.92599" lon="6.50852">
        <ele>1294</ele>
      </trkpt>
      <trkpt lat="43.92585" lon="6.50852">
        <ele>1293</ele>
      </trkpt>
      <trkpt lat="43.9256" lon="6.50857">
        <ele>1292</ele>
      </trkpt>
      <trkpt lat="43.92536" lon="6.50869">
        <ele>1291</ele>
      </trkpt>
      <trkpt lat="43.92527" lon="6.50877">
        <ele>1291</ele>
      </trkpt>
      <trkpt lat="43.92517" lon="6.50887">
        <ele>1292</ele>
      </trkpt>
      <trkpt lat="43.92497" lon="6.50893">
        <ele>1291</ele>
      </trkpt>
      <trkpt lat="43.92486" lon="6.50893">
        <ele>1289</ele>
      </trkpt>
      <trkpt lat="43.92463" lon="6.50899">
        <ele>1287</ele>
      </trkpt>
      <trkpt lat="43.92423" lon="6.50924">
        <ele>1285</ele>
      </trkpt>
      <trkpt lat="43.92377" lon="6.50945">
        <ele>1284</ele>
      </trkpt>
      <trkpt lat="43.92346" lon="6.50956">
        <ele>1283</ele>
      </trkpt>
      <trkpt lat="43.92291" lon="6.50967">
        <ele>1282</ele>
      </trkpt>
      <trkpt lat="43.92263" lon="6.50976">
        <ele>1282</ele>
      </trkpt>
      <trkpt lat="43.92246" lon="6.50988">
        <ele>1282</ele>
      </trkpt>
      <trkpt lat="43.9223" lon="6.51">
        <ele>1280</ele>
      </trkpt>
      <trkpt lat="43.92217" lon="6.51003">
        <ele>1279</ele>
      </trkpt>
      <trkpt lat="43.92201" lon="6.51006">
        <ele>1277</ele>
      </trkpt>
      <trkpt lat="43.9218" lon="6.51005">
        <ele>1275</ele>
      </trkpt>
      <trkpt lat="43.92159" lon="6.51008">
        <ele>1271</ele>
      </trkpt>
      <trkpt lat="43.92154" lon="6.51009">
        <ele>1270</ele>
      </trkpt>
      <trkpt lat="43.92139" lon="6.51008">
        <ele>1268</ele>
      </trkpt>
      <trkpt lat="43.92123" lon="6.51001">
        <ele>1268</ele>
      </trkpt>
      <trkpt lat="43.92102" lon="6.50984">
        <ele>1269</ele>
      </trkpt>
      <trkpt lat="43.92071" lon="6.50967">
        <ele>1268</ele>
      </trkpt>
      <trkpt lat="43.92036" lon="6.50945">
        <ele>1266</ele>
      </trkpt>
      <trkpt lat="43.92024" lon="6.50937">
        <ele>1267</ele>
      </trkpt>
      <trkpt lat="43.91993" lon="6.50932">
        <ele>1267</ele>
      </trkpt>
      <trkpt lat="43.91989" lon="6.50933">
        <ele>1267</ele>
      </trkpt>
      <trkpt lat="43.91974" lon="6.50932">
        <ele>1268</ele>
      </trkpt>
      <trkpt lat="43.91961" lon="6.50917">
        <ele>1270</ele>
      </trkpt>
      <trkpt lat="43.91943" lon="6.50899">
        <ele>1271</ele>
      </trkpt>
      <trkpt lat="43.91922" lon="6.50891">
        <ele>1272</ele>
      </trkpt>
      <trkpt lat="43.91885" lon="6.50883">
        <ele>1274</ele>
      </trkpt>
      <trkpt lat="43.91865" lon="6.50878">
        <ele>1274</ele>
      </trkpt>
      <trkpt lat="43.91863" lon="6.50878">
        <ele>1274</ele>
      </trkpt>
      <trkpt lat="43.9186" lon="6.50879">
        <ele>1275</ele>
      </trkpt>
      <trkpt lat="43.91846" lon="6.50878">
        <ele>1274</ele>
      </trkpt>
      <trkpt lat="43.91824" lon="6.50877">
        <ele>1273</ele>
      </trkpt>
      <trkpt lat="43.91797" lon="6.50878">
        <ele>1271</ele>
      </trkpt>
      <trkpt lat="43.91789" lon="6.50879">
        <ele>1271</ele>
      </trkpt>
      <trkpt lat="43.91775" lon="6.50883">
        <ele>1269</ele>
      </trkpt>
      <trkpt lat="43.91749" lon="6.50884">
        <ele>1268</ele>
      </trkpt>
      <trkpt lat="43.91738" lon="6.50882">
        <ele>1268</ele>
      </trkpt>
      <trkpt lat="43.91704" lon="6.50886">
        <ele>1266</ele>
      </trkpt>
      <trkpt lat="43.91663" lon="6.50893">
        <ele>1263</ele>
      </trkpt>
      <trkpt lat="43.91657" lon="6.50894">
        <ele>1263</ele>
      </trkpt>
      <trkpt lat="43.91635" lon="6.50903">
        <ele>1260</ele>
      </trkpt>
      <trkpt lat="43.9163" lon="6.50906">
        <ele>1260</ele>
      </trkpt>
      <trkpt lat="43.91622" lon="6.50914">
        <ele>1260</ele>
      </trkpt>
      <trkpt lat="43.91602" lon="6.50928">
        <ele>1259</ele>
      </trkpt>
      <trkpt lat="43.91559" lon="6.50937">
        <ele>1261</ele>
      </trkpt>
      <trkpt lat="43.9155" lon="6.50938">
        <ele>1262</ele>
      </trkpt>
      <trkpt lat="43.91542" lon="6.50938">
        <ele>1262</ele>
      </trkpt>
      <trkpt lat="43.91513" lon="6.50925">
        <ele>1265</ele>
      </trkpt>
      <trkpt lat="43.91494" lon="6.50924">
        <ele>1266</ele>
      </trkpt>
      <trkpt lat="43.91476" lon="6.50927">
        <ele>1266</ele>
      </trkpt>
      <trkpt lat="43.91454" lon="6.50931">
        <ele>1266</ele>
      </trkpt>
      <trkpt lat="43.91444" lon="6.50934">
        <ele>1264</ele>
      </trkpt>
      <trkpt lat="43.9142" lon="6.5094">
        <ele>1261</ele>
      </trkpt>
      <trkpt lat="43.9141" lon="6.50945">
        <ele>1259</ele>
      </trkpt>
      <trkpt lat="43.91391" lon="6.50951">
        <ele>1255</ele>
      </trkpt>
      <trkpt lat="43.91381" lon="6.50954">
        <ele>1253</ele>
      </trkpt>
      <trkpt lat="43.9137" lon="6.5096">
        <ele>1250</ele>
      </trkpt>
      <trkpt lat="43.91351" lon="6.50966">
        <ele>1247</ele>
      </trkpt>
      <trkpt lat="43.91346" lon="6.50967">
        <ele>1246</ele>
      </trkpt>
      <trkpt lat="43.91335" lon="6.50969">
        <ele>1244</ele>
      </trkpt>
      <trkpt lat="43.91329" lon="6.50975">
        <ele>1242</ele>
      </trkpt>
      <trkpt lat="43.91316" lon="6.50981">
        <ele>1240</ele>
      </trkpt>
      <trkpt lat="43.91307" lon="6.50984">
        <ele>1238</ele>
      </trkpt>
      <trkpt lat="43.91296" lon="6.50991">
        <ele>1234</ele>
      </trkpt>
      <trkpt lat="43.91287" lon="6.50994">
        <ele>1231</ele>
      </trkpt>
      <trkpt lat="43.91283" lon="6.50992">
        <ele>1231</ele>
      </trkpt>
      <trkpt lat="43.91282" lon="6.50991">
        <ele>1231</ele>
      </trkpt>
      <trkpt lat="43.91276" lon="6.5099">
        <ele>1230</ele>
      </trkpt>
      <trkpt lat="43.91267" lon="6.50982">
        <ele>1231</ele>
      </trkpt>
      <trkpt lat="43.91256" lon="6.50964">
        <ele>1233</ele>
      </trkpt>
      <trkpt lat="43.91254" lon="6.50961">
        <ele>1233</ele>
      </trkpt>
      <trkpt lat="43.91246" lon="6.50951">
        <ele>1233</ele>
      </trkpt>
      <trkpt lat="43.91241" lon="6.50945">
        <ele>1233</ele>
      </trkpt>
      <trkpt lat="43.91235" lon="6.50941">
        <ele>1232</ele>
      </trkpt>
      <trkpt lat="43.91224" lon="6.50937">
        <ele>1229</ele>
      </trkpt>
      <trkpt lat="43.91209" lon="6.50927">
        <ele>1224</ele>
      </trkpt>
      <trkpt lat="43.91206" lon="6.50924">
        <ele>1223</ele>
      </trkpt>
      <trkpt lat="43.91193" lon="6.50913">
        <ele>1219</ele>
      </trkpt>
      <trkpt lat="43.91186" lon="6.50907">
        <ele>1218</ele>
      </trkpt>
      <trkpt lat="43.91177" lon="6.50905">
        <ele>1215</ele>
      </trkpt>
      <trkpt lat="43.91175" lon="6.50903">
        <ele>1214</ele>
      </trkpt>
      <trkpt lat="43.91168" lon="6.50895">
        <ele>1213</ele>
      </trkpt>
      <trkpt lat="43.91167" lon="6.50894">
        <ele>1212</ele>
      </trkpt>
      <trkpt lat="43.91163" lon="6.50888">
        <ele>1212</ele>
      </trkpt>
      <trkpt lat="43.91161" lon="6.50886">
        <ele>1212</ele>
      </trkpt>
      <trkpt lat="43.91159" lon="6.50885">
        <ele>1211</ele>
      </trkpt>
      <trkpt lat="43.91159" lon="6.50888">
        <ele>1210</ele>
      </trkpt>
      <trkpt lat="43.91152" lon="6.50888">
        <ele>1207</ele>
      </trkpt>
      <trkpt lat="43.91151" lon="6.50886">
        <ele>1207</ele>
      </trkpt>
      <trkpt lat="43.91151" lon="6.50882">
        <ele>1208</ele>
      </trkpt>
      <trkpt lat="43.9115" lon="6.50886">
        <ele>1207</ele>
      </trkpt>
      <trkpt lat="43.91151" lon="6.50894">
        <ele>1205</ele>
      </trkpt>
      <trkpt lat="43.9115" lon="6.50901">
        <ele>1203</ele>
      </trkpt>
      <trkpt lat="43.91146" lon="6.50913">
        <ele>1199</ele>
      </trkpt>
      <trkpt lat="43.91141" lon="6.50927">
        <ele>1194</ele>
      </trkpt>
      <trkpt lat="43.91133" lon="6.50942">
        <ele>1191</ele>
      </trkpt>
      <trkpt lat="43.91129" lon="6.50947">
        <ele>1191</ele>
      </trkpt>
      <trkpt lat="43.91125" lon="6.50958">
        <ele>1190</ele>
      </trkpt>
      <trkpt lat="43.91119" lon="6.50973">
        <ele>1190</ele>
      </trkpt>
      <trkpt lat="43.91114" lon="6.50987">
        <ele>1191</ele>
      </trkpt>
      <trkpt lat="43.9111" lon="6.50994">
        <ele>1192</ele>
      </trkpt>
      <trkpt lat="43.91106" lon="6.51007">
        <ele>1191</ele>
      </trkpt>
      <trkpt lat="43.91102" lon="6.51023">
        <ele>1191</ele>
      </trkpt>
      <trkpt lat="43.91096" lon="6.51041">
        <ele>1192</ele>
      </trkpt>
      <trkpt lat="43.91092" lon="6.51059">
        <ele>1192</ele>
      </trkpt>
      <trkpt lat="43.91085" lon="6.5108">
        <ele>1192</ele>
      </trkpt>
      <trkpt lat="43.91066" lon="6.51118">
        <ele>1193</ele>
      </trkpt>
      <trkpt lat="43.91053" lon="6.51152">
        <ele>1195</ele>
      </trkpt>
      <trkpt lat="43.91049" lon="6.51168">
        <ele>1195</ele>
      </trkpt>
      <trkpt lat="43.91049" lon="6.51178">
        <ele>1194</ele>
      </trkpt>
      <trkpt lat="43.91048" lon="6.51193">
        <ele>1194</ele>
      </trkpt>
      <trkpt lat="43.91047" lon="6.51205">
        <ele>1193</ele>
      </trkpt>
      <trkpt lat="43.91042" lon="6.5123">
        <ele>1192</ele>
      </trkpt>
      <trkpt lat="43.91031" lon="6.51253">
        <ele>1192</ele>
      </trkpt>
      <trkpt lat="43.91022" lon="6.51272">
        <ele>1191</ele>
      </trkpt>
      <trkpt lat="43.91008" lon="6.51296">
        <ele>1189</ele>
      </trkpt>
      <trkpt lat="43.90993" lon="6.51312">
        <ele>1187</ele>
      </trkpt>
      <trkpt lat="43.9098" lon="6.51323">
        <ele>1187</ele>
      </trkpt>
      <trkpt lat="43.90974" lon="6.51327">
        <ele>1188</ele>
      </trkpt>
      <trkpt lat="43.90968" lon="6.51331">
        <ele>1189</ele>
      </trkpt>
      <trkpt lat="43.90966" lon="6.51332">
        <ele>1189</ele>
      </trkpt>
      <trkpt lat="43.90962" lon="6.51333">
        <ele>1190</ele>
      </trkpt>
      <trkpt lat="43.90954" lon="6.51337">
        <ele>1192</ele>
      </trkpt>
      <trkpt lat="43.90952" lon="6.51338">
        <ele>1192</ele>
      </trkpt>
      <trkpt lat="43.90947" lon="6.51357">
        <ele>1190</ele>
      </trkpt>
      <trkpt lat="43.90944" lon="6.51368">
        <ele>1189</ele>
      </trkpt>
      <trkpt lat="43.90943" lon="6.5137">
        <ele>1189</ele>
      </trkpt>
      <trkpt lat="43.90939" lon="6.51378">
        <ele>1190</ele>
      </trkpt>
      <trkpt lat="43.90931" lon="6.51393">
        <ele>1190</ele>
      </trkpt>
      <trkpt lat="43.90922" lon="6.5141">
        <ele>1190</ele>
      </trkpt>
      <trkpt lat="43.90912" lon="6.5143">
        <ele>1190</ele>
      </trkpt>
      <trkpt lat="43.90899" lon="6.51452">
        <ele>1190</ele>
      </trkpt>
      <trkpt lat="43.9088" lon="6.51475">
        <ele>1192</ele>
      </trkpt>
      <trkpt lat="43.90867" lon="6.51485">
        <ele>1193</ele>
      </trkpt>
      <trkpt lat="43.90848" lon="6.51506">
        <ele>1193</ele>
      </trkpt>
      <trkpt lat="43.90831" lon="6.51527">
        <ele>1193</ele>
      </trkpt>
      <trkpt lat="43.90816" lon="6.51542">
        <ele>1193</ele>
      </trkpt>
      <trkpt lat="43.90795" lon="6.51559">
        <ele>1194</ele>
      </trkpt>
      <trkpt lat="43.90781" lon="6.51567">
        <ele>1195</ele>
      </trkpt>
      <trkpt lat="43.90766" lon="6.51578">
        <ele>1193</ele>
      </trkpt>
      <trkpt lat="43.90756" lon="6.51585">
        <ele>1192</ele>
      </trkpt>
      <trkpt lat="43.90734" lon="6.51595">
        <ele>1189</ele>
      </trkpt>
      <trkpt lat="43.90722" lon="6.51597">
        <ele>1188</ele>
      </trkpt>
      <trkpt lat="43.90697" lon="6.51605">
        <ele>1186</ele>
      </trkpt>
      <trkpt lat="43.90678" lon="6.51608">
        <ele>1186</ele>
      </trkpt>
      <trkpt lat="43.90663" lon="6.51612">
        <ele>1186</ele>
      </trkpt>
      <trkpt lat="43.90655" lon="6.51614">
        <ele>1188</ele>
      </trkpt>
      <trkpt lat="43.90642" lon="6.51615">
        <ele>1193</ele>
      </trkpt>
      <trkpt lat="43.90638" lon="6.51626">
        <ele>1193</ele>
      </trkpt>
      <trkpt lat="43.90641" lon="6.51644">
        <ele>1190</ele>
      </trkpt>
      <trkpt lat="43.90642" lon="6.51663">
        <ele>1188</ele>
      </trkpt>
      <trkpt lat="43.90641" lon="6.51675">
        <ele>1187</ele>
      </trkpt>
      <trkpt lat="43.9064" lon="6.51704">
        <ele>1183</ele>
      </trkpt>
      <trkpt lat="43.90635" lon="6.51723">
        <ele>1182</ele>
      </trkpt>
      <trkpt lat="43.90626" lon="6.51739">
        <ele>1183</ele>
      </trkpt>
      <trkpt lat="43.90623" lon="6.51748">
        <ele>1183</ele>
      </trkpt>
      <trkpt lat="43.90616" lon="6.51758">
        <ele>1183</ele>
      </trkpt>
      <trkpt lat="43.90606" lon="6.51774">
        <ele>1183</ele>
      </trkpt>
      <trkpt lat="43.90596" lon="6.51795">
        <ele>1181</ele>
      </trkpt>
      <trkpt lat="43.90588" lon="6.51814">
        <ele>1180</ele>
      </trkpt>
      <trkpt lat="43.90581" lon="6.51826">
        <ele>1179</ele>
      </trkpt>
      <trkpt lat="43.90576" lon="6.51841">
        <ele>1178</ele>
      </trkpt>
      <trkpt lat="43.90567" lon="6.51857">
        <ele>1178</ele>
      </trkpt>
      <trkpt lat="43.90562" lon="6.51866">
        <ele>1177</ele>
      </trkpt>
      <trkpt lat="43.90552" lon="6.51892">
        <ele>1176</ele>
      </trkpt>
      <trkpt lat="43.90544" lon="6.51912">
        <ele>1175</ele>
      </trkpt>
      <trkpt lat="43.90533" lon="6.51945">
        <ele>1175</ele>
      </trkpt>
      <trkpt lat="43.90529" lon="6.51958">
        <ele>1176</ele>
      </trkpt>
      <trkpt lat="43.90526" lon="6.5197">
        <ele>1176</ele>
      </trkpt>
      <trkpt lat="43.90523" lon="6.51982">
        <ele>1176</ele>
      </trkpt>
      <trkpt lat="43.90517" lon="6.52012">
        <ele>1174</ele>
      </trkpt>
      <trkpt lat="43.90516" lon="6.52024">
        <ele>1173</ele>
      </trkpt>
      <trkpt lat="43.90508" lon="6.5206">
        <ele>1171</ele>
      </trkpt>
      <trkpt lat="43.90505" lon="6.52066">
        <ele>1171</ele>
      </trkpt>
      <trkpt lat="43.90494" lon="6.52096">
        <ele>1169</ele>
      </trkpt>
      <trkpt lat="43.90493" lon="6.52103">
        <ele>1168</ele>
      </trkpt>
      <trkpt lat="43.90489" lon="6.52116">
        <ele>1166</ele>
      </trkpt>
      <trkpt lat="43.90485" lon="6.52145">
        <ele>1161</ele>
      </trkpt>
      <trkpt lat="43.90483" lon="6.52148">
        <ele>1160</ele>
      </trkpt>
      <trkpt lat="43.90476" lon="6.52161">
        <ele>1159</ele>
      </trkpt>
      <trkpt lat="43.90472" lon="6.52166">
        <ele>1158</ele>
      </trkpt>
      <trkpt lat="43.90459" lon="6.52167">
        <ele>1159</ele>
      </trkpt>
      <trkpt lat="43.90451" lon="6.52167">
        <ele>1159</ele>
      </trkpt>
      <trkpt lat="43.90448" lon="6.52169">
        <ele>1159</ele>
      </trkpt>
      <trkpt lat="43.90437" lon="6.52178">
        <ele>1158</ele>
      </trkpt>
      <trkpt lat="43.90435" lon="6.5218">
        <ele>1158</ele>
      </trkpt>
      <trkpt lat="43.90428" lon="6.52186">
        <ele>1157</ele>
      </trkpt>
      <trkpt lat="43.90412" lon="6.52197">
        <ele>1156</ele>
      </trkpt>
      <trkpt lat="43.90397" lon="6.52198">
        <ele>1155</ele>
      </trkpt>
      <trkpt lat="43.90382" lon="6.52192">
        <ele>1155</ele>
      </trkpt>
      <trkpt lat="43.90373" lon="6.52191">
        <ele>1155</ele>
      </trkpt>
      <trkpt lat="43.90372" lon="6.52191">
        <ele>1155</ele>
      </trkpt>
      <trkpt lat="43.90371" lon="6.52187">
        <ele>1156</ele>
      </trkpt>
      <trkpt lat="43.90362" lon="6.52178">
        <ele>1154</ele>
      </trkpt>
      <trkpt lat="43.90357" lon="6.52164">
        <ele>1154</ele>
      </trkpt>
      <trkpt lat="43.90355" lon="6.52161">
        <ele>1154</ele>
      </trkpt>
      <trkpt lat="43.90342" lon="6.52137">
        <ele>1151</ele>
      </trkpt>
      <trkpt lat="43.9034" lon="6.5213">
        <ele>1151</ele>
      </trkpt>
      <trkpt lat="43.90337" lon="6.52125">
        <ele>1150</ele>
      </trkpt>
      <trkpt lat="43.90332" lon="6.52118">
        <ele>1149</ele>
      </trkpt>
      <trkpt lat="43.90322" lon="6.52094">
        <ele>1145</ele>
      </trkpt>
      <trkpt lat="43.90311" lon="6.52059">
        <ele>1143</ele>
      </trkpt>
      <trkpt lat="43.90303" lon="6.52041">
        <ele>1141</ele>
      </trkpt>
      <trkpt lat="43.90295" lon="6.52028">
        <ele>1139</ele>
      </trkpt>
      <trkpt lat="43.9028" lon="6.52007">
        <ele>1135</ele>
      </trkpt>
      <trkpt lat="43.9027" lon="6.51995">
        <ele>1133</ele>
      </trkpt>
      <trkpt lat="43.90265" lon="6.51989">
        <ele>1132</ele>
      </trkpt>
      <trkpt lat="43.90262" lon="6.51984">
        <ele>1132</ele>
      </trkpt>
      <trkpt lat="43.90253" lon="6.51973">
        <ele>1130</ele>
      </trkpt>
      <trkpt lat="43.9025" lon="6.5197">
        <ele>1129</ele>
      </trkpt>
      <trkpt lat="43.9024" lon="6.51969">
        <ele>1126</ele>
      </trkpt>
      <trkpt lat="43.90238" lon="6.51971">
        <ele>1124</ele>
      </trkpt>
      <trkpt lat="43.90233" lon="6.51976">
        <ele>1122</ele>
      </trkpt>
      <trkpt lat="43.90214" lon="6.51976">
        <ele>1117</ele>
      </trkpt>
      <trkpt lat="43.90207" lon="6.5198">
        <ele>1114</ele>
      </trkpt>
      <trkpt lat="43.90208" lon="6.51985">
        <ele>1114</ele>
      </trkpt>
      <trkpt lat="43.9021" lon="6.51988">
        <ele>1114</ele>
      </trkpt>
      <trkpt lat="43.90223" lon="6.52002">
        <ele>1115</ele>
      </trkpt>
      <trkpt lat="43.90231" lon="6.52031">
        <ele>1112</ele>
      </trkpt>
      <trkpt lat="43.90225" lon="6.5204">
        <ele>1109</ele>
      </trkpt>
      <trkpt lat="43.9022" lon="6.52055">
        <ele>1105</ele>
      </trkpt>
      <trkpt lat="43.90221" lon="6.52061">
        <ele>1105</ele>
      </trkpt>
      <trkpt lat="43.90226" lon="6.52073">
        <ele>1104</ele>
      </trkpt>
      <trkpt lat="43.90233" lon="6.52094">
        <ele>1104</ele>
      </trkpt>
      <trkpt lat="43.90232" lon="6.52126">
        <ele>1102</ele>
      </trkpt>
      <trkpt lat="43.90237" lon="6.52156">
        <ele>1101</ele>
      </trkpt>
      <trkpt lat="43.90234" lon="6.52181">
        <ele>1098</ele>
      </trkpt>
      <trkpt lat="43.9023" lon="6.52185">
        <ele>1097</ele>
      </trkpt>
      <trkpt lat="43.90222" lon="6.52193">
        <ele>1095</ele>
      </trkpt>
      <trkpt lat="43.90203" lon="6.52204">
        <ele>1089</ele>
      </trkpt>
      <trkpt lat="43.90188" lon="6.52215">
        <ele>1084</ele>
      </trkpt>
      <trkpt lat="43.90179" lon="6.52238">
        <ele>1080</ele>
      </trkpt>
      <trkpt lat="43.90175" lon="6.52273">
        <ele>1076</ele>
      </trkpt>
      <trkpt lat="43.90175" lon="6.52279">
        <ele>1075</ele>
      </trkpt>
      <trkpt lat="43.90165" lon="6.52302">
        <ele>1070</ele>
      </trkpt>
      <trkpt lat="43.90144" lon="6.52334">
        <ele>1064</ele>
      </trkpt>
      <trkpt lat="43.90123" lon="6.52356">
        <ele>1060</ele>
      </trkpt>
      <trkpt lat="43.90108" lon="6.52352">
        <ele>1061</ele>
      </trkpt>
      <trkpt lat="43.90104" lon="6.52331">
        <ele>1062</ele>
      </trkpt>
      <trkpt lat="43.90097" lon="6.52305">
        <ele>1062</ele>
      </trkpt>
      <trkpt lat="43.90077" lon="6.52276">
        <ele>1059</ele>
      </trkpt>
      <trkpt lat="43.90061" lon="6.52276">
        <ele>1057</ele>
      </trkpt>
      <trkpt lat="43.90052" lon="6.52283">
        <ele>1056</ele>
      </trkpt>
      <trkpt lat="43.90029" lon="6.52294">
        <ele>1052</ele>
      </trkpt>
      <trkpt lat="43.90025" lon="6.52295">
        <ele>1052</ele>
      </trkpt>
      <trkpt lat="43.90024" lon="6.52296">
        <ele>1052</ele>
      </trkpt>
      <trkpt lat="43.90024" lon="6.52297">
        <ele>1052</ele>
      </trkpt>
      <trkpt lat="43.90022" lon="6.52297">
        <ele>1051</ele>
      </trkpt>
      <trkpt lat="43.90023" lon="6.52295">
        <ele>1052</ele>
      </trkpt>
      <trkpt lat="43.90022" lon="6.52295">
        <ele>1051</ele>
      </trkpt>
      <trkpt lat="43.90018" lon="6.52293">
        <ele>1051</ele>
      </trkpt>
      <trkpt lat="43.90014" lon="6.5228">
        <ele>1050</ele>
      </trkpt>
      <trkpt lat="43.90012" lon="6.52264">
        <ele>1050</ele>
      </trkpt>
      <trkpt lat="43.90007" lon="6.52246">
        <ele>1050</ele>
      </trkpt>
      <trkpt lat="43.90001" lon="6.5222">
        <ele>1052</ele>
      </trkpt>
      <trkpt lat="43.89996" lon="6.52199">
        <ele>1054</ele>
      </trkpt>
      <trkpt lat="43.89987" lon="6.52172">
        <ele>1055</ele>
      </trkpt>
      <trkpt lat="43.8998" lon="6.52139">
        <ele>1055</ele>
      </trkpt>
      <trkpt lat="43.89975" lon="6.52118">
        <ele>1056</ele>
      </trkpt>
      <trkpt lat="43.89962" lon="6.52106">
        <ele>1053</ele>
      </trkpt>
      <trkpt lat="43.89938" lon="6.52094">
        <ele>1048</ele>
      </trkpt>
      <trkpt lat="43.89918" lon="6.52076">
        <ele>1049</ele>
      </trkpt>
      <trkpt lat="43.89909" lon="6.52066">
        <ele>1051</ele>
      </trkpt>
      <trkpt lat="43.89897" lon="6.52046">
        <ele>1055</ele>
      </trkpt>
      <trkpt lat="43.89893" lon="6.52019">
        <ele>1060</ele>
      </trkpt>
      <trkpt lat="43.89901" lon="6.51993">
        <ele>1065</ele>
      </trkpt>
      <trkpt lat="43.89907" lon="6.51958">
        <ele>1069</ele>
      </trkpt>
      <trkpt lat="43.89914" lon="6.51908">
        <ele>1075</ele>
      </trkpt>
      <trkpt lat="43.89914" lon="6.51878">
        <ele>1076</ele>
      </trkpt>
      <trkpt lat="43.89904" lon="6.51827">
        <ele>1072</ele>
      </trkpt>
      <trkpt lat="43.89909" lon="6.51784">
        <ele>1073</ele>
      </trkpt>
      <trkpt lat="43.89912" lon="6.51766">
        <ele>1074</ele>
      </trkpt>
      <trkpt lat="43.8991" lon="6.51737">
        <ele>1072</ele>
      </trkpt>
      <trkpt lat="43.89899" lon="6.51727">
        <ele>1068</ele>
      </trkpt>
      <trkpt lat="43.8989" lon="6.51725">
        <ele>1065</ele>
      </trkpt>
      <trkpt lat="43.89873" lon="6.51724">
        <ele>1061</ele>
      </trkpt>
      <trkpt lat="43.89858" lon="6.51734">
        <ele>1057</ele>
      </trkpt>
      <trkpt lat="43.89855" lon="6.51739">
        <ele>1055</ele>
      </trkpt>
      <trkpt lat="43.89842" lon="6.51757">
        <ele>1052</ele>
      </trkpt>
      <trkpt lat="43.89818" lon="6.51764">
        <ele>1056</ele>
      </trkpt>
      <trkpt lat="43.89789" lon="6.51777">
        <ele>1059</ele>
      </trkpt>
      <trkpt lat="43.89763" lon="6.51801">
        <ele>1059</ele>
      </trkpt>
      <trkpt lat="43.89742" lon="6.51807">
        <ele>1057</ele>
      </trkpt>
      <trkpt lat="43.89723" lon="6.51817">
        <ele>1052</ele>
      </trkpt>
      <trkpt lat="43.89705" lon="6.51817">
        <ele>1052</ele>
      </trkpt>
      <trkpt lat="43.89681" lon="6.51804">
        <ele>1058</ele>
      </trkpt>
      <trkpt lat="43.89665" lon="6.51784">
        <ele>1067</ele>
      </trkpt>
      <trkpt lat="43.89642" lon="6.51742">
        <ele>1072</ele>
      </trkpt>
      <trkpt lat="43.89626" lon="6.5172">
        <ele>1076</ele>
      </trkpt>
      <trkpt lat="43.89607" lon="6.51699">
        <ele>1076</ele>
      </trkpt>
      <trkpt lat="43.89592" lon="6.51682">
        <ele>1077</ele>
      </trkpt>
      <trkpt lat="43.89576" lon="6.51653">
        <ele>1082</ele>
      </trkpt>
      <trkpt lat="43.89559" lon="6.5163">
        <ele>1085</ele>
      </trkpt>
      <trkpt lat="43.89544" lon="6.51605">
        <ele>1089</ele>
      </trkpt>
      <trkpt lat="43.89517" lon="6.51571">
        <ele>1089</ele>
      </trkpt>
      <trkpt lat="43.895" lon="6.51544">
        <ele>1090</ele>
      </trkpt>
      <trkpt lat="43.89487" lon="6.51512">
        <ele>1094</ele>
      </trkpt>
      <trkpt lat="43.8948" lon="6.51483">
        <ele>1098</ele>
      </trkpt>
      <trkpt lat="43.89455" lon="6.51439">
        <ele>1097</ele>
      </trkpt>
      <trkpt lat="43.89445" lon="6.51421">
        <ele>1097</ele>
      </trkpt>
      <trkpt lat="43.89435" lon="6.51381">
        <ele>1101</ele>
      </trkpt>
      <trkpt lat="43.89432" lon="6.51333">
        <ele>1108</ele>
      </trkpt>
      <trkpt lat="43.89428" lon="6.51308">
        <ele>1110</ele>
      </trkpt>
      <trkpt lat="43.8942" lon="6.51287">
        <ele>1110</ele>
      </trkpt>
      <trkpt lat="43.89403" lon="6.5126">
        <ele>1109</ele>
      </trkpt>
      <trkpt lat="43.89393" lon="6.51248">
        <ele>1108</ele>
      </trkpt>
      <trkpt lat="43.89377" lon="6.5123">
        <ele>1107</ele>
      </trkpt>
      <trkpt lat="43.89363" lon="6.51213">
        <ele>1108</ele>
      </trkpt>
      <trkpt lat="43.8935" lon="6.51191">
        <ele>1110</ele>
      </trkpt>
      <trkpt lat="43.89341" lon="6.51168">
        <ele>1113</ele>
      </trkpt>
      <trkpt lat="43.89335" lon="6.51144">
        <ele>1115</ele>
      </trkpt>
      <trkpt lat="43.89327" lon="6.51119">
        <ele>1118</ele>
      </trkpt>
      <trkpt lat="43.89312" lon="6.51112">
        <ele>1117</ele>
      </trkpt>
      <trkpt lat="43.89291" lon="6.51098">
        <ele>1116</ele>
      </trkpt>
      <trkpt lat="43.89276" lon="6.51074">
        <ele>1118</ele>
      </trkpt>
      <trkpt lat="43.89258" lon="6.51054">
        <ele>1119</ele>
      </trkpt>
      <trkpt lat="43.8925" lon="6.5104">
        <ele>1120</ele>
      </trkpt>
      <trkpt lat="43.89247" lon="6.51013">
        <ele>1125</ele>
      </trkpt>
      <trkpt lat="43.89245" lon="6.50979">
        <ele>1128</ele>
      </trkpt>
      <trkpt lat="43.89236" lon="6.50941">
        <ele>1129</ele>
      </trkpt>
      <trkpt lat="43.89221" lon="6.50897">
        <ele>1130</ele>
      </trkpt>
      <trkpt lat="43.89215" lon="6.50857">
        <ele>1132</ele>
      </trkpt>
      <trkpt lat="43.89207" lon="6.50824">
        <ele>1134</ele>
      </trkpt>
      <trkpt lat="43.89197" lon="6.50786">
        <ele>1134</ele>
      </trkpt>
      <trkpt lat="43.892" lon="6.50764">
        <ele>1136</ele>
      </trkpt>
      <trkpt lat="43.89213" lon="6.50727">
        <ele>1138</ele>
      </trkpt>
      <trkpt lat="43.89228" lon="6.50687">
        <ele>1140</ele>
      </trkpt>
      <trkpt lat="43.89233" lon="6.50645">
        <ele>1141</ele>
      </trkpt>
      <trkpt lat="43.89228" lon="6.50599">
        <ele>1138</ele>
      </trkpt>
      <trkpt lat="43.89227" lon="6.50592">
        <ele>1138</ele>
      </trkpt>
      <trkpt lat="43.89228" lon="6.50543">
        <ele>1138</ele>
      </trkpt>
      <trkpt lat="43.89225" lon="6.50508">
        <ele>1138</ele>
      </trkpt>
      <trkpt lat="43.89224" lon="6.50501">
        <ele>1138</ele>
      </trkpt>
      <trkpt lat="43.89229" lon="6.50476">
        <ele>1138</ele>
      </trkpt>
      <trkpt lat="43.89237" lon="6.50451">
        <ele>1140</ele>
      </trkpt>
      <trkpt lat="43.89239" lon="6.50407">
        <ele>1140</ele>
      </trkpt>
      <trkpt lat="43.89232" lon="6.50338">
        <ele>1137</ele>
      </trkpt>
      <trkpt lat="43.89231" lon="6.5032">
        <ele>1136</ele>
      </trkpt>
      <trkpt lat="43.89243" lon="6.50287">
        <ele>1140</ele>
      </trkpt>
      <trkpt lat="43.89254" lon="6.50278">
        <ele>1145</ele>
      </trkpt>
      <trkpt lat="43.89269" lon="6.50268">
        <ele>1152</ele>
      </trkpt>
      <trkpt lat="43.89277" lon="6.5025">
        <ele>1156</ele>
      </trkpt>
      <trkpt lat="43.89269" lon="6.50232">
        <ele>1152</ele>
      </trkpt>
      <trkpt lat="43.89262" lon="6.50226">
        <ele>1148</ele>
      </trkpt>
      <trkpt lat="43.89238" lon="6.50204">
        <ele>1137</ele>
      </trkpt>
      <trkpt lat="43.89213" lon="6.5019">
        <ele>1133</ele>
      </trkpt>
      <trkpt lat="43.89213" lon="6.5019">
        <ele>1133</ele>
      </trkpt>
      <trkpt lat="43.89205" lon="6.50186">
        <ele>1132</ele>
      </trkpt>
      <trkpt lat="43.89198" lon="6.50184">
        <ele>1131</ele>
      </trkpt>
      <trkpt lat="43.89183" lon="6.50178">
        <ele>1129</ele>
      </trkpt>
      <trkpt lat="43.89179" lon="6.50179">
        <ele>1128</ele>
      </trkpt>
      <trkpt lat="43.89169" lon="6.5019">
        <ele>1124</ele>
      </trkpt>
      <trkpt lat="43.8915" lon="6.502">
        <ele>1119</ele>
      </trkpt>
      <trkpt lat="43.89147" lon="6.50198">
        <ele>1119</ele>
      </trkpt>
      <trkpt lat="43.89134" lon="6.50184">
        <ele>1120</ele>
      </trkpt>
      <trkpt lat="43.89117" lon="6.50177">
        <ele>1120</ele>
      </trkpt>
      <trkpt lat="43.89113" lon="6.50175">
        <ele>1120</ele>
      </trkpt>
      <trkpt lat="43.89095" lon="6.50168">
        <ele>1119</ele>
      </trkpt>
      <trkpt lat="43.89075" lon="6.50162">
        <ele>1119</ele>
      </trkpt>
      <trkpt lat="43.89052" lon="6.50151">
        <ele>1118</ele>
      </trkpt>
      <trkpt lat="43.89046" lon="6.50147">
        <ele>1118</ele>
      </trkpt>
      <trkpt lat="43.89034" lon="6.50143">
        <ele>1116</ele>
      </trkpt>
      <trkpt lat="43.89025" lon="6.50139">
        <ele>1115</ele>
      </trkpt>
      <trkpt lat="43.89016" lon="6.50144">
        <ele>1112</ele>
      </trkpt>
      <trkpt lat="43.89013" lon="6.50147">
        <ele>1111</ele>
      </trkpt>
      <trkpt lat="43.88999" lon="6.50154">
        <ele>1108</ele>
      </trkpt>
      <trkpt lat="43.88989" lon="6.50166">
        <ele>1105</ele>
      </trkpt>
      <trkpt lat="43.88977" lon="6.50173">
        <ele>1102</ele>
      </trkpt>
      <trkpt lat="43.88961" lon="6.5019">
        <ele>1097</ele>
      </trkpt>
      <trkpt lat="43.88952" lon="6.50201">
        <ele>1094</ele>
      </trkpt>
      <trkpt lat="43.88945" lon="6.50205">
        <ele>1092</ele>
      </trkpt>
      <trkpt lat="43.88925" lon="6.50218">
        <ele>1087</ele>
      </trkpt>
      <trkpt lat="43.88908" lon="6.50225">
        <ele>1085</ele>
      </trkpt>
      <trkpt lat="43.88897" lon="6.50225">
        <ele>1084</ele>
      </trkpt>
      <trkpt lat="43.8889" lon="6.50223">
        <ele>1084</ele>
      </trkpt>
      <trkpt lat="43.88875" lon="6.50215">
        <ele>1084</ele>
      </trkpt>
      <trkpt lat="43.88863" lon="6.50206">
        <ele>1083</ele>
      </trkpt>
      <trkpt lat="43.88861" lon="6.50194">
        <ele>1084</ele>
      </trkpt>
      <trkpt lat="43.88861" lon="6.50188">
        <ele>1084</ele>
      </trkpt>
      <trkpt lat="43.88855" lon="6.50182">
        <ele>1083</ele>
      </trkpt>
      <trkpt lat="43.88854" lon="6.50182">
        <ele>1083</ele>
      </trkpt>
      <trkpt lat="43.8884" lon="6.5018">
        <ele>1081</ele>
      </trkpt>
      <trkpt lat="43.88833" lon="6.50182">
        <ele>1080</ele>
      </trkpt>
      <trkpt lat="43.88826" lon="6.5019">
        <ele>1079</ele>
      </trkpt>
      <trkpt lat="43.88823" lon="6.50194">
        <ele>1079</ele>
      </trkpt>
      <trkpt lat="43.8882" lon="6.50198">
        <ele>1078</ele>
      </trkpt>
      <trkpt lat="43.88818" lon="6.50198">
        <ele>1078</ele>
      </trkpt>
      <trkpt lat="43.88816" lon="6.50204">
        <ele>1078</ele>
      </trkpt>
      <trkpt lat="43.88808" lon="6.50215">
        <ele>1076</ele>
      </trkpt>
      <trkpt lat="43.8879" lon="6.50224">
        <ele>1073</ele>
      </trkpt>
      <trkpt lat="43.88775" lon="6.5023">
        <ele>1072</ele>
      </trkpt>
      <trkpt lat="43.88769" lon="6.50234">
        <ele>1072</ele>
      </trkpt>
      <trkpt lat="43.88757" lon="6.50242">
        <ele>1072</ele>
      </trkpt>
      <trkpt lat="43.88749" lon="6.50238">
        <ele>1073</ele>
      </trkpt>
      <trkpt lat="43.88743" lon="6.50232">
        <ele>1075</ele>
      </trkpt>
      <trkpt lat="43.88722" lon="6.50218">
        <ele>1076</ele>
      </trkpt>
      <trkpt lat="43.88706" lon="6.50212">
        <ele>1076</ele>
      </trkpt>
      <trkpt lat="43.88693" lon="6.50202">
        <ele>1077</ele>
      </trkpt>
      <trkpt lat="43.88689" lon="6.50199">
        <ele>1076</ele>
      </trkpt>
      <trkpt lat="43.88679" lon="6.50205">
        <ele>1075</ele>
      </trkpt>
      <trkpt lat="43.88676" lon="6.50209">
        <ele>1074</ele>
      </trkpt>
      <trkpt lat="43.88669" lon="6.50215">
        <ele>1073</ele>
      </trkpt>
      <trkpt lat="43.88637" lon="6.5023">
        <ele>1068</ele>
      </trkpt>
      <trkpt lat="43.88614" lon="6.50238">
        <ele>1066</ele>
      </trkpt>
      <trkpt lat="43.88602" lon="6.50252">
        <ele>1064</ele>
      </trkpt>
      <trkpt lat="43.8859" lon="6.50264">
        <ele>1063</ele>
      </trkpt>
      <trkpt lat="43.88574" lon="6.50272">
        <ele>1063</ele>
      </trkpt>
      <trkpt lat="43.88559" lon="6.50279">
        <ele>1063</ele>
      </trkpt>
      <trkpt lat="43.88549" lon="6.50284">
        <ele>1063</ele>
      </trkpt>
      <trkpt lat="43.88534" lon="6.50299">
        <ele>1064</ele>
      </trkpt>
      <trkpt lat="43.88506" lon="6.50328">
        <ele>1064</ele>
      </trkpt>
      <trkpt lat="43.88493" lon="6.50343">
        <ele>1064</ele>
      </trkpt>
      <trkpt lat="43.88466" lon="6.50373">
        <ele>1061</ele>
      </trkpt>
      <trkpt lat="43.88441" lon="6.50419">
        <ele>1058</ele>
      </trkpt>
      <trkpt lat="43.88413" lon="6.50466">
        <ele>1054</ele>
      </trkpt>
      <trkpt lat="43.884" lon="6.50489">
        <ele>1054</ele>
      </trkpt>
      <trkpt lat="43.88389" lon="6.50512">
        <ele>1053</ele>
      </trkpt>
      <trkpt lat="43.8837" lon="6.50555">
        <ele>1051</ele>
      </trkpt>
      <trkpt lat="43.88347" lon="6.506">
        <ele>1052</ele>
      </trkpt>
      <trkpt lat="43.88325" lon="6.50633">
        <ele>1055</ele>
      </trkpt>
      <trkpt lat="43.88305" lon="6.50662">
        <ele>1057</ele>
      </trkpt>
      <trkpt lat="43.88287" lon="6.50685">
        <ele>1060</ele>
      </trkpt>
      <trkpt lat="43.88276" lon="6.50687">
        <ele>1063</ele>
      </trkpt>
      <trkpt lat="43.88275" lon="6.50687">
        <ele>1064</ele>
      </trkpt>
      <trkpt lat="43.88273" lon="6.50684">
        <ele>1065</ele>
      </trkpt>
      <trkpt lat="43.88265" lon="6.50674">
        <ele>1068</ele>
      </trkpt>
      <trkpt lat="43.88257" lon="6.50678">
        <ele>1068</ele>
      </trkpt>
      <trkpt lat="43.88248" lon="6.50681">
        <ele>1068</ele>
      </trkpt>
      <trkpt lat="43.88246" lon="6.50677">
        <ele>1068</ele>
      </trkpt>
      <trkpt lat="43.88244" lon="6.50657">
        <ele>1068</ele>
      </trkpt>
      <trkpt lat="43.88243" lon="6.50653">
        <ele>1068</ele>
      </trkpt>
      <trkpt lat="43.88236" lon="6.50634">
        <ele>1067</ele>
      </trkpt>
      <trkpt lat="43.88229" lon="6.5062">
        <ele>1066</ele>
      </trkpt>
      <trkpt lat="43.88217" lon="6.50604">
        <ele>1062</ele>
      </trkpt>
      <trkpt lat="43.88203" lon="6.50586">
        <ele>1056</ele>
      </trkpt>
      <trkpt lat="43.88187" lon="6.50561">
        <ele>1050</ele>
      </trkpt>
      <trkpt lat="43.88183" lon="6.50551">
        <ele>1049</ele>
      </trkpt>
      <trkpt lat="43.8818" lon="6.50549">
        <ele>1048</ele>
      </trkpt>
      <trkpt lat="43.8818" lon="6.50561">
        <ele>1046</ele>
      </trkpt>
      <trkpt lat="43.8818" lon="6.50579">
        <ele>1044</ele>
      </trkpt>
      <trkpt lat="43.88181" lon="6.50589">
        <ele>1044</ele>
      </trkpt>
      <trkpt lat="43.88183" lon="6.50603">
        <ele>1044</ele>
      </trkpt>
      <trkpt lat="43.88186" lon="6.5061">
        <ele>1045</ele>
      </trkpt>
      <trkpt lat="43.88181" lon="6.50613">
        <ele>1042</ele>
      </trkpt>
      <trkpt lat="43.8817" lon="6.50601">
        <ele>1038</ele>
      </trkpt>
      <trkpt lat="43.88166" lon="6.50592">
        <ele>1036</ele>
      </trkpt>
      <trkpt lat="43.88161" lon="6.50576">
        <ele>1034</ele>
      </trkpt>
      <trkpt lat="43.88148" lon="6.50547">
        <ele>1031</ele>
      </trkpt>
      <trkpt lat="43.88146" lon="6.50544">
        <ele>1030</ele>
      </trkpt>
      <trkpt lat="43.88132" lon="6.50527">
        <ele>1025</ele>
      </trkpt>
      <trkpt lat="43.88119" lon="6.50521">
        <ele>1020</ele>
      </trkpt>
      <trkpt lat="43.88114" lon="6.50518">
        <ele>1018</ele>
      </trkpt>
      <trkpt lat="43.88107" lon="6.50512">
        <ele>1015</ele>
      </trkpt>
      <trkpt lat="43.88096" lon="6.50502">
        <ele>1012</ele>
      </trkpt>
      <trkpt lat="43.88086" lon="6.50481">
        <ele>1011</ele>
      </trkpt>
      <trkpt lat="43.88081" lon="6.50465">
        <ele>1011</ele>
      </trkpt>
      <trkpt lat="43.88077" lon="6.50453">
        <ele>1010</ele>
      </trkpt>
      <trkpt lat="43.88075" lon="6.50439">
        <ele>1011</ele>
      </trkpt>
      <trkpt lat="43.88075" lon="6.50435">
        <ele>1012</ele>
      </trkpt>
      <trkpt lat="43.88075" lon="6.50417">
        <ele>1012</ele>
      </trkpt>
      <trkpt lat="43.88075" lon="6.50407">
        <ele>1011</ele>
      </trkpt>
      <trkpt lat="43.88073" lon="6.50394">
        <ele>1009</ele>
      </trkpt>
      <trkpt lat="43.88072" lon="6.50388">
        <ele>1008</ele>
      </trkpt>
      <trkpt lat="43.88071" lon="6.50369">
        <ele>1006</ele>
      </trkpt>
      <trkpt lat="43.8807" lon="6.50355">
        <ele>1003</ele>
      </trkpt>
      <trkpt lat="43.88069" lon="6.50348">
        <ele>1001</ele>
      </trkpt>
      <trkpt lat="43.88071" lon="6.50337">
        <ele>1000</ele>
      </trkpt>
      <trkpt lat="43.8807" lon="6.50327">
        <ele>997</ele>
      </trkpt>
      <trkpt lat="43.88072" lon="6.50315">
        <ele>997</ele>
      </trkpt>
      <trkpt lat="43.88072" lon="6.50307">
        <ele>995</ele>
      </trkpt>
      <trkpt lat="43.88065" lon="6.50299">
        <ele>990</ele>
      </trkpt>
      <trkpt lat="43.88062" lon="6.50297">
        <ele>988</ele>
      </trkpt>
      <trkpt lat="43.88058" lon="6.50289">
        <ele>985</ele>
      </trkpt>
      <trkpt lat="43.88058" lon="6.50286">
        <ele>984</ele>
      </trkpt>
      <trkpt lat="43.8805" lon="6.50271">
        <ele>979</ele>
      </trkpt>
      <trkpt lat="43.88042" lon="6.50257">
        <ele>974</ele>
      </trkpt>
      <trkpt lat="43.8804" lon="6.50256">
        <ele>973</ele>
      </trkpt>
      <trkpt lat="43.88024" lon="6.50259">
        <ele>969</ele>
      </trkpt>
      <trkpt lat="43.88005" lon="6.5027">
        <ele>964</ele>
      </trkpt>
      <trkpt lat="43.88003" lon="6.50271">
        <ele>963</ele>
      </trkpt>
      <trkpt lat="43.87986" lon="6.5026">
        <ele>958</ele>
      </trkpt>
      <trkpt lat="43.87961" lon="6.50238">
        <ele>954</ele>
      </trkpt>
      <trkpt lat="43.87929" lon="6.50224">
        <ele>950</ele>
      </trkpt>
      <trkpt lat="43.87913" lon="6.50232">
        <ele>948</ele>
      </trkpt>
      <trkpt lat="43.87904" lon="6.50245">
        <ele>947</ele>
      </trkpt>
      <trkpt lat="43.87883" lon="6.50284">
        <ele>944</ele>
      </trkpt>
      <trkpt lat="43.87878" lon="6.50293">
        <ele>944</ele>
      </trkpt>
      <trkpt lat="43.87861" lon="6.50313">
        <ele>942</ele>
      </trkpt>
      <trkpt lat="43.87833" lon="6.50338">
        <ele>939</ele>
      </trkpt>
      <trkpt lat="43.87802" lon="6.50385">
        <ele>936</ele>
      </trkpt>
      <trkpt lat="43.87772" lon="6.50434">
        <ele>933</ele>
      </trkpt>
      <trkpt lat="43.87746" lon="6.50482">
        <ele>931</ele>
      </trkpt>
      <trkpt lat="43.87713" lon="6.50544">
        <ele>931</ele>
      </trkpt>
      <trkpt lat="43.87685" lon="6.506">
        <ele>929</ele>
      </trkpt>
      <trkpt lat="43.87659" lon="6.50659">
        <ele>925</ele>
      </trkpt>
      <trkpt lat="43.87651" lon="6.50692">
        <ele>923</ele>
      </trkpt>
      <trkpt lat="43.87642" lon="6.50727">
        <ele>921</ele>
      </trkpt>
      <trkpt lat="43.8763" lon="6.5076">
        <ele>919</ele>
      </trkpt>
      <trkpt lat="43.87609" lon="6.50815">
        <ele>916</ele>
      </trkpt>
      <trkpt lat="43.87578" lon="6.5085">
        <ele>914</ele>
      </trkpt>
      <trkpt lat="43.87558" lon="6.50849">
        <ele>914</ele>
      </trkpt>
      <trkpt lat="43.87552" lon="6.50846">
        <ele>914</ele>
      </trkpt>
      <trkpt lat="43.87533" lon="6.50833">
        <ele>914</ele>
      </trkpt>
      <trkpt lat="43.87511" lon="6.50831">
        <ele>914</ele>
      </trkpt>
      <trkpt lat="43.87499" lon="6.50844">
        <ele>913</ele>
      </trkpt>
      <trkpt lat="43.8747" lon="6.50892">
        <ele>912</ele>
      </trkpt>
      <trkpt lat="43.87434" lon="6.50961">
        <ele>909</ele>
      </trkpt>
      <trkpt lat="43.874" lon="6.51009">
        <ele>908</ele>
      </trkpt>
      <trkpt lat="43.87381" lon="6.51029">
        <ele>907</ele>
      </trkpt>
      <trkpt lat="43.87322" lon="6.51068">
        <ele>905</ele>
      </trkpt>
      <trkpt lat="43.8729" lon="6.5108">
        <ele>903</ele>
      </trkpt>
      <trkpt lat="43.87227" lon="6.51104">
        <ele>899</ele>
      </trkpt>
      <trkpt lat="43.87212" lon="6.5111">
        <ele>899</ele>
      </trkpt>
      <trkpt lat="43.87183" lon="6.51124">
        <ele>898</ele>
      </trkpt>
      <trkpt lat="43.87132" lon="6.51143">
        <ele>899</ele>
      </trkpt>
      <trkpt lat="43.87111" lon="6.51145">
        <ele>899</ele>
      </trkpt>
      <trkpt lat="43.87098" lon="6.51143">
        <ele>898</ele>
      </trkpt>
      <trkpt lat="43.87097" lon="6.51142">
        <ele>898</ele>
      </trkpt>
      <trkpt lat="43.87089" lon="6.51139">
        <ele>898</ele>
      </trkpt>
      <trkpt lat="43.87075" lon="6.51138">
        <ele>898</ele>
      </trkpt>
      <trkpt lat="43.87057" lon="6.51142">
        <ele>898</ele>
      </trkpt>
      <trkpt lat="43.87042" lon="6.51141">
        <ele>898</ele>
      </trkpt>
      <trkpt lat="43.87027" lon="6.51138">
        <ele>898</ele>
      </trkpt>
      <trkpt lat="43.8702" lon="6.51137">
        <ele>898</ele>
      </trkpt>
      <trkpt lat="43.87018" lon="6.51136">
        <ele>898</ele>
      </trkpt>
      <trkpt lat="43.87017" lon="6.51135">
        <ele>898</ele>
      </trkpt>
      <trkpt lat="43.87004" lon="6.51131">
        <ele>898</ele>
      </trkpt>
      <trkpt lat="43.86998" lon="6.51125">
        <ele>897</ele>
      </trkpt>
      <trkpt lat="43.86967" lon="6.51095">
        <ele>895</ele>
      </trkpt>
      <trkpt lat="43.86941" lon="6.51079">
        <ele>892</ele>
      </trkpt>
      <trkpt lat="43.86926" lon="6.51094">
        <ele>891</ele>
      </trkpt>
      <trkpt lat="43.8691" lon="6.51127">
        <ele>896</ele>
      </trkpt>
      <trkpt lat="43.86893" lon="6.51147">
        <ele>901</ele>
      </trkpt>
      <trkpt lat="43.86874" lon="6.51155">
        <ele>902</ele>
      </trkpt>
      <trkpt lat="43.86861" lon="6.51151">
        <ele>900</ele>
      </trkpt>
      <trkpt lat="43.86854" lon="6.51145">
        <ele>897</ele>
      </trkpt>
      <trkpt lat="43.86848" lon="6.5114">
        <ele>896</ele>
      </trkpt>
      <trkpt lat="43.86836" lon="6.51129">
        <ele>893</ele>
      </trkpt>
      <trkpt lat="43.86827" lon="6.51115">
        <ele>888</ele>
      </trkpt>
      <trkpt lat="43.86814" lon="6.51098">
        <ele>883</ele>
      </trkpt>
      <trkpt lat="43.86783" lon="6.51085">
        <ele>883</ele>
      </trkpt>
      <trkpt lat="43.86771" lon="6.51088">
        <ele>885</ele>
      </trkpt>
      <trkpt lat="43.86749" lon="6.51097">
        <ele>886</ele>
      </trkpt>
      <trkpt lat="43.8674" lon="6.51098">
        <ele>886</ele>
      </trkpt>
      <trkpt lat="43.8672" lon="6.51106">
        <ele>886</ele>
      </trkpt>
      <trkpt lat="43.86706" lon="6.51112">
        <ele>886</ele>
      </trkpt>
      <trkpt lat="43.86682" lon="6.51113">
        <ele>883</ele>
      </trkpt>
      <trkpt lat="43.86668" lon="6.51114">
        <ele>882</ele>
      </trkpt>
      <trkpt lat="43.86633" lon="6.51112">
        <ele>881</ele>
      </trkpt>
      <trkpt lat="43.866" lon="6.51117">
        <ele>881</ele>
      </trkpt>
      <trkpt lat="43.86559" lon="6.51121">
        <ele>882</ele>
      </trkpt>
      <trkpt lat="43.86514" lon="6.51126">
        <ele>884</ele>
      </trkpt>
      <trkpt lat="43.8647" lon="6.51152">
        <ele>888</ele>
      </trkpt>
      <trkpt lat="43.86448" lon="6.51168">
        <ele>890</ele>
      </trkpt>
      <trkpt lat="43.86437" lon="6.51174">
        <ele>888</ele>
      </trkpt>
      <trkpt lat="43.86411" lon="6.51199">
        <ele>888</ele>
      </trkpt>
      <trkpt lat="43.86384" lon="6.51245">
        <ele>896</ele>
      </trkpt>
      <trkpt lat="43.86353" lon="6.51273">
        <ele>894</ele>
      </trkpt>
      <trkpt lat="43.86332" lon="6.5129">
        <ele>889</ele>
      </trkpt>
      <trkpt lat="43.86306" lon="6.51326">
        <ele>884</ele>
      </trkpt>
      <trkpt lat="43.86277" lon="6.51364">
        <ele>882</ele>
      </trkpt>
      <trkpt lat="43.86256" lon="6.51377">
        <ele>881</ele>
      </trkpt>
      <trkpt lat="43.86232" lon="6.51382">
        <ele>879</ele>
      </trkpt>
      <trkpt lat="43.86212" lon="6.514">
        <ele>880</ele>
      </trkpt>
      <trkpt lat="43.86203" lon="6.51409">
        <ele>881</ele>
      </trkpt>
      <trkpt lat="43.86172" lon="6.51427">
        <ele>879</ele>
      </trkpt>
      <trkpt lat="43.86154" lon="6.51436">
        <ele>876</ele>
      </trkpt>
      <trkpt lat="43.86132" lon="6.51456">
        <ele>873</ele>
      </trkpt>
      <trkpt lat="43.86107" lon="6.51491">
        <ele>871</ele>
      </trkpt>
      <trkpt lat="43.86096" lon="6.51505">
        <ele>870</ele>
      </trkpt>
      <trkpt lat="43.86077" lon="6.51536">
        <ele>869</ele>
      </trkpt>
      <trkpt lat="43.86055" lon="6.51563">
        <ele>872</ele>
      </trkpt>
      <trkpt lat="43.86041" lon="6.51572">
        <ele>871</ele>
      </trkpt>
      <trkpt lat="43.86024" lon="6.51569">
        <ele>866</ele>
      </trkpt>
      <trkpt lat="43.8602" lon="6.51563">
        <ele>865</ele>
      </trkpt>
      <trkpt lat="43.86002" lon="6.5153">
        <ele>858</ele>
      </trkpt>
      <trkpt lat="43.85989" lon="6.51521">
        <ele>859</ele>
      </trkpt>
      <trkpt lat="43.85972" lon="6.51502">
        <ele>855</ele>
      </trkpt>
      <trkpt lat="43.85958" lon="6.51478">
        <ele>851</ele>
      </trkpt>
      <trkpt lat="43.85932" lon="6.51457">
        <ele>848</ele>
      </trkpt>
      <trkpt lat="43.85918" lon="6.51451">
        <ele>847</ele>
      </trkpt>
      <trkpt lat="43.85903" lon="6.51444">
        <ele>846</ele>
      </trkpt>
      <trkpt lat="43.85873" lon="6.51433">
        <ele>844</ele>
      </trkpt>
      <trkpt lat="43.85841" lon="6.51407">
        <ele>840</ele>
      </trkpt>
      <trkpt lat="43.85824" lon="6.51391">
        <ele>838</ele>
      </trkpt>
      <trkpt lat="43.85812" lon="6.51363">
        <ele>835</ele>
      </trkpt>
      <trkpt lat="43.85812" lon="6.51354">
        <ele>834</ele>
      </trkpt>
      <trkpt lat="43.85807" lon="6.51337">
        <ele>833</ele>
      </trkpt>
      <trkpt lat="43.85788" lon="6.51312">
        <ele>831</ele>
      </trkpt>
      <trkpt lat="43.8578" lon="6.5129">
        <ele>829</ele>
      </trkpt>
      <trkpt lat="43.85775" lon="6.51282">
        <ele>828</ele>
      </trkpt>
      <trkpt lat="43.85765" lon="6.51271">
        <ele>826</ele>
      </trkpt>
      <trkpt lat="43.85755" lon="6.51263">
        <ele>826</ele>
      </trkpt>
      <trkpt lat="43.85742" lon="6.51257">
        <ele>827</ele>
      </trkpt>
      <trkpt lat="43.85742" lon="6.51256">
        <ele>827</ele>
      </trkpt>
      <trkpt lat="43.85741" lon="6.51257">
        <ele>827</ele>
      </trkpt>
      <trkpt lat="43.85733" lon="6.51259">
        <ele>829</ele>
      </trkpt>
      <trkpt lat="43.85715" lon="6.51266">
        <ele>831</ele>
      </trkpt>
      <trkpt lat="43.8571" lon="6.51268">
        <ele>832</ele>
      </trkpt>
      <trkpt lat="43.8569" lon="6.51266">
        <ele>831</ele>
      </trkpt>
      <trkpt lat="43.85684" lon="6.51256">
        <ele>829</ele>
      </trkpt>
      <trkpt lat="43.85679" lon="6.51243">
        <ele>827</ele>
      </trkpt>
      <trkpt lat="43.85669" lon="6.51226">
        <ele>825</ele>
      </trkpt>
      <trkpt lat="43.85652" lon="6.51208">
        <ele>822</ele>
      </trkpt>
      <trkpt lat="43.85646" lon="6.51202">
        <ele>821</ele>
      </trkpt>
      <trkpt lat="43.85622" lon="6.51192">
        <ele>820</ele>
      </trkpt>
      <trkpt lat="43.85606" lon="6.51198">
        <ele>822</ele>
      </trkpt>
      <trkpt lat="43.856" lon="6.512">
        <ele>822</ele>
      </trkpt>
      <trkpt lat="43.85586" lon="6.51206">
        <ele>822</ele>
      </trkpt>
      <trkpt lat="43.85578" lon="6.51216">
        <ele>822</ele>
      </trkpt>
      <trkpt lat="43.85561" lon="6.51243">
        <ele>822</ele>
      </trkpt>
      <trkpt lat="43.85558" lon="6.51247">
        <ele>822</ele>
      </trkpt>
      <trkpt lat="43.85546" lon="6.51284">
        <ele>816</ele>
      </trkpt>
      <trkpt lat="43.85543" lon="6.51302">
        <ele>814</ele>
      </trkpt>
      <trkpt lat="43.85545" lon="6.51325">
        <ele>810</ele>
      </trkpt>
      <trkpt lat="43.85545" lon="6.51332">
        <ele>810</ele>
      </trkpt>
      <trkpt lat="43.85555" lon="6.51341">
        <ele>812</ele>
      </trkpt>
      <trkpt lat="43.85565" lon="6.51356">
        <ele>814</ele>
      </trkpt>
      <trkpt lat="43.85574" lon="6.51373">
        <ele>819</ele>
      </trkpt>
      <trkpt lat="43.85583" lon="6.51383">
        <ele>825</ele>
      </trkpt>
      <trkpt lat="43.85588" lon="6.51389">
        <ele>828</ele>
      </trkpt>
      <trkpt lat="43.85586" lon="6.51404">
        <ele>831</ele>
      </trkpt>
      <trkpt lat="43.85576" lon="6.51425">
        <ele>831</ele>
      </trkpt>
      <trkpt lat="43.85567" lon="6.51448">
        <ele>827</ele>
      </trkpt>
      <trkpt lat="43.85569" lon="6.51472">
        <ele>829</ele>
      </trkpt>
      <trkpt lat="43.85574" lon="6.51487">
        <ele>831</ele>
      </trkpt>
      <trkpt lat="43.85575" lon="6.51509">
        <ele>833</ele>
      </trkpt>
      <trkpt lat="43.85576" lon="6.51514">
        <ele>833</ele>
      </trkpt>
      <trkpt lat="43.85577" lon="6.51523">
        <ele>834</ele>
      </trkpt>
      <trkpt lat="43.85572" lon="6.51532">
        <ele>834</ele>
      </trkpt>
      <trkpt lat="43.85569" lon="6.51532">
        <ele>835</ele>
      </trkpt>
      <trkpt lat="43.85568" lon="6.51532">
        <ele>835</ele>
      </trkpt>
      <trkpt lat="43.85565" lon="6.51528">
        <ele>835</ele>
      </trkpt>
      <trkpt lat="43.85563" lon="6.51519">
        <ele>834</ele>
      </trkpt>
      <trkpt lat="43.85559" lon="6.51511">
        <ele>832</ele>
      </trkpt>
      <trkpt lat="43.85549" lon="6.51494">
        <ele>827</ele>
      </trkpt>
      <trkpt lat="43.85545" lon="6.51482">
        <ele>824</ele>
      </trkpt>
      <trkpt lat="43.85535" lon="6.51463">
        <ele>819</ele>
      </trkpt>
      <trkpt lat="43.85532" lon="6.51458">
        <ele>819</ele>
      </trkpt>
      <trkpt lat="43.85523" lon="6.51429">
        <ele>815</ele>
      </trkpt>
      <trkpt lat="43.85521" lon="6.51422">
        <ele>814</ele>
      </trkpt>
      <trkpt lat="43.85514" lon="6.51414">
        <ele>813</ele>
      </trkpt>
      <trkpt lat="43.85487" lon="6.51386">
        <ele>812</ele>
      </trkpt>
      <trkpt lat="43.85482" lon="6.51382">
        <ele>812</ele>
      </trkpt>
      <trkpt lat="43.85475" lon="6.51373">
        <ele>812</ele>
      </trkpt>
      <trkpt lat="43.85468" lon="6.51363">
        <ele>812</ele>
      </trkpt>
      <trkpt lat="43.85463" lon="6.5136">
        <ele>813</ele>
      </trkpt>
      <trkpt lat="43.85462" lon="6.5136">
        <ele>813</ele>
      </trkpt>
      <trkpt lat="43.85456" lon="6.51357">
        <ele>814</ele>
      </trkpt>
      <trkpt lat="43.85452" lon="6.51346">
        <ele>812</ele>
      </trkpt>
      <trkpt lat="43.85446" lon="6.51333">
        <ele>810</ele>
      </trkpt>
      <trkpt lat="43.85435" lon="6.51315">
        <ele>809</ele>
      </trkpt>
      <trkpt lat="43.85432" lon="6.51312">
        <ele>809</ele>
      </trkpt>
      <trkpt lat="43.85419" lon="6.51297">
        <ele>808</ele>
      </trkpt>
      <trkpt lat="43.85412" lon="6.5129">
        <ele>809</ele>
      </trkpt>
      <trkpt lat="43.85396" lon="6.5128">
        <ele>810</ele>
      </trkpt>
      <trkpt lat="43.85384" lon="6.51288">
        <ele>813</ele>
      </trkpt>
      <trkpt lat="43.85371" lon="6.51282">
        <ele>814</ele>
      </trkpt>
      <trkpt lat="43.8536" lon="6.51278">
        <ele>814</ele>
      </trkpt>
      <trkpt lat="43.85346" lon="6.51269">
        <ele>813</ele>
      </trkpt>
      <trkpt lat="43.85335" lon="6.51256">
        <ele>810</ele>
      </trkpt>
      <trkpt lat="43.85326" lon="6.51247">
        <ele>808</ele>
      </trkpt>
      <trkpt lat="43.85311" lon="6.51238">
        <ele>805</ele>
      </trkpt>
      <trkpt lat="43.85308" lon="6.51236">
        <ele>805</ele>
      </trkpt>
      <trkpt lat="43.85294" lon="6.51226">
        <ele>803</ele>
      </trkpt>
      <trkpt lat="43.85277" lon="6.51216">
        <ele>801</ele>
      </trkpt>
      <trkpt lat="43.85267" lon="6.51211">
        <ele>799</ele>
      </trkpt>
      <trkpt lat="43.85258" lon="6.51207">
        <ele>798</ele>
      </trkpt>
      <trkpt lat="43.85234" lon="6.51203">
        <ele>796</ele>
      </trkpt>
      <trkpt lat="43.85229" lon="6.51199">
        <ele>795</ele>
      </trkpt>
      <trkpt lat="43.85205" lon="6.51177">
        <ele>791</ele>
      </trkpt>
      <trkpt lat="43.85191" lon="6.51161">
        <ele>788</ele>
      </trkpt>
      <trkpt lat="43.85179" lon="6.5114">
        <ele>786</ele>
      </trkpt>
      <trkpt lat="43.85171" lon="6.51105">
        <ele>781</ele>
      </trkpt>
      <trkpt lat="43.85168" lon="6.51078">
        <ele>776</ele>
      </trkpt>
      <trkpt lat="43.85169" lon="6.51068">
        <ele>775</ele>
      </trkpt>
      <trkpt lat="43.85169" lon="6.5105">
        <ele>774</ele>
      </trkpt>
      <trkpt lat="43.85166" lon="6.51025">
        <ele>772</ele>
      </trkpt>
      <trkpt lat="43.85161" lon="6.51001">
        <ele>770</ele>
      </trkpt>
      <trkpt lat="43.85154" lon="6.5097">
        <ele>767</ele>
      </trkpt>
      <trkpt lat="43.85147" lon="6.50928">
        <ele>763</ele>
      </trkpt>
      <trkpt lat="43.85146" lon="6.5092">
        <ele>762</ele>
      </trkpt>
      <trkpt lat="43.85134" lon="6.50882">
        <ele>760</ele>
      </trkpt>
      <trkpt lat="43.85128" lon="6.50871">
        <ele>759</ele>
      </trkpt>
      <trkpt lat="43.85123" lon="6.50864">
        <ele>759</ele>
      </trkpt>
      <trkpt lat="43.85103" lon="6.50856">
        <ele>761</ele>
      </trkpt>
      <trkpt lat="43.85082" lon="6.5085">
        <ele>762</ele>
      </trkpt>
      <trkpt lat="43.85075" lon="6.50848">
        <ele>762</ele>
      </trkpt>
      <trkpt lat="43.85066" lon="6.50837">
        <ele>759</ele>
      </trkpt>
      <trkpt lat="43.85057" lon="6.50832">
        <ele>756</ele>
      </trkpt>
      <trkpt lat="43.85045" lon="6.50838">
        <ele>756</ele>
      </trkpt>
      <trkpt lat="43.85017" lon="6.50853">
        <ele>756</ele>
      </trkpt>
      <trkpt lat="43.8498" lon="6.50874">
        <ele>754</ele>
      </trkpt>
      <trkpt lat="43.84934" lon="6.50897">
        <ele>749</ele>
      </trkpt>
      <trkpt lat="43.84904" lon="6.50914">
        <ele>748</ele>
      </trkpt>
      <trkpt lat="43.84879" lon="6.50942">
        <ele>747</ele>
      </trkpt>
      <trkpt lat="43.84853" lon="6.50987">
        <ele>744</ele>
      </trkpt>
      <trkpt lat="43.84831" lon="6.51033">
        <ele>740</ele>
      </trkpt>
      <trkpt lat="43.84801" lon="6.51093">
        <ele>738</ele>
      </trkpt>
      <trkpt lat="43.84785" lon="6.5114">
        <ele>738</ele>
      </trkpt>
      <trkpt lat="43.84768" lon="6.512">
        <ele>741</ele>
      </trkpt>
      <trkpt lat="43.84763" lon="6.51211">
        <ele>742</ele>
      </trkpt>
      <trkpt lat="43.84758" lon="6.51213">
        <ele>741</ele>
      </trkpt>
      <trkpt lat="43.84738" lon="6.51211">
        <ele>734</ele>
      </trkpt>
      <trkpt lat="43.84718" lon="6.51214">
        <ele>733</ele>
      </trkpt>
      <trkpt lat="43.84698" lon="6.51227">
        <ele>731</ele>
      </trkpt>
      <trkpt lat="43.84689" lon="6.5124">
        <ele>730</ele>
      </trkpt>
      <trkpt lat="43.84675" lon="6.51259">
        <ele>729</ele>
      </trkpt>
      <trkpt lat="43.84641" lon="6.51261">
        <ele>728</ele>
      </trkpt>
      <trkpt lat="43.8462" lon="6.51258">
        <ele>728</ele>
      </trkpt>
      <trkpt lat="43.84612" lon="6.51249">
        <ele>728</ele>
      </trkpt>
      <trkpt lat="43.84607" lon="6.51249">
        <ele>728</ele>
      </trkpt>
      <trkpt lat="43.84597" lon="6.51289">
        <ele>726</ele>
      </trkpt>
      <trkpt lat="43.84583" lon="6.51344">
        <ele>723</ele>
      </trkpt>
      <trkpt lat="43.84579" lon="6.51364">
        <ele>723</ele>
      </trkpt>
      <trkpt lat="43.84577" lon="6.51377">
        <ele>723</ele>
      </trkpt>
      <trkpt lat="43.84568" lon="6.51377">
        <ele>722</ele>
      </trkpt>
      <trkpt lat="43.8454" lon="6.51295">
        <ele>722</ele>
      </trkpt>
      <trkpt lat="43.84514" lon="6.51223">
        <ele>721</ele>
      </trkpt>
      <trkpt lat="43.84505" lon="6.51149">
        <ele>722</ele>
      </trkpt>
      <trkpt lat="43.84497" lon="6.51109">
        <ele>722</ele>
      </trkpt>
      <trkpt lat="43.8448" lon="6.51038">
        <ele>723</ele>
      </trkpt>
      <trkpt lat="43.84468" lon="6.50987">
        <ele>723</ele>
      </trkpt>
    </trkseg>
  </trk>
</gpx>